[[{"header":{"parameterUnit":"m.s-1","parameterCategory":1,"la1":30.6,"la2":29.2853,"lo1":-89.7004,"lo2":-87.6739,"dy":0.0162,"dx":0.0183,"nx":112,"ny":82,"refTime":"2025-03-04T06:00:00:Z","depth":0,"parameterNumber":2,"parameterNumberName":"U-component_of_WINDS"},"data":[0.0,0.0,0.0,0.0,0.0,0.0,0.0,0.0,0.0,0.0,0.0,0.0,0.0,0.0,0.0,0.0,0.0,0.0,0.0,0.0,0.0,0.0,0.0,0.0,0.0,0.0,0.0,0.0,0.0,0.0,0.0,0.0,0.0,0.0,0.0,0.0,0.0,0.0,0.0,0.0,0.0,0.0,0.0,0.0,0.0,0.0,0.0,0.0,0.0,0.0,0.0,0.0,0.0,0.0,0.0,0.0,0.0,0.0,0.0,0.0,0.0,0.0,0.0,0.0,0.0,0.0,0.0,0.0,0.0,0.0,0.0,0.0,0.0,0.0,0.0,0.0,0.0,0.0,0.0,0.0,0.0,0.0,0.0,0.0,0.0,0.0,0.0,0.0,0.0,0.0,2.456,2.3634,2.4526,2.5196,2.528,2.4544,2.4007,2.3753,0.0,0.0,0.0,0.0,0.0,0.0,0.0,0.0,0.0,0.0,0.0,0.0,0.0,0.0,0.0,0.0,0.0,0.0,0.0,0.0,0.0,0.0,0.0,0.0,0.0,0.0,0.0,0.0,0.0,0.0,0.0,0.0,0.0,0.0,0.0,0.0,0.0,0.0,0.0,0.0,0.0,0.0,0.0,0.0,0.0,0.0,0.0,0.0,0.0,0.0,0.0,0.0,0.0,0.0,0.0,0.0,0.0,0.0,0.0,0.0,0.0,0.0,0.0,0.0,0.0,0.0,0.0,0.0,0.0,0.0,0.0,0.0,0.0,0.0,0.0,0.0,0.0,0.0,0.0,0.0,0.0,0.0,0.0,0.0,0.0,0.0,0.0,0.0,0.0,0.0,0.0,0.0,0.0,0.0,0.0,0.0,0.0,0.0,0.0,0.0,0.0,0.0,0.0,0.0,2.3274,2.3703,2.4276,2.4818,2.528,2.4243,2.3525,2.3398,0.0,0.0,0.0,0.0,0.0,0.0,0.0,0.0,0.0,0.0,0.0,0.0,0.0,0.0,0.0,0.0,0.0,0.0,0.0,0.0,0.0,0.0,0.0,0.0,0.0,0.0,0.0,0.0,0.0,0.0,0.0,0.0,0.0,0.0,0.0,0.0,0.0,0.0,0.0,0.0,0.0,0.0,0.0,0.0,0.0,0.0,0.0,0.0,0.0,0.0,0.0,0.0,0.0,0.0,0.0,0.0,0.0,0.0,0.0,0.0,0.0,0.0,0.0,0.0,0.0,0.0,0.0,0.0,0.0,0.0,0.0,0.0,0.0,0.0,0.0,0.0,0.0,0.0,0.0,0.0,0.0,0.0,0.0,0.0,0.0,0.0,0.0,0.0,0.0,0.0,0.0,0.0,0.0,0.0,0.0,0.0,0.0,0.0,0.0,0.0,0.0,0.0,0.0,2.3588,2.3753,2.489,2.516,2.5337,2.5461,2.4251,2.3377,2.3119,2.1837,0.0,0.0,0.0,0.0,0.0,0.0,0.0,0.0,0.0,0.0,0.0,0.0,0.0,0.0,0.0,0.0,0.0,0.0,0.0,0.0,0.0,0.0,0.0,0.0,0.0,0.0,0.0,0.0,0.0,0.0,0.0,0.0,0.0,0.0,0.0,0.0,0.0,0.0,0.0,0.0,0.0,0.0,0.0,0.0,0.0,0.0,0.0,0.0,0.0,0.0,0.0,0.0,0.0,0.0,0.0,0.0,0.0,0.0,0.0,0.0,0.0,0.0,0.0,0.0,0.0,0.0,0.0,0.0,0.0,0.0,0.0,0.0,0.0,0.0,0.0,0.0,0.0,0.0,0.0,0.0,0.0,0.0,0.0,0.0,0.0,0.0,0.0,0.0,0.0,0.0,0.0,0.0,0.0,0.0,0.0,0.0,0.0,0.0,0.0,0.0,0.0,0.0,2.4114,2.4344,2.577,2.5917,2.5807,2.5616,2.4304,2.3307,2.2905,2.1587,0.0,0.0,0.0,0.0,0.0,0.0,0.0,0.0,0.0,0.0,0.0,0.0,0.0,0.0,0.0,0.0,0.0,0.0,0.0,0.0,0.0,0.0,0.0,0.0,0.0,0.0,0.0,0.0,0.0,0.0,0.0,0.0,0.0,0.0,0.0,0.0,0.0,0.0,0.0,0.0,0.0,0.0,0.0,0.0,0.0,0.0,0.0,0.0,0.0,0.0,0.0,0.0,0.0,0.0,0.0,0.0,0.0,0.0,0.0,0.0,0.0,0.0,0.0,0.0,0.0,0.0,0.0,0.0,0.0,0.0,0.0,0.0,0.0,0.0,0.0,0.0,0.0,0.0,0.0,0.0,0.0,0.0,0.0,0.0,0.0,0.0,0.0,0.0,0.0,0.0,0.0,0.0,0.0,0.0,0.0,0.0,0.0,0.0,0.0,0.0,0.0,0.0,2.358,2.4064,2.5491,2.5616,2.5616,2.5616,2.4304,2.3307,2.2905,2.1587,0.0,0.0,0.0,0.0,0.0,0.0,0.0,0.0,0.0,0.0,0.0,0.0,0.0,0.0,0.0,0.0,0.0,0.0,0.0,0.0,0.0,0.0,0.0,0.0,0.0,0.0,0.0,0.0,0.0,0.0,0.0,0.0,0.0,0.0,0.0,0.0,0.0,0.0,0.0,0.0,0.0,0.0,0.0,0.0,0.0,0.0,0.0,0.0,0.0,0.0,0.0,0.0,0.0,0.0,0.0,0.0,0.0,0.0,0.0,0.0,0.0,0.0,0.0,0.0,0.0,0.0,0.0,0.0,0.0,0.0,0.0,0.0,0.0,0.0,0.0,0.0,0.0,0.0,0.0,0.0,0.0,0.0,0.0,0.0,0.0,0.0,0.0,0.0,0.0,0.0,0.0,0.0,0.0,0.0,0.0,0.0,0.0,0.0,0.0,0.0,0.0,0.0,2.3237,2.4029,0.0,2.5616,2.5422,2.4952,2.4029,2.313,2.2318,0.0,0.0,0.0,0.0,0.0,0.0,0.0,0.0,0.0,0.0,0.0,0.0,0.0,0.0,0.0,0.0,0.0,0.0,0.0,0.0,0.0,0.0,0.0,0.0,0.0,0.0,0.0,0.0,0.0,0.0,0.0,0.0,0.0,0.0,0.0,0.0,0.0,0.0,0.0,0.0,0.0,0.0,0.0,0.0,0.0,0.0,0.0,0.0,0.0,0.0,0.0,0.0,0.0,0.0,0.0,0.0,0.0,0.0,0.0,0.0,0.0,0.0,0.0,0.0,0.0,0.0,0.0,0.0,0.0,0.0,0.0,0.0,0.0,0.0,0.0,0.0,0.0,0.0,0.0,0.0,0.0,0.0,0.0,0.0,0.0,0.0,0.0,0.0,0.0,0.0,0.0,0.0,0.0,0.0,0.0,0.0,0.0,0.0,0.0,0.0,0.0,0.0,2.194,2.2914,2.3951,0.0,2.5443,2.5303,2.4551,2.388,2.3052,2.2041,0.0,0.0,0.0,0.0,0.0,0.0,0.0,0.0,0.0,0.0,0.0,0.0,0.0,0.0,0.0,0.0,0.0,0.0,0.0,0.0,0.0,0.0,0.0,0.0,0.0,0.0,0.0,0.0,0.0,0.0,0.0,0.0,0.0,0.0,0.0,0.0,0.0,0.0,0.0,0.0,0.0,0.0,0.0,0.0,0.0,0.0,0.0,0.0,0.0,0.0,0.0,0.0,0.0,0.0,0.0,0.0,0.0,0.0,0.0,0.0,0.0,0.0,0.0,0.0,0.0,0.0,0.0,0.0,0.0,0.0,0.0,0.0,0.0,0.0,0.0,0.0,0.0,0.0,0.0,0.0,0.0,0.0,0.0,0.0,0.0,0.0,0.0,0.0,0.0,0.0,0.0,0.0,0.0,0.0,0.0,0.0,0.0,0.0,0.0,0.0,0.0,0.0,2.1309,2.2573,2.3744,2.4409,2.5158,2.5293,2.4553,2.389,2.3088,0.0,0.0,0.0,0.0,0.0,0.0,0.0,0.0,0.0,0.0,0.0,0.0,0.0,0.0,0.0,0.0,0.0,0.0,0.0,0.0,0.0,0.0,0.0,0.0,0.0,0.0,0.0,0.0,0.0,0.0,0.0,0.0,0.0,0.0,0.0,0.0,0.0,0.0,0.0,0.0,0.0,0.0,0.0,0.0,0.0,0.0,0.0,0.0,0.0,0.0,0.0,0.0,0.0,0.0,0.0,0.0,0.0,0.0,0.0,0.0,0.0,0.0,0.0,0.0,0.0,0.0,0.0,0.0,0.0,0.0,0.0,0.0,0.0,0.0,0.0,0.0,0.0,0.0,0.0,0.0,0.0,0.0,0.0,0.0,0.0,0.0,0.0,0.0,0.0,0.0,0.0,0.0,0.0,0.0,0.0,0.0,0.0,0.0,0.0,0.0,0.0,0.0,0.0,2.0596,2.1827,2.2994,2.3732,2.4414,2.4317,2.3116,2.3298,2.2647,2.0619,0.0,0.0,0.0,0.0,0.0,0.0,0.0,0.0,0.0,0.0,0.0,0.0,0.0,0.0,0.0,0.0,0.0,0.0,0.0,0.0,0.0,0.0,0.0,0.0,0.0,0.0,0.0,0.0,0.0,0.0,0.0,0.0,0.0,0.0,0.0,0.0,0.0,0.0,0.0,0.0,0.0,0.0,0.0,0.0,0.0,0.0,0.0,0.0,0.0,0.0,0.0,0.0,0.0,0.0,0.0,0.0,0.0,0.0,0.0,0.0,0.0,0.0,0.0,0.0,0.0,0.0,0.0,0.0,0.0,0.0,0.0,0.0,0.0,0.0,0.0,0.0,0.0,0.0,0.0,0.0,0.0,0.0,0.0,0.0,0.0,0.0,0.0,0.0,0.0,0.0,0.0,0.0,0.0,0.0,0.0,0.0,0.0,0.0,0.0,0.0,0.0,0.0,1.986,2.134,2.2671,2.3416,2.4118,2.4053,2.2945,2.3242,2.2508,2.013,0.0,0.0,0.0,0.0,0.0,0.0,0.0,0.0,0.0,0.0,0.0,0.0,0.0,0.0,0.0,0.0,0.0,0.0,0.0,0.0,0.0,0.0,0.0,0.0,0.0,0.0,0.0,0.0,0.0,0.0,0.0,0.0,0.0,0.0,0.0,0.0,0.0,0.0,0.0,0.0,0.0,0.0,0.0,0.0,0.0,0.0,0.0,0.0,0.0,0.0,0.0,0.0,0.0,0.0,0.0,0.0,0.0,0.0,0.0,0.0,0.0,0.0,0.0,0.0,0.0,0.0,0.0,0.0,0.0,0.0,0.0,0.0,0.0,0.0,0.0,0.0,0.0,0.0,0.0,0.0,0.0,0.0,0.0,0.0,0.0,0.0,0.0,0.0,0.0,0.0,0.0,0.0,0.0,0.0,0.0,0.0,0.0,0.0,0.0,0.0,0.0,0.0,1.9209,2.1012,2.2556,2.3221,2.3878,2.4011,2.3351,2.3342,2.2498,2.0407,0.0,0.0,0.0,0.0,0.0,0.0,0.0,0.0,0.0,0.0,0.0,0.0,0.0,0.0,0.0,0.0,0.0,0.0,0.0,0.0,0.0,0.0,0.0,0.0,0.0,0.0,0.0,0.0,0.0,0.0,0.0,0.0,0.0,0.0,0.0,0.0,0.0,0.0,0.0,0.0,0.0,0.0,0.0,0.0,0.0,0.0,0.0,0.0,0.0,0.0,0.0,0.0,0.0,0.0,0.0,0.0,0.0,0.0,0.0,0.0,1.1839,1.2454,0.0,0.0,0.0,0.0,0.0,0.0,0.0,0.0,0.0,0.0,0.0,0.0,0.0,0.0,0.0,0.0,0.0,0.0,0.0,0.0,0.0,0.0,0.0,0.0,0.0,0.0,0.0,0.0,0.0,0.0,0.0,0.0,0.0,0.0,0.0,0.0,0.0,0.0,0.0,0.0,1.9192,2.0578,2.1583,2.1762,2.241,2.2573,2.1827,2.2313,2.1908,2.0192,1.9994,0.0,0.0,0.0,0.0,0.0,0.0,0.0,0.0,0.0,0.0,0.0,0.0,0.0,0.0,0.0,0.0,0.0,0.0,0.0,0.0,0.0,0.0,0.0,0.0,0.0,0.0,0.0,0.0,0.0,0.0,0.0,0.0,0.0,0.0,0.0,0.0,0.0,0.0,0.0,0.0,0.0,0.0,0.0,0.0,0.0,0.0,0.0,0.0,0.0,0.0,0.0,0.0,0.0,0.0,0.0,0.0,0.0,0.0,0.0,1.0462,1.1414,0.0,0.0,0.0,0.0,0.0,0.0,0.0,0.0,0.0,0.0,0.0,0.0,0.0,0.0,0.0,0.0,0.0,0.0,0.0,0.0,0.0,0.0,0.0,0.0,0.0,0.0,0.0,0.0,0.0,0.0,0.0,0.0,0.0,0.0,0.0,0.0,0.0,0.0,0.0,0.0,1.8706,2.0097,2.1183,2.1503,2.2053,2.2232,2.1859,2.2183,2.1746,2.0238,2.0042,0.0,0.0,0.0,0.0,0.0,0.0,0.0,0.0,0.0,0.0,0.0,0.0,0.0,0.0,0.0,0.0,0.0,0.0,0.0,0.0,0.0,0.0,0.0,0.0,0.0,0.0,0.0,0.0,0.0,0.0,0.0,0.0,0.0,0.0,0.0,0.0,0.0,0.0,0.0,0.0,0.0,0.0,0.0,0.0,0.0,0.0,0.0,0.0,0.0,0.0,0.0,0.0,0.0,0.4946,0.5466,0.6086,0.6796,0.7275,0.767,0.9012,1.0212,1.1266,1.1266,0.0,0.0,0.0,0.0,0.0,0.0,0.0,0.0,0.0,0.0,0.0,0.0,0.0,0.0,0.0,0.0,0.0,0.0,0.0,0.0,0.0,0.0,1.6703,1.6233,1.6501,1.6767,1.6481,0.0,0.0,0.0,0.0,0.0,0.0,0.0,0.0,0.0,0.0,0.0,1.8192,1.9654,2.0899,2.1468,2.1836,2.2035,2.2035,2.2035,2.1536,2.0457,2.016,1.9796,0.0,0.0,0.0,0.0,0.0,0.0,0.0,0.0,0.0,0.0,0.0,0.0,0.0,0.0,0.0,0.0,0.0,0.0,0.0,0.0,0.0,0.0,0.0,0.0,0.0,0.0,0.0,0.0,0.0,0.0,0.0,0.0,0.5535,0.5232,0.0,0.0,0.0,0.0,0.0,0.0,0.0,0.0,0.0,0.0,0.0,0.0,0.0,0.19,0.2395,0.2738,0.3104,0.353,0.3845,0.4511,0.5425,0.5558,0.5892,0.647,0.7191,0.0,0.9865,0.9865,0.0,0.0,0.0,0.0,0.0,0.0,0.0,0.0,0.0,0.0,0.0,0.0,0.0,0.0,0.0,0.0,0.0,0.0,0.0,0.0,0.0,0.0,1.6638,1.6935,1.6767,1.6553,1.6519,1.6179,1.5887,1.5892,1.5879,1.5796,0.0,0.0,0.0,0.0,0.0,0.0,1.8192,1.941,2.0308,2.04,2.045,2.0485,2.0485,2.0485,2.0559,2.0733,2.0389,2.019,2.0213,1.9293,0.0,0.0,0.0,0.0,0.0,0.0,0.0,0.0,0.0,0.0,0.0,0.0,0.0,0.0,0.0,0.0,0.0,0.0,0.0,0.0,0.0,0.0,0.0,0.0,0.0,0.0,0.0,0.0,0.0,0.3263,0.334,0.3421,0.2551,0.1897,0.0,0.0,0.0,0.0,0.0,0.0,0.0,0.0,0.0,0.0344,0.0459,0.0676,0.109,0.1611,0.2073,0.2452,0.2934,0.3398,0.3834,0.4216,0.4491,0.4769,0.5701,0.6509,0.7298,0.86,0.9451,0.9865,0.0,0.0,0.0,0.0,1.1642,1.2197,1.2407,1.2568,1.2622,1.2323,0.0,0.0,0.0,0.0,0.0,0.0,0.0,1.5148,1.5538,1.5676,1.5768,1.5976,1.5856,1.5724,1.5724,1.5758,1.5885,1.6061,1.6072,1.5907,1.54,1.5655,0.0,0.0,0.0,1.7817,1.7817,1.9026,1.9909,1.9909,2.0085,2.0208,2.0208,2.0208,2.0462,2.1004,2.0508,2.0512,2.1228,2.0364,1.9564,0.0,0.0,0.0,0.0,0.0,0.0,0.0,0.0,0.0,0.0,0.0,0.0,0.0,0.0,0.0,0.0,0.0,0.0,0.0,0.0,0.0,0.0,0.0,0.0,0.0,0.0,0.0,0.0,0.148,0.1363,0.1679,0.0814,0.0304,0.0,0.0,0.0,0.0,0.0,0.0,-0.0453,-0.0712,-0.0766,-0.0511,-0.0371,-0.0162,0.0054,0.0608,0.1007,0.123,0.1677,0.2066,0.2289,0.2783,0.3116,0.3448,0.4601,0.5097,0.5257,0.7481,0.862,0.8981,0.9093,0.951,1.0028,1.0466,1.099,1.1619,1.2175,1.2332,1.2325,1.2063,1.2285,1.2564,1.2415,0.0,0.0,0.0,0.0,1.4971,1.5062,1.5108,1.5108,1.5108,1.5108,1.5108,1.5108,1.5355,1.5724,1.6027,1.6196,1.61,1.5468,1.5715,0.0,1.5375,1.6573,1.7511,1.7511,1.868,1.9545,1.9545,1.9767,1.9929,1.9929,2.0061,2.0415,2.1005,2.0628,2.0797,2.1687,2.1048,2.0303,1.9542,0.0,0.0,0.0,0.0,0.0,0.0,0.0,0.0,0.0,0.0,0.0,0.0,0.0,0.0,0.0,0.0,0.0,0.0,0.0,0.0,0.0,0.0,0.0,0.0,0.0,0.0,0.0,0.0,0.0,-0.0055,-0.0107,0.0,0.0,0.0,0.0,-0.1709,-0.1912,-0.1862,-0.1609,-0.1767,-0.1432,-0.0531,-0.033,-0.028,-0.0391,-0.0224,-0.0168,-0.028,-0.028,0.028,0.1174,0.1229,0.1786,0.279,0.3947,0.4443,0.4604,0.6416,0.7187,0.7295,0.7788,0.8368,0.8935,0.9451,1.0028,1.06,1.1569,1.1927,1.1977,1.2353,1.2177,1.1929,1.2306,1.2453,0.0,0.0,1.4092,1.4558,1.4971,1.5108,1.5108,1.5108,1.5108,1.5108,1.5108,1.5108,1.5277,1.5708,1.6201,1.641,1.6164,0.0,1.6101,1.5882,1.6785,1.7511,1.7511,1.8435,1.9139,1.9139,1.9139,1.9176,1.9176,1.9759,2.024,2.0624,2.0862,2.1038,2.1245,2.0891,2.0599,2.0344,1.9162,0.0,0.0,0.0,0.0,0.0,0.0,0.0,0.0,0.0,0.0,0.0,0.0,0.0,0.0,0.0,0.0,0.0,0.0,0.0,0.0,0.0,0.0,0.0,0.0,0.0,0.0,0.0,0.0,-0.1767,-0.2146,0.0,-0.2028,-0.2385,-0.2531,-0.2424,-0.264,-0.2696,-0.2587,-0.2782,-0.2692,-0.2362,-0.1779,-0.14,-0.1287,-0.0841,-0.0561,-0.0393,-0.0393,-0.0224,0.0112,0.0112,0.0504,0.1119,0.1952,0.2672,0.3398,0.4769,0.6032,0.7139,0.73,0.799,0.883,0.904,0.9666,1.0454,1.0812,1.1167,1.1578,1.1977,1.1984,1.1953,1.234,1.2436,1.2531,1.2855,1.307,1.3238,1.3372,1.36,1.3732,1.3732,1.3931,1.4129,1.4129,1.4408,1.4697,1.4869,1.5534,1.5936,1.5509,1.5957,1.6268,1.5826,1.6665,1.7397,1.7673,1.8296,1.8822,1.9064,1.9101,1.9101,1.9101,1.9319,1.9677,2.024,1.9963,2.0107,2.0849,2.0768,2.0387,1.9782,2.0119,1.9206,0.0,0.0,0.0,0.0,0.0,0.0,0.0,0.0,0.0,0.0,0.0,0.0,0.0,0.0,0.0,0.0,0.0,0.0,0.0,0.0,0.0,0.0,0.0,0.0,0.0,0.0,-0.3091,-0.3272,-0.3458,-0.3458,-0.307,-0.3181,-0.3236,-0.3014,-0.3183,-0.3352,-0.3352,-0.3522,-0.3524,-0.3302,-0.2796,-0.2462,-0.235,-0.1734,-0.1343,-0.1175,-0.0953,-0.0785,-0.0617,-0.0617,-0.0393,0.0056,0.0783,0.1619,0.2567,0.3671,0.505,0.6539,0.6923,0.7563,0.8249,0.8672,0.9354,1.019,1.0557,1.0964,1.1326,1.1619,1.1728,1.1769,1.2175,1.2274,1.2332,1.248,1.248,1.248,1.248,1.2657,1.2832,1.2832,1.3122,1.342,1.342,1.38,1.414,1.414,1.4903,1.5504,1.5289,1.5819,1.6213,1.5978,1.6661,1.7323,1.7557,1.8108,1.8592,1.886,1.9026,1.9101,1.9101,1.9304,1.9711,2.0364,1.9986,2.0099,2.0969,2.0812,2.0387,1.9768,2.0344,1.9754,1.7941,0.0,0.0,0.0,0.0,0.0,0.0,0.0,0.0,0.0,0.0,0.0,0.0,0.0,0.0,0.0,0.0,0.0,0.0,0.0,0.0,0.0,0.0,0.0,-0.4193,-0.4151,-0.4354,-0.4553,-0.4015,-0.368,-0.368,-0.3125,-0.3014,-0.3627,-0.3738,-0.3852,-0.3852,-0.3965,-0.3744,-0.3186,-0.313,-0.3244,-0.3413,-0.285,-0.2623,-0.2736,-0.213,-0.1572,-0.1122,-0.1122,-0.0842,-0.0393,0.0615,0.1396,0.2063,0.3123,0.4233,0.5386,0.6588,0.7085,0.7241,0.8355,0.9145,0.9769,1.0854,1.1276,1.1326,1.1326,1.1326,1.1368,1.1778,1.1877,1.1977,1.2323,1.248,1.248,1.248,1.248,1.248,1.248,1.2745,1.3016,1.3016,1.3314,1.3621,1.3621,1.4408,1.5187,1.5656,1.5788,1.5964,1.6423,1.6863,0.0,1.7199,1.7948,1.8461,1.85,1.886,1.9101,1.9101,1.9711,2.0335,2.0901,2.0959,2.1124,2.1541,2.1012,2.0599,2.0428,1.9726,1.9698,2.0372,0.0,0.0,0.0,0.0,0.0,0.0,0.0,0.0,0.0,0.0,0.0,0.0,0.0,0.0,0.0,0.0,0.0,0.0,0.0,0.0,0.0,-0.5791,-0.5666,-0.5216,-0.536,-0.5553,-0.5697,-0.5605,-0.5492,-0.5492,-0.4944,-0.467,-0.4838,-0.457,-0.4467,-0.4467,-0.4467,-0.4411,-0.4242,-0.391,-0.3799,-0.3858,-0.3461,-0.3292,-0.3347,-0.2738,-0.2404,-0.2237,-0.1794,-0.1347,-0.0898,-0.028,0.0503,0.1452,0.2512,0.3403,0.4233,0.5823,0.6701,0.7192,0.7889,0.8784,0.9718,1.0395,1.0913,1.1326,1.1326,1.1326,1.1326,1.1418,1.1477,1.1477,1.1628,1.1628,1.1628,1.1628,1.2076,1.248,1.248,1.2997,1.342,1.342,1.3515,1.3621,1.3621,1.38,1.4176,1.4686,1.5344,1.5832,1.5976,1.6367,1.682,1.7157,1.7393,1.7787,1.8422,1.8592,1.8784,1.9064,1.9711,1.9957,1.9638,1.9966,2.0217,2.0226,2.0457,2.0698,2.1062,1.9978,1.9474,0.0,0.0,0.0,0.0,0.0,0.0,0.0,0.0,0.0,0.0,0.0,0.0,0.0,0.0,0.0,0.0,0.0,0.0,0.0,0.0,0.0,0.0,-0.6621,-0.655,-0.6473,-0.6167,-0.601,-0.6085,-0.6024,-0.6028,-0.6028,-0.5833,-0.555,-0.5336,-0.5066,-0.4849,-0.4632,-0.4632,-0.4632,-0.4632,-0.4411,-0.4298,-0.4353,-0.4015,-0.3904,-0.3959,-0.3125,-0.2681,-0.2681,-0.2074,-0.1629,-0.1347,-0.0673,0.0056,0.0894,0.1899,0.2847,0.3735,0.0,0.0,0.0,0.0,0.8837,0.9666,1.019,1.0812,1.1326,1.1326,1.1326,1.1326,1.1326,1.1326,1.1326,1.1326,1.1326,1.1326,1.1326,1.1769,1.2234,1.2234,1.2793,1.3372,1.3372,1.3314,1.3331,1.3331,1.3331,0.0,1.3701,1.4722,1.5579,1.5788,1.6194,1.6607,1.6863,1.7073,1.7475,1.8108,1.8383,1.8669,1.9064,1.9464,0.0,0.0,0.0,1.9613,1.9698,2.0189,0.0,0.0,0.0,0.0,0.0,0.0,0.0,0.0,2.1018,2.0765,0.0,0.0,0.0,0.0,0.0,0.0,0.0,0.0,0.0,0.0,0.0,0.0,0.0,0.0,0.0,0.0,-0.7428,-0.7453,-0.7644,-0.6754,-0.6059,-0.6111,-0.6002,-0.5976,-0.6,-0.6173,-0.6018,-0.555,-0.5386,-0.5117,-0.4625,-0.4515,0.0,0.0,0.0,-0.4743,-0.4901,-0.4398,-0.4291,-0.4405,-0.3236,-0.2681,-0.2681,-0.2074,-0.1741,-0.1685,-0.0785,-0.0112,0.0447,0.1398,0.2514,0.3735,0.4948,0.5773,0.648,0.8084,0.9093,0.9666,1.0138,0.0,0.0,1.1326,1.1326,1.1326,1.1326,1.1326,1.1326,1.1326,1.1318,1.1377,1.1377,1.1669,1.2017,1.2017,1.254,1.3064,1.3064,1.3,1.3,1.3,1.3,1.3,1.3,1.4124,1.5142,1.5567,1.6107,1.6423,1.6423,1.6808,1.7269,1.7679,1.8147,0.0,1.8988,1.9136,1.9653,2.0712,1.9817,1.9479,1.9872,2.0331,2.0807,2.1302,2.1386,2.164,2.2086,2.2156,2.2184,2.2142,2.0498,2.033,0.0,0.0,0.0,0.0,0.0,0.0,0.0,0.0,0.0,0.0,0.0,0.0,0.0,0.0,0.0,-0.7493,-0.7428,-0.744,-0.801,-0.7425,-0.7065,-0.7323,-0.7092,-0.7014,-0.7217,-0.687,-0.6665,-0.674,-0.5828,-0.5277,-0.5171,-0.4736,-0.4519,-0.4519,-0.4632,-0.4688,-0.4743,-0.4288,-0.4064,-0.4064,-0.2847,0.0,-0.2512,-0.1905,-0.1515,-0.1178,-0.0617,-0.0168,0.0336,0.1343,0.2514,0.3735,0.5382,0.6372,0.7025,0.7783,0.8732,0.9614,0.9718,1.0446,1.1326,1.1326,1.1326,1.1326,1.1326,1.1326,0.0,1.1326,1.1519,1.1778,1.1778,1.2304,1.2783,1.2783,1.3122,1.3467,1.3467,1.3453,1.3486,1.3486,1.3486,1.3486,1.3486,1.4075,1.4558,1.464,1.54,1.592,1.592,1.6337,1.6808,1.7282,1.7679,1.8108,1.8592,1.9387,1.9783,1.9493,2.0059,2.0626,2.1139,2.16,2.1696,2.1316,2.1795,2.1865,2.1499,2.1978,2.2184,2.217,2.1819,2.1777,0.0,0.0,0.0,0.0,0.0,0.0,0.0,0.0,0.0,0.0,0.0,-0.6274,-0.7092,0.0,-0.6972,-0.8035,-0.7758,-0.7572,-0.8002,-0.7663,-0.7482,-0.7746,-0.7465,-0.7339,-0.7609,-0.751,-0.7344,-0.7122,-0.6263,-0.5605,-0.5336,-0.4791,-0.4519,-0.4519,-0.4574,-0.4467,-0.4242,-0.4015,-0.3788,-0.3564,-0.2736,-0.2402,-0.2456,-0.1962,-0.1459,-0.1066,-0.0617,-0.0168,0.028,0.1677,0.2792,0.379,0.5492,0.6372,0.6701,0.73,0.8196,0.9249,0.951,1.0131,1.0913,1.1217,1.1326,1.1326,1.1326,1.1326,1.1326,1.1326,1.1578,1.1877,1.1877,1.2442,1.3016,1.3016,1.3314,1.3621,1.3621,1.3258,1.301,1.3227,1.3093,1.301,1.3238,1.3886,1.4466,1.4697,1.5355,1.5876,1.6107,1.6337,1.6693,1.7157,1.7557,1.7988,1.8461,1.9462,1.9957,1.9624,2.0594,2.1269,2.1552,2.1953,2.2044,2.178,2.203,2.203,2.1766,2.203,2.2184,2.2184,2.2184,2.2184,0.0,0.0,0.0,0.0,0.0,0.0,0.0,0.0,-0.5145,-0.487,-0.5346,-0.6247,-0.748,-0.7269,-0.7296,-0.8346,-0.8048,-0.7753,-0.7878,-0.7748,-0.7743,-0.801,-0.7678,-0.7524,-0.7771,-0.8006,-0.7903,-0.7283,-0.6588,-0.5991,-0.55,-0.4842,-0.4519,-0.4519,-0.4519,-0.4239,-0.3741,-0.3627,-0.3347,-0.2843,-0.24,-0.2235,-0.2235,-0.1793,-0.1347,-0.0954,-0.028,0.0224,0.0616,0.2235,0.3234,0.3898,0.5437,0.6154,0.6426,0.7025,0.7931,0.8883,0.9406,0.9932,1.0506,1.1116,1.1326,1.1326,1.1326,1.1326,1.1326,1.1368,1.1728,1.2026,1.2116,1.2589,1.3112,1.3112,1.3362,1.3621,1.3621,1.3041,1.2627,1.2989,1.2861,1.2813,1.3135,1.3928,1.4651,1.4926,1.5445,1.592,1.6337,1.6423,1.6693,1.7157,1.7557,1.8028,1.8592,1.9387,1.9957,2.0088,2.0911,2.1454,2.1582,2.1999,2.2184,2.2184,2.2184,2.2184,2.2184,2.2184,2.2184,2.2184,2.2184,2.2184,-0.299,-0.3126,-0.335,-0.3398,-0.3697,-0.3909,0.0,0.0,-0.4849,-0.4828,-0.5115,-0.5639,-0.6514,-0.6719,-0.697,-0.7748,-0.7769,-0.7753,-0.7878,-0.7996,-0.8173,-0.8558,-0.8158,-0.7926,-0.8101,-0.818,-0.8069,-0.7824,-0.681,-0.6154,-0.61,-0.5062,-0.4519,-0.4519,-0.4519,-0.4239,-0.3627,-0.307,-0.2514,-0.1956,-0.1344,-0.1177,-0.1402,-0.1009,-0.0673,-0.0393,0.0952,0.1567,0.1734,0.2959,0.3843,0.4388,0.5113,0.6046,0.7085,0.7628,0.8209,0.8883,0.9406,0.9932,1.0506,1.1116,1.1326,1.1326,1.1326,1.1326,1.1368,1.1719,1.2126,1.252,1.2783,1.3218,1.3515,1.3515,1.3573,1.3621,1.3621,1.3538,1.3476,1.3527,1.3871,1.4185,1.4239,1.4652,1.488,1.4512,1.522,1.5832,1.5876,1.6238,1.6693,1.7157,1.7557,1.8108,1.895,1.9136,1.9464,2.0059,2.0551,2.1055,2.1568,2.1999,2.2184,2.2184,2.2184,2.2184,2.2184,2.2184,2.2184,2.2184,2.2184,2.2184,-0.3098,0.0,0.0,0.0,-0.3653,-0.3865,-0.3734,-0.4268,-0.4789,-0.4812,-0.5267,-0.5955,-0.6715,-0.6963,-0.727,0.0,-0.7831,-0.7777,-0.8054,-0.8194,-0.8506,-0.9128,-0.9073,-0.8846,-0.8523,-0.85,-0.8318,-0.7937,-0.6864,-0.6209,-0.6209,-0.5117,-0.4519,-0.4519,-0.4184,-0.3683,-0.307,-0.2458,-0.1846,-0.1288,-0.0729,-0.0561,-0.0673,-0.0224,0.0224,0.0783,0.1644,0.2305,0.2903,0.3403,0.4119,0.4999,0.5605,0.6372,0.7139,0.7359,0.799,0.8883,0.9406,0.9932,1.0506,1.1116,1.1326,1.1326,1.1326,1.1477,1.1678,1.1877,1.2304,1.2832,1.2967,1.3314,1.3621,1.3621,1.3621,1.3621,1.3621,1.3403,1.3392,1.3935,1.4006,1.4181,1.4687,1.5187,1.5445,1.5266,1.5567,1.5876,1.6151,1.638,1.6765,1.7475,1.7948,1.8461,1.9064,1.9101,1.9391,2.0059,2.0174,2.0681,2.1685,2.1749,2.1911,2.2324,2.2231,2.2184,2.2184,2.2184,2.2184,2.2184,2.2184,2.2184,-0.3172,0.0,0.0,-0.3429,-0.3609,-0.3781,-0.3917,-0.4316,-0.4754,-0.5069,-0.5555,-0.6174,-0.703,-0.7218,-0.745,-0.8091,-0.7924,-0.7799,-0.8034,-0.8349,-0.8738,-0.9356,-0.9619,-0.9527,-0.8825,-0.8825,-0.8608,-0.8143,-0.6912,-0.6209,-0.6209,-0.5117,-0.4408,-0.4239,-0.3849,-0.3236,-0.2458,-0.2014,-0.1511,-0.0898,-0.0561,-0.0336,-0.0168,0.0333,0.0992,0.1763,0.2202,0.2799,0.3577,0.3941,0.4673,0.5605,0.6209,0.6912,0.7557,0.7557,0.809,0.8876,0.9562,1.0087,1.0506,1.1116,1.1326,1.1326,1.1326,1.1578,1.1927,1.2026,1.2501,1.3016,1.316,1.3362,1.3621,1.3621,1.3621,1.3658,1.381,1.3537,1.3584,1.4446,1.444,1.4484,1.5163,1.5668,1.5964,1.5964,1.5964,1.6107,1.6479,1.6723,1.7131,1.7908,1.8383,1.8855,1.9324,1.9217,1.9391,2.0059,2.0128,2.0551,2.1499,2.1609,2.1903,2.2402,2.2278,2.2184,2.2184,2.2184,2.2184,2.2184,2.2184,2.2184,0.0,0.0,-0.3101,-0.3487,-0.3524,-0.366,-0.4539,-0.4583,-0.4709,-0.5744,-0.5836,-0.6082,-0.7288,-0.7235,-0.7262,-0.8055,-0.7924,-0.7719,-0.7726,-0.8401,-0.8911,-0.8926,-0.9539,-0.9725,0.0,-0.9093,-0.904,-0.8626,-0.7122,-0.6209,-0.6209,-0.5117,-0.4239,-0.3624,-0.3627,-0.3014,-0.1846,-0.179,-0.1511,-0.0898,-0.0898,-0.0617,-0.0168,0.0596,0.1438,0.2236,0.2762,0.3184,0.3614,0.4772,0.5605,0.6209,0.681,0.7771,0.8725,0.8725,0.8778,0.8928,1.0035,1.0403,1.0506,1.1116,1.1326,1.1326,1.1326,1.1578,1.1977,1.2372,1.2745,1.3064,1.3467,1.361,1.3621,1.3621,1.3621,1.3752,1.428,1.4362,1.4501,1.4971,1.5433,1.5764,1.5788,1.6151,1.6479,1.6479,1.6479,1.6466,1.6522,1.7256,1.7948,1.8422,1.8822,1.9362,2.0016,1.9478,1.9391,2.0059,2.0518,2.0808,2.0809,2.1825,2.2402,2.2417,2.2278,2.2184,2.2184,2.2184,2.2184,2.2184,2.2184,2.2184,0.0,0.0,-0.3029,-0.3155,-0.3129,-0.3265,-0.4012,-0.4144,-0.4403,-0.5567,-0.5947,-0.6319,-0.7026,-0.7349,-0.7531,-0.7815,-0.7785,-0.7865,-0.8297,-0.8592,-0.8941,-0.942,-0.9717,0.0,0.0,0.0,0.0,-0.8162,-0.6912,-0.6209,-0.6209,-0.5117,-0.4239,-0.3627,-0.3236,-0.2625,-0.179,-0.14,-0.0897,-0.028,0.0438,0.1312,0.2176,0.2318,0.289,0.3727,0.3753,0.4187,0.4927,0.5202,0.5882,0.6864,0.7439,0.8131,0.8883,0.9614,0.9873,0.9925,1.0241,1.0659,1.1015,1.1217,1.1477,1.1728,1.1728,1.2107,1.2638,1.2783,1.3122,1.342,1.3563,1.3621,1.3621,1.3621,1.3858,1.4186,1.4373,1.4651,1.5006,1.549,1.57,1.5876,1.6207,1.638,1.6522,1.6522,1.6778,1.6934,1.6934,1.7747,1.8305,1.8461,1.9262,1.9856,2.0074,1.9885,2.003,2.0654,2.0469,2.0688,2.157,2.1756,2.2095,2.2509,2.2324,2.2184,2.2184,2.2184,2.2184,2.2184,2.2184,2.2184,0.0,-0.2812,-0.2979,-0.3114,-0.3217,-0.3398,-0.3968,-0.4192,-0.4583,-0.5524,-0.6033,-0.6465,-0.6937,-0.7461,-0.7893,-0.7942,-0.7994,-0.8209,-0.8693,-0.8808,-0.9063,-0.9525,-0.9673,-0.9681,0.0,0.0,0.0,-0.8096,-0.6912,-0.61,-0.5882,-0.4783,-0.3904,-0.3292,-0.2681,-0.2012,-0.1175,-0.0784,-0.028,0.0336,0.1403,0.2255,0.2957,0.311,0.3589,0.4271,0.4274,0.4692,0.5423,0.564,0.6388,0.7419,0.7924,0.8664,0.9503,1.0138,1.0557,1.071,1.071,1.0964,1.1326,1.1477,1.1678,1.1927,1.2076,1.255,1.3016,1.3016,1.3266,1.3621,1.3621,1.3752,1.3905,1.3905,1.428,1.4697,1.4869,1.5142,1.549,1.5976,1.6064,1.6151,1.6436,1.6522,1.6565,1.6735,1.7144,1.7393,1.7393,1.8028,1.8638,1.9034,1.9685,2.0277,2.0741,2.0553,2.0683,2.1322,2.0988,2.1148,2.196,2.1973,2.2155,2.2601,2.2324,2.2184,2.2184,2.2184,2.2184,2.2184,2.2184,2.2297,-0.258,-0.2668,-0.2881,-0.3265,-0.3612,-0.3968,-0.4276,-0.4675,-0.5111,-0.561,-0.6039,-0.6465,0.0,0.0,-0.8223,-0.8354,-0.8572,-0.8714,-0.8785,-0.9048,-0.9232,0.0,0.0,0.0,0.0,0.0,0.0,-0.8224,-0.695,-0.5932,-0.5277,-0.4177,-0.3292,-0.2681,-0.2068,-0.1175,-0.0,0.0056,0.0392,0.1005,0.1828,0.2272,0.2323,0.3045,0.361,0.3994,0.4404,0.4773,0.5162,0.6213,0.7132,0.8017,0.848,0.9472,1.0608,1.0506,1.0812,1.1318,1.1318,1.1318,1.1427,1.1778,1.1927,1.2026,1.2421,1.2745,1.3016,1.3016,1.3314,1.3621,1.361,1.3999,1.443,1.4419,1.4789,1.5277,1.57,1.5832,1.5976,1.6423,1.6522,1.6522,1.6522,1.6522,1.665,1.7115,1.7584,1.7882,1.7882,1.8268,1.8967,2.0034,2.0175,2.0683,2.1902,2.1423,2.1336,2.2004,2.2019,2.2004,2.2033,2.239,2.2615,2.2615,2.237,2.2231,2.2231,2.2184,2.2184,2.2184,2.2184,2.2507,-0.2429,-0.2567,-0.2736,-0.2848,-0.3187,-0.3619,-0.3968,-0.432,-0.484,-0.5905,-0.6246,-0.655,0.0,0.0,0.0,-0.793,-0.8349,0.0,-0.8706,-0.9008,0.0,-0.9475,0.0,-0.9406,-0.8876,-0.8791,0.0,-0.6999,-0.647,-0.5764,-0.4663,-0.3953,-0.3125,-0.2068,-0.1453,-0.0783,-0.0,0.0896,0.1621,0.212,0.2572,0.3149,0.3853,0.4211,0.4605,0.5119,0.5456,0.5889,0.6373,0.6895,0.7704,0.8672,0.946,1.0121,1.0651,1.1065,1.1418,1.1728,1.1728,1.1728,1.1819,1.2224,1.251,1.2735,1.2832,1.3122,1.3467,1.3467,1.3515,1.3705,1.4093,1.428,1.4466,1.4834,1.5266,1.5656,1.5788,1.6064,1.638,1.6479,1.6522,1.6522,1.6522,1.6522,1.665,1.7115,1.7973,1.8659,1.8947,1.9418,1.9955,2.0698,2.122,2.1641,2.1975,2.1844,2.2019,2.2613,2.2251,2.2207,2.2627,2.274,2.2749,2.2749,2.2477,2.237,2.237,2.2231,2.2184,2.2184,2.2184,2.2507,-0.2276,-0.2424,-0.2618,-0.2669,-0.3116,-0.3576,-0.3865,-0.428,-0.4845,-0.5577,-0.591,0.0,0.0,0.0,0.0,0.0,0.0,0.0,-0.895,-0.8974,-0.9021,0.0,-0.9336,0.0,-0.8371,-0.8332,-0.7605,0.0,-0.5819,-0.5287,-0.4082,-0.3262,-0.2386,-0.1367,-0.0777,-0.0056,0.0929,0.1913,0.2549,0.2934,0.3227,0.3762,0.4477,0.473,0.5111,0.5584,0.5954,0.6413,0.6914,0.7309,0.8243,0.9478,0.9912,1.0529,1.1167,1.1628,1.1828,1.1977,1.2255,1.2393,1.2403,1.2647,1.2832,1.3016,1.3218,1.361,1.3952,1.3952,1.4082,1.4316,1.4651,1.4869,1.5085,1.5355,1.5756,1.6107,1.6107,1.6293,1.6522,1.6522,1.6693,1.682,1.682,1.6934,1.7214,1.7707,1.8508,1.9308,2.0002,2.0304,2.0741,2.1365,2.1772,2.2106,2.2381,2.241,2.2511,2.2873,2.2555,2.2526,2.2888,2.2841,2.2809,2.2809,2.2537,2.2417,2.2417,2.2278,2.2184,2.2184,2.2451,2.2915,-0.2126,-0.2278,-0.2509,-0.2629,-0.3207,-0.3719,-0.3887,-0.4412,-0.4941,-0.5072,0.0,0.0,-0.6289,-0.6999,-0.7722,-0.8427,0.0,-0.8756,-0.8952,-0.8773,-0.8591,-0.8544,-0.8789,-0.8495,-0.7377,-0.7419,-0.6855,-0.5163,-0.4927,-0.4435,-0.3395,-0.2282,-0.1305,-0.0422,0.0054,0.0979,0.2368,0.2897,0.3322,0.367,0.3914,0.4256,0.4802,0.5056,0.5437,0.5905,0.6289,0.6748,0.7203,0.7675,0.8808,1.0222,1.023,1.0886,1.1846,1.2147,1.2215,1.2255,1.2871,1.315,1.3246,1.3112,1.3112,1.3256,1.361,1.4093,1.4512,1.4512,1.4789,1.5108,1.5198,1.549,1.5832,1.5876,1.6194,1.6522,1.6522,1.6565,1.662,1.6696,1.7028,1.7308,1.7416,1.7651,1.7975,1.8534,1.9148,1.9905,2.1005,2.1133,2.138,2.2048,2.212,2.2338,2.2859,2.2888,2.2888,2.2888,2.2888,2.2888,2.2888,2.2826,2.2795,2.2795,2.2583,2.2477,2.2477,2.2324,2.2273,2.2372,2.2893,2.354,-0.2011,-0.2199,-0.2352,-0.2503,-0.3132,-0.3719,-0.3887,-0.4232,0.0,0.0,0.0,-0.5551,-0.6677,-0.7218,0.0,-0.7355,0.0,0.0,0.0,0.0,-0.7957,0.0,0.0,0.0,0.0,0.0,0.0,0.0,-0.3456,-0.2671,-0.2599,-0.1661,-0.0306,0.1523,0.1686,0.2248,0.3251,0.3355,0.3792,0.4557,0.4526,0.4903,0.5682,0.593,0.6325,0.6784,0.7252,0.7675,0.8103,0.8602,0.9338,1.0267,1.1016,1.1756,1.251,1.2982,1.3314,1.3494,1.3627,1.405,1.4433,1.3742,1.38,1.4176,1.4233,1.4605,1.4971,1.4971,1.5062,1.5187,1.5579,1.5744,1.5876,1.6293,1.6423,1.6522,1.6522,1.682,1.7245,1.7731,1.7739,1.7868,1.8437,1.8112,1.8126,1.9109,1.9809,2.0614,2.17,2.1815,2.2062,2.2671,2.2728,2.2786,2.2888,2.2888,2.2888,2.2888,2.2888,2.2888,2.2888,2.2902,2.2902,2.2902,2.2781,2.2749,2.2749,2.2583,2.2733,2.3087,2.3201,2.3815,-0.2053,-0.2162,-0.2245,-0.2457,-0.2939,-0.3387,-0.3503,0.0,0.0,0.0,0.0,-0.5508,-0.6761,-0.7141,0.0,0.0,0.0,0.0,0.0,0.0,0.0,0.0,0.0,0.0,0.0,0.0,-0.6044,-0.4519,-0.27,-0.1762,-0.1905,-0.0295,0.1082,0.2062,0.2566,0.3235,0.4041,0.409,0.4471,0.5259,0.52,0.5509,0.6129,0.6514,0.691,0.7377,0.7807,0.8267,0.8692,0.9119,0.9826,1.0637,1.1548,1.2196,1.2675,1.3424,1.3862,1.4086,1.4283,1.4709,1.5073,1.4663,1.4674,1.4869,1.4869,1.5142,1.5445,1.5445,1.5623,1.5901,1.6107,1.6151,1.6194,1.6436,1.6748,1.7125,1.767,1.7722,1.7899,1.8745,1.8767,1.8865,1.953,1.9544,1.9652,2.0155,2.0797,2.1427,2.1903,2.228,2.2555,2.2859,2.2888,2.2888,2.2888,2.2888,2.3023,2.3275,2.326,2.326,2.326,2.3614,2.3791,2.3821,2.3821,2.3902,2.4153,2.3793,2.3664,2.3815,2.4127,2.4558,-0.2027,-0.2089,-0.2165,-0.2374,-0.2713,-0.303,-0.3148,-0.3482,0.0,0.0,0.0,-0.5379,-0.6634,-0.6937,-0.7306,0.0,0.0,0.0,0.0,0.0,0.0,0.0,0.0,0.0,0.0,0.0,0.0,-0.3571,-0.1615,-0.0561,-0.0701,0.1122,0.2282,0.2452,0.3237,0.4003,0.4659,0.4792,0.5207,0.599,0.599,0.6246,0.6755,0.7126,0.7543,0.8013,0.839,0.8846,0.9297,0.9707,1.0388,1.1266,1.2027,1.2625,1.3197,1.3989,1.4471,1.4732,1.5073,1.54,1.57,1.57,1.5567,1.5478,1.5478,1.57,1.5976,1.5976,1.625,1.6522,1.6522,1.6565,1.6607,1.6637,1.7079,1.7784,1.8719,1.8627,1.8639,1.9836,1.9866,1.9948,2.0614,2.0896,2.1046,2.1191,2.1656,2.2076,2.2294,2.2746,2.3112,2.3201,2.3112,2.3068,2.3068,2.3142,2.3363,2.3739,2.3902,2.3978,2.3978,2.4641,2.5002,2.5062,2.4955,2.5062,2.5446,2.4834,2.459,2.4582,2.5066,2.5261,-0.1756,-0.2089,-0.2112,-0.2131,-0.2572,-0.3004,-0.3017,0.0,0.0,0.0,-0.4528,-0.5005,-0.6161,-0.6719,-0.7027,-0.7145,0.0,0.0,0.0,0.0,0.0,0.0,0.0,0.0,0.0,-0.4684,-0.3108,-0.1166,0.067,0.1744,0.1751,0.2196,0.2781,0.3516,0.4043,0.4521,0.4946,0.5382,0.605,0.6868,0.6868,0.7335,0.8103,0.8152,0.8439,0.8895,0.931,0.9746,1.0196,1.0611,1.1302,1.2121,1.2508,1.3507,1.4712,1.5067,1.5532,1.6013,1.6057,1.6306,1.6582,1.6582,1.6343,1.6027,1.6027,1.6281,1.6633,1.6633,1.6633,1.6675,1.6675,1.6761,1.6905,1.716,1.7488,1.7963,1.8669,1.9045,1.9642,2.0906,2.0984,2.1077,2.1743,2.1394,2.1206,2.1815,2.196,2.2366,2.3316,2.3522,2.3696,2.4135,2.3782,2.3566,2.3566,2.3925,2.4177,2.4219,2.4814,2.5136,2.5136,2.5841,2.624,2.624,2.5757,2.5523,2.5555,2.5062,2.5005,2.548,2.5537,2.5712,0.0932,-0.06,-0.1579,-0.2016,-0.2356,-0.2685,-0.2887,0.0,0.0,-0.4248,-0.4852,-0.5679,-0.6917,-0.7523,-0.7979,-0.8488,-0.8513,-0.8357,0.0,0.0,0.0,0.0,0.0,0.0,0.0,0.0,-0.1191,0.1775,0.3463,0.4343,0.4314,0.4065,0.4073,0.4548,0.5196,0.5882,0.6622,0.679,0.721,0.7799,0.7799,0.8129,0.8756,0.9295,0.9645,0.9746,1.0508,1.0833,1.0926,1.1488,1.213,1.2858,1.3679,1.4511,1.5252,1.5691,1.612,1.6522,1.6522,1.6735,1.6976,1.6976,1.6879,1.674,1.6667,1.6892,1.7115,1.6876,1.7186,1.7489,1.7227,1.7686,1.8299,1.8706,1.9157,1.9768,2.0654,2.0678,2.0838,2.2042,2.1888,2.1801,2.2454,2.2338,2.2207,2.2482,2.2761,2.3111,2.3565,2.3867,2.4094,2.4261,2.4135,2.4036,2.4036,2.4572,2.5014,2.5305,2.5989,2.6365,2.6365,2.7024,2.74,2.74,2.7288,2.7394,2.769,2.6834,2.6488,2.6637,2.6292,2.6136,0.1925,0.0366,-0.0547,-0.1878,-0.2176,-0.2297,0.0,0.0,-0.3742,-0.428,-0.5266,-0.6319,-0.7301,-0.7863,-0.8447,-0.9262,-0.8958,-0.8692,-0.8918,0.0,0.0,0.0,0.0,-0.5487,0.0,-0.1137,0.1667,0.4539,0.5598,0.6093,0.6108,0.595,0.5786,0.5689,0.6343,0.7113,0.7867,0.7882,0.8307,0.9103,0.8989,0.9286,1.0017,1.0679,1.094,1.0905,1.1783,1.207,1.1993,1.2659,1.3279,1.3937,1.4659,1.5303,1.5819,1.6123,1.6596,1.7047,1.7047,1.7256,1.7598,1.7598,1.7598,1.7557,1.7475,1.7516,1.7516,1.7352,1.7733,1.808,1.7868,1.8575,1.9418,1.974,2.0368,2.1117,2.2005,2.1778,2.1739,2.2727,2.254,2.2454,2.3024,2.3098,2.3142,2.3275,2.3625,2.3852,2.3964,2.4271,2.4611,2.4967,2.5023,2.4942,2.4803,2.5534,2.6136,2.6484,2.7195,2.7578,2.7578,2.8204,2.8586,2.863,2.8591,2.8732,2.9074,2.8192,2.77,2.76,2.7195,2.6797,0.0186,0.0333,0.1107,-0.1683,-0.2043,-0.1839,0.0,-0.3309,-0.4172,-0.4363,-0.5511,-0.6579,-0.6937,-0.7412,-0.7987,-0.8763,-0.8218,-0.7987,-0.8804,0.0,0.0,0.0,0.0,-0.4358,-0.1889,0.257,0.5788,0.6868,0.6719,0.6668,0.6879,0.7747,0.79,0.7092,0.7453,0.7867,0.8286,0.8292,0.9202,1.0962,1.0571,1.1094,1.2362,1.2362,1.2362,1.2404,1.3137,1.3465,1.3547,1.4344,1.494,1.536,1.5156,1.5731,1.6646,1.6464,1.697,1.7787,1.7787,1.8108,1.85,1.85,1.85,1.85,1.8461,1.8108,1.7787,1.8187,1.8305,1.8344,1.8461,1.9202,1.9886,1.9886,2.0538,2.1372,2.2044,2.209,2.2178,2.2772,2.2888,2.3053,2.3508,2.3595,2.3739,2.4219,2.4302,2.4451,2.4823,2.4902,2.5346,2.6564,2.6685,2.6494,2.6027,2.7024,2.7705,2.7688,2.8369,2.8773,2.8773,2.947,2.9902,2.9902,2.9364,2.9074,2.9074,2.8543,2.8288,2.8288,2.8288,2.7947,0.6854,0.5448,0.403,-0.0418,0.0075,0.0725,-0.2843,-0.4055,-0.4596,-0.5244,-0.6385,-0.7419,-0.7833,-0.8456,-0.9119,-0.9746,-0.9549,0.0,0.0,0.0,0.0,0.0,0.0,0.061,0.0,0.53,0.723,0.7568,0.8393,0.8947,0.9226,1.0624,1.0519,0.8529,0.9228,0.9912,1.0554,1.0916,1.1402,1.1964,1.2079,1.2362,1.2848,1.3651,1.388,1.3593,1.4422,1.47,1.4631,1.5027,1.5542,1.6136,1.6465,1.6764,1.7131,1.7638,1.7838,1.7828,1.8187,1.8383,1.85,1.85,1.85,1.8623,1.9376,1.9165,1.8831,1.9715,2.0059,2.0313,2.0607,2.1266,2.178,2.1698,2.2241,2.2816,2.2936,2.3139,2.3355,2.355,2.3794,2.3991,2.4116,2.4105,2.4135,2.4261,2.4533,2.4759,2.4863,2.5639,2.6253,2.6668,2.7559,2.7874,2.7235,2.7946,2.845,2.845,2.913,2.9562,2.9562,2.9789,2.9918,2.9918,2.971,2.9665,2.9665,2.912,2.8638,2.8288,2.8192,2.803,0.0,0.8277,0.6544,0.2806,0.1119,-0.0166,-0.2203,-0.4402,-0.6174,-0.6622,-0.7207,-0.7847,-0.8592,-0.9135,-0.9841,-1.1031,-1.0493,0.0,0.0,0.0,0.0,0.0,0.0,0.0,0.0,0.7518,0.893,0.9387,1.0399,1.1235,1.1833,1.2879,1.2793,1.129,1.1591,1.1941,1.24,1.2652,1.3017,1.3552,1.3583,1.3811,1.424,1.4993,1.5169,1.4933,1.5583,1.5904,0.0,1.6198,1.665,1.7235,1.7598,1.7733,1.776,1.8305,1.8422,1.8344,1.863,1.8822,1.8959,1.8959,1.9132,1.9489,2.0416,2.0421,2.0224,2.0884,2.1311,2.1595,2.1862,2.2543,2.3127,2.3031,2.3492,2.3937,2.3837,2.4006,2.4173,2.4173,2.4323,2.4527,2.4648,2.4639,2.4614,2.4751,2.4974,2.5169,2.5169,2.606,2.6798,2.7057,2.8109,2.8709,2.8547,2.8935,2.9237,2.9237,2.9659,2.9918,2.9918,2.9918,2.9918,2.9918,2.9918,2.9918,2.9918,2.956,2.9227,2.8889,2.8622,2.848,0.0,0.9179,0.8674,0.7191,0.1643,-0.293,-0.091,-0.4429,0.0,-0.8404,-0.8099,-0.8193,-0.9379,-0.9626,-1.0267,-1.2236,-1.0997,0.0,0.0,0.0,0.0,0.0,0.0,0.0,0.8087,0.9544,1.0846,1.1953,1.2587,1.3368,1.4511,1.4636,1.4751,1.5019,1.4477,1.4078,1.3871,1.3715,1.4269,1.5525,1.5156,1.5435,1.6275,1.6362,1.6362,1.6349,1.668,1.7034,1.7394,1.7733,1.8108,1.85,1.8539,1.8539,1.85,1.8539,1.8822,1.9101,1.9139,1.9398,1.9726,1.9771,2.0317,2.1038,2.1693,2.1834,2.1794,2.1794,2.2147,2.2492,2.2492,2.3224,2.3977,2.3977,2.4335,2.4712,2.4712,2.4688,2.4664,2.4664,2.4704,2.4799,2.5091,2.513,2.5262,2.5562,2.5616,2.5616,2.5616,2.6296,2.7008,2.764,2.8401,2.9146,2.9853,2.9918,2.9918,2.9918,2.9918,2.9918,2.9918,2.9918,2.9918,2.9918,2.9918,2.9918,2.9918,2.9918,2.9918,2.9902,2.938,2.9182,1.0737,0.0,1.0573,0.7794,0.5918,0.3218,0.0,0.0,0.0,0.0,0.0,0.0,-1.1411,-1.1673,-1.1686,-1.118,0.0,0.0,0.0,0.0,0.0,0.0,1.3679,1.3959,1.3552,1.2627,1.2473,1.3487,1.3605,1.4446,1.6285,1.6728,1.6992,1.7104,1.76,1.7122,1.5547,1.5674,1.609,1.6705,1.6718,1.6866,1.7162,1.772,1.7801,1.7518,1.7921,1.8133,1.8212,1.8305,1.8383,1.8539,1.8822,1.8784,1.8577,1.9184,1.9273,1.9139,1.9472,1.9617,1.9837,2.066,2.192,2.3155,2.3327,2.3181,2.2906,2.2906,2.3576,2.4296,2.4296,2.4461,2.465,2.465,2.4776,2.4863,2.4863,2.5082,2.5275,2.5275,2.5497,2.5701,2.5775,2.5663,2.5589,2.5663,2.5621,2.5616,2.5616,2.6701,2.7543,2.7688,2.8854,2.9724,2.9902,2.9918,2.9918,2.9918,2.9918,2.9918,2.9918,2.9918,2.9918,2.9918,2.9918,2.9918,2.9918,2.9918,2.9918,2.9918,2.977,2.971,1.057,1.0798,1.094,1.0478,0.7906,0.4607,0.0,0.0,0.0,0.0,0.0,0.0,0.0,0.0,0.0,0.0,0.0,0.0,0.0,0.0,0.0,0.0,1.7455,1.7418,1.7034,1.5827,1.5338,1.6013,1.6098,1.6695,1.8106,1.8676,1.8962,1.9006,1.9461,1.8877,1.7155,1.7384,1.7612,1.784,1.7867,1.7947,1.7999,1.8369,1.8447,1.8249,1.8598,1.8779,1.8822,1.9103,1.9236,1.9303,1.9732,1.9752,1.9594,2.005,2.0065,1.9909,2.0135,2.0419,2.0905,2.2098,2.3148,2.3977,2.4293,2.4334,2.4279,2.41,2.4602,2.5176,2.5176,2.5346,2.5513,2.5513,2.5513,2.5513,2.5513,2.5663,2.5811,2.5811,2.599,2.6063,2.6026,2.5901,2.5828,2.5791,2.577,2.588,2.6205,2.7136,2.7932,2.8273,2.9253,2.9918,2.9918,2.9918,2.9918,2.9918,2.9918,2.9918,2.9918,2.9918,2.9918,2.9918,2.9918,2.9918,2.9918,2.9918,2.9918,2.9918,2.9918,2.9918,1.0006,1.0043,1.0669,1.284,0.8733,0.452,0.0,0.0,0.0,0.0,0.0,0.0,0.0,0.0,0.0,0.0,0.0,0.0,0.0,0.0,0.0,0.0,1.9326,1.9243,1.9396,1.8784,1.8439,1.854,1.8625,1.9026,1.9847,2.0162,2.0447,2.0668,2.0652,2.0051,1.8835,1.8887,1.8939,1.8999,1.8916,1.8954,1.9051,1.8991,1.8968,1.8968,1.928,1.9368,1.9406,2.0008,2.0249,2.0326,2.0679,2.0794,2.0794,2.0794,2.0794,2.081,2.0905,2.1542,2.2484,2.366,2.4143,2.4372,2.4923,2.5329,2.5556,2.5176,2.5329,2.5594,2.5594,2.5901,2.622,2.622,2.622,2.622,2.622,2.622,2.622,2.622,2.622,2.6168,2.6063,2.6026,2.6023,2.6065,2.6045,2.6323,2.706,2.7702,2.8306,2.8925,2.954,2.9902,2.9918,2.9918,2.9918,2.9918,2.9918,2.9918,2.9918,2.9918,2.9918,2.9918,2.9918,2.9918,2.9918,2.9918,2.9918,2.9918,2.9918,2.9918,1.0183,1.0726,1.1144,1.0343,0.9552,0.7955,0.0,0.0,0.0,0.0,0.0,0.0,0.0,0.0,0.0,0.0,0.0,0.0,0.0,0.0,2.2577,2.2904,2.2817,2.2328,2.1287,2.0637,2.0003,1.9289,1.8752,1.9225,2.102,2.0396,2.0582,2.1869,2.1864,2.1526,2.0862,2.0218,2.0047,2.0403,2.0218,2.0286,2.0649,2.0649,2.0649,2.0649,2.0682,2.0698,2.0614,2.0747,2.0763,2.0712,2.0794,2.0794,2.0794,2.0794,2.0794,2.0873,2.1426,2.2767,2.4223,2.4434,2.5102,2.5859,2.5974,2.6043,2.6079,2.6007,2.6043,2.6079,2.6079,2.6132,2.622,2.622,2.622,2.622,2.622,2.622,2.622,2.622,2.622,2.6168,2.6168,2.6079,2.6188,2.6813,2.689,2.7077,2.7853,2.8518,2.8927,2.8974,2.9567,2.9946,2.9902,2.9918,2.9918,2.9918,2.9918,2.9918,2.9918,2.9918,2.9918,2.9918,2.9918,2.9918,2.9918,2.9918,2.9918,2.9918,2.9918,2.9918,0.9971,1.0342,1.0665,1.0425,1.0886,0.0,0.0,0.0,0.0,0.0,0.0,0.0,0.0,0.0,0.0,0.0,0.0,0.0,1.8066,2.1374,2.3816,2.4531,2.4607,2.4285,2.3549,2.2393,2.1465,2.0941,1.999,1.999,2.1273,2.1173,2.1583,2.2643,2.266,2.2538,2.2286,2.1922,2.1497,2.1007,2.0846,2.0927,2.1166,2.1086,2.1039,2.1086,2.126,2.1214,2.0975,2.1354,2.137,2.1135,2.1308,2.1386,2.1404,2.1794,2.2183,2.2622,2.3336,2.4174,2.4952,2.5346,2.5779,2.622,2.622,2.622,2.622,2.622,2.622,2.622,2.622,2.622,2.622,2.622,2.622,2.622,2.622,2.622,2.622,2.622,2.6518,2.6783,2.6783,2.7061,2.7403,2.7734,2.78,2.8026,2.8695,2.9218,2.9582,2.9723,3.027,3.041,2.9989,3.0215,3.0258,2.9902,2.9918,2.9918,2.9918,2.9918,3.0053,3.0425,3.0069,3.0097,3.0441,3.0097,2.9918,2.9918,2.9918,2.9918,0.9962,1.012,1.0388,0.0,0.0,0.0,0.0,0.0,0.0,0.0,0.0,0.0,0.0,0.0,0.0,0.0,0.0,1.8948,2.2316,2.3364,2.4163,2.5188,2.5429,2.5434,2.5197,2.3956,2.2999,2.2569,2.1459,2.1083,2.1698,2.1962,2.2461,2.3264,2.3335,2.3265,2.317,2.3188,2.2704,2.1731,2.1609,2.1639,2.1731,2.1535,2.1475,2.1505,2.1721,2.1661,2.1413,2.1924,2.1924,2.1675,2.2095,2.2278,2.2408,2.3034,2.3731,2.4463,2.503,2.5363,2.5664,2.6145,2.6364,2.6434,2.6434,2.6434,2.6434,2.6434,2.6434,2.6399,2.6239,2.622,2.6203,2.631,2.631,2.631,2.631,2.631,2.6378,2.6562,2.6972,2.7404,2.7757,2.8202,2.8598,2.8879,2.8913,2.9164,2.9828,3.0162,3.0398,3.0633,3.0965,3.0885,3.0258,3.0601,3.0642,3.0146,3.0103,3.0076,2.9918,2.9946,3.0206,3.0668,3.015,3.0134,3.0668,3.0134,2.9918,2.9918,2.9918,2.9918,1.0653,1.0785,0.0,0.0,0.0,0.0,0.0,0.0,0.0,0.0,0.0,0.0,0.0,0.0,0.0,0.0,0.0,2.0008,2.3239,2.4234,2.4714,2.5007,2.5362,2.5547,2.5381,2.5268,2.4722,2.3582,2.2723,2.2491,2.3031,2.2388,2.2604,2.3875,2.4003,2.3803,2.3298,2.3405,2.3283,2.2975,2.295,2.295,2.295,2.2703,2.2588,2.2561,2.2349,2.2332,2.25,2.2544,2.2456,2.2381,2.3039,2.3499,2.3884,2.4264,2.4831,2.549,2.5558,2.6226,2.7017,2.6741,2.6858,2.7117,2.7117,2.7117,2.7117,2.7117,2.7117,2.6989,2.6364,2.622,2.6274,2.6607,2.6657,2.6657,2.6657,2.6657,2.686,2.7639,2.7506,2.7741,2.9094,2.9073,2.9202,3.0279,3.0454,3.0693,3.1431,3.1571,3.1534,3.1422,3.1338,3.114,3.0764,3.0965,3.1004,3.0764,3.0723,3.0493,2.9902,3.0113,3.0189,2.9983,2.9935,2.9935,2.9983,2.9935,2.9918,2.9918,2.9918,2.9918,1.0366,1.0161,0.0,0.0,0.0,0.0,0.0,0.0,0.0,0.0,0.0,0.0,0.0,0.0,0.0,0.0,2.0194,2.139,2.3451,2.4153,2.462,2.5067,2.5253,2.5369,2.5401,2.4948,2.4428,2.3879,2.3037,2.2785,2.3418,2.3086,2.33,2.4227,2.4265,2.4192,2.3986,2.3903,2.3819,2.3717,2.3289,2.3091,2.3109,2.2985,2.2935,2.2935,2.2833,2.2833,2.2892,2.2892,2.3128,2.3501,2.4199,2.4832,2.5367,2.5476,2.5956,2.6593,2.6593,2.6877,2.7181,2.7053,2.7085,2.7213,2.7213,2.7213,2.7213,2.7213,2.7213,2.7149,2.6908,2.6808,2.6858,2.6989,2.7021,2.7158,2.7653,2.7756,2.7979,2.8733,2.9161,2.9535,3.0093,3.0434,3.081,3.1212,3.1282,3.1386,3.1642,3.1913,3.1967,3.166,3.1493,3.1511,3.1714,3.1528,3.1376,3.13,3.0988,3.0683,3.0452,3.0559,3.0692,3.0828,3.0385,3.0272,3.0522,3.0085,2.9918,2.9918,2.9918,2.9918,1.0382,1.0186,0.0,0.0,0.0,0.0,0.0,0.0,0.0,0.0,0.0,0.0,0.0,0.0,0.0,0.0,2.1142,2.2092,2.353,2.4045,2.4473,2.5031,2.5205,2.5308,2.5429,2.4929,2.4558,2.4447,2.3602,2.3375,2.4068,2.3744,2.3733,2.4207,2.4393,2.4362,2.4102,2.4154,2.4192,2.4192,2.372,2.3432,2.333,2.3277,2.323,2.323,2.3157,2.314,2.3247,2.3477,2.4123,2.4998,2.5362,2.5947,2.6566,2.6613,2.6931,2.7369,2.7369,2.743,2.7491,2.74,2.743,2.7539,2.7539,2.7539,2.7539,2.7539,2.7539,2.7539,2.7539,2.7369,2.7213,2.7338,2.756,2.7903,2.8424,2.8737,2.9119,2.9881,3.0352,3.075,3.1237,3.162,3.1932,3.2039,3.2074,3.2074,3.2074,3.23,3.2352,3.202,3.195,3.2056,3.2283,3.2056,3.1877,3.1768,3.1432,3.1083,3.0788,3.0885,3.1039,3.1205,3.0725,3.0599,3.0866,3.0418,3.0146,3.0017,3.0017,2.9973,1.0862,1.1093,0.0,0.0,0.0,0.0,0.0,0.0,0.0,0.0,0.0,0.0,0.0,0.0,0.0,2.0379,2.1146,2.1973,2.357,2.4026,2.4375,2.4855,2.5196,2.5421,2.5488,2.5505,2.5461,2.5415,2.4606,2.4427,2.5165,2.432,2.3816,2.3816,2.4389,2.4294,2.3435,2.4064,2.4407,2.4407,2.4407,2.4192,2.3795,2.3598,2.3504,2.3504,2.3212,2.3253,2.3557,2.4325,2.5483,2.6783,2.6518,2.6807,2.7348,2.7683,2.776,2.7701,2.7701,2.7922,2.8154,2.7818,2.7922,2.8182,2.8182,2.8182,2.8182,2.8182,2.8182,2.8182,2.82,2.7736,2.7307,2.7642,2.8328,2.889,2.8908,2.9505,3.0261,3.1052,3.0906,3.1116,3.2645,3.2573,3.242,3.2852,3.2916,3.2916,3.2916,3.2916,3.2802,3.2621,3.277,3.2737,3.2352,3.2506,3.2472,3.2108,3.2108,3.1711,3.0845,3.1123,3.1123,3.0788,3.0788,3.0788,3.0804,3.0804,3.0642,3.0309,3.0293,3.0156,1.0255,0.0,0.0,0.0,0.0,0.0,0.0,0.0,0.0,0.0,0.0,0.0,0.0,0.0,0.0,2.0442,2.1417,2.2409,2.3441,2.3987,2.4431,2.4855,2.5113,2.5318,2.5488,2.5503,2.5514,2.5535,2.5173,2.506,2.5329,2.4985,2.4763,2.4732,2.4886,2.4839,2.453,2.4591,2.461,2.461,2.4476,2.4265,2.4019,2.3959,2.3858,2.371,2.3624,2.397,2.4667,2.5997,2.6844,2.7263,2.7717,2.7996,2.8138,2.8201,2.8174,2.8119,2.8119,2.8164,2.8182,2.8081,2.8126,2.8182,2.8182,2.8182,2.8182,2.8182,2.8182,2.8352,2.8905,2.8887,2.8753,2.8887,2.9094,2.9556,3.064,3.1049,3.144,3.224,3.2317,3.2355,3.283,3.2802,3.277,3.2884,3.2916,3.2916,3.2916,3.2916,3.2884,3.282,3.2866,3.2852,3.2737,3.2639,3.2573,3.2472,3.2249,3.1929,3.1504,3.1596,3.1504,3.1179,3.1123,3.1044,3.0804,3.0804,3.1031,3.1466,3.0933,3.1191,0.0,0.0,0.0,0.0,0.0,0.0,0.0,0.0,0.0,0.0,0.0,0.0,0.0,1.8826,0.0,2.0702,2.1569,2.2496,2.3482,2.3947,2.4348,2.4842,2.5046,2.5253,2.5488,2.5503,2.5547,2.5622,2.5471,2.5395,2.5434,2.5312,2.507,2.4711,2.4992,2.4934,2.4531,2.4742,2.4842,2.4817,2.4689,2.4526,2.4338,2.4266,2.4155,2.4058,2.4288,2.5093,2.6274,2.7095,2.7647,2.8069,2.8413,2.8518,2.851,2.8458,2.8406,2.8327,2.83,2.8273,2.8237,2.8209,2.8182,2.8182,2.8182,2.8182,2.8182,2.8182,2.8182,2.8378,2.9191,2.9405,2.9476,2.9779,3.0083,3.0564,3.1492,3.1938,3.2313,3.2827,3.2916,3.2916,3.2916,3.2916,3.2916,3.2916,3.2916,3.2916,3.2916,3.2916,3.2916,3.2916,3.2916,3.2916,3.2916,3.277,3.2672,3.2606,3.2404,3.2161,3.1929,3.1837,3.1709,3.1504,3.1504,3.1526,3.1642,3.1642,3.1968,3.2613,3.2158,3.2328,0.0,0.0,0.0,0.0,0.0,0.0,0.0,0.0,0.0,0.0,0.0,0.0,1.8238,1.8531,1.9177,2.1083,2.174,2.2371,2.361,2.3888,2.4227,2.4814,2.5,2.5206,2.5454,2.5483,2.5566,2.5681,2.5586,2.5511,2.5511,2.5395,2.4983,2.4231,2.487,2.4796,2.3942,2.4712,2.5063,2.5018,2.501,2.4922,2.4738,2.4526,2.4444,2.4557,2.5242,2.6517,2.8067,2.7712,2.8158,2.9003,2.8743,2.8619,2.8569,2.8569,2.8518,2.8432,2.8388,2.8362,2.8309,2.8246,2.8237,2.8237,2.8209,2.8182,2.8227,2.8298,2.8316,2.853,2.9415,2.9647,2.9797,3.0547,3.1225,3.1706,3.1778,3.2367,3.2916,3.2916,3.2916,3.2916,3.2916,3.2916,3.2916,3.2916,3.2916,3.2916,3.2916,3.2916,3.2916,3.2916,3.2916,3.2916,3.2916,3.2916,3.2838,3.2727,3.2712,3.2613,3.2388,3.2015,3.1871,3.1903,3.1903,3.2265,3.3007,3.3007,3.3287,3.3741,3.3673,3.3524,0.0,0.0,0.0,0.0,0.0,0.0,0.0,0.0,0.0,0.0,0.0,0.0,1.8788,1.9621,2.055,2.1413,2.201,2.266,2.3455,2.3828,2.4173,2.467,2.4949,2.5156,2.5325,2.544,2.5551,2.5696,2.562,2.5574,2.5577,2.5495,2.5335,2.5051,2.5206,2.5158,2.4892,2.5034,2.5118,2.5157,2.5038,2.5004,2.5006,2.4749,2.4933,2.5503,2.6896,2.7733,2.8124,2.8672,2.904,2.923,2.9166,2.9144,2.9123,2.9123,2.8948,2.8737,2.8925,2.8814,2.8597,2.854,2.8515,2.8464,2.8273,2.8182,2.8362,2.9143,2.9259,2.9515,3.1114,3.1356,3.1403,3.2188,3.2028,3.1867,3.2491,3.2791,3.2916,3.2916,3.2916,3.2916,3.2916,3.2916,3.2916,3.2916,3.2916,3.2916,3.2916,3.2916,3.2916,3.2916,3.2916,3.2916,3.2916,3.2916,3.3152,3.3728,3.3646,3.3775,3.4341,3.2861,3.2243,3.2662,3.2662,3.3041,3.3835,3.3835,3.4174,3.484,3.4272,3.4576,0.0,0.0,0.0,0.0,0.0,0.0,0.0,0.0,0.0,0.0,0.0,1.8369,1.9126,1.9954,2.0732,2.1609,2.2169,2.2756,2.354,2.3803,2.4118,2.4731,2.4929,2.5102,2.5367,2.5457,2.5563,2.5685,2.5679,2.5648,2.5643,2.5543,2.5476,2.5404,2.5404,2.535,2.5254,2.5214,2.5212,2.5192,2.5141,2.5304,2.5672,2.5499,2.6045,2.7184,2.7922,2.8521,2.897,2.9209,2.9355,2.9416,2.9334,2.9293,2.9293,2.9293,2.9191,2.9042,2.9148,2.9082,2.8929,2.886,2.8837,2.8887,2.9043,2.9119,2.9282,3.0176,3.0333,3.0586,3.191,3.2133,3.2245,3.3057,3.275,3.2384,3.2827,3.2916,3.2916,3.2916,3.2916,3.2916,3.2916,3.2916,3.2916,3.2916,3.2916,3.2916,3.2916,3.2916,3.2916,3.2916,3.2916,3.3045,3.3437,3.3473,3.3794,3.4597,3.4513,3.464,3.4978,3.4023,3.3508,3.3609,3.3511,3.3852,3.4628,3.4628,3.5007,3.5714,3.5318,3.5559,0.0,0.0,0.0,0.0,0.0,0.0,0.0,0.0,0.0,0.0,1.7419,1.812,1.9325,1.9904,2.0538,2.1635,2.2198,2.2782,2.3628,2.3774,2.406,2.4771,2.4888,2.5034,2.5408,2.5492,2.5552,2.5664,2.5683,2.5696,2.569,2.5579,2.5529,2.5492,2.5511,2.5448,2.5339,2.5302,2.5274,2.5253,2.5378,2.5841,2.6537,2.6635,2.7399,2.8695,2.868,2.913,2.9872,2.9551,2.9513,2.9644,2.9474,2.9415,2.9415,2.9415,2.9395,2.9373,2.9502,2.9518,2.9514,2.9582,2.9598,2.9706,3.0171,3.0325,3.0467,3.1236,3.1422,3.1597,3.2437,3.2611,3.2766,3.3441,3.3298,3.3011,3.2961,3.293,3.293,3.2916,3.2916,3.2916,3.2916,3.2916,3.2916,3.2916,3.2916,3.2916,3.2916,3.2916,3.2916,3.2916,3.2916,3.3223,3.4044,3.4115,3.4472,3.5364,3.5418,3.542,3.5457,3.5438,3.524,3.4903,3.4532,3.4725,3.5486,3.5428,3.5697,3.6301,3.6301,3.6301,0.0,0.0,0.0,0.0,0.0,0.0,0.0,0.0,0.0,0.0,1.8303,1.8288,1.92,2.0004,2.0764,2.1428,2.2084,2.273,2.3455,2.3692,2.404,2.4657,2.4818,2.4993,2.5226,2.5394,2.5532,2.5605,2.5672,2.5703,2.5693,2.5678,2.5625,2.5492,2.5511,2.5484,2.5476,2.5367,2.5339,2.5459,2.6101,2.6792,2.7546,2.8229,2.8608,2.8733,2.9418,2.9777,2.9888,2.9839,2.9839,2.9855,2.9839,2.9822,2.9822,2.9822,2.9698,2.9683,3.06,3.0809,3.0789,3.1403,3.1607,3.1544,3.1297,3.1238,3.1403,3.2249,3.236,3.2456,3.3448,3.3561,3.3459,3.3569,3.3549,3.3444,3.322,3.316,3.3099,3.293,3.2916,3.2916,3.2916,3.2916,3.2916,3.2916,3.2916,3.2916,3.2916,3.2916,3.2916,3.2916,3.2916,3.3223,3.4044,3.4115,3.4722,3.6149,3.6238,3.6542,3.7201,3.7108,3.6958,3.6902,3.585,3.5705,3.6504,3.6264,3.6197,3.6301,3.6301,3.6301,0.0,0.0,0.0,0.0,0.0,0.0,0.0,0.0,0.0,1.8976,1.9443,1.9814,2.0354,2.0767,2.1228,2.1803,2.2422,2.3032,2.3588,2.384,2.4192,2.4746,2.4861,2.5005,2.5292,2.5427,2.5537,2.5584,2.5661,2.5696,2.5703,2.5709,2.5664,2.5556,2.5529,2.5511,2.5511,2.544,2.544,2.5511,2.6737,2.7507,2.7849,2.9117,2.9645,2.9608,2.9801,2.9937,3.0019,2.9921,2.9888,2.9888,2.9888,2.9888,2.9945,3.0454,3.0574,3.0636,3.1538,3.1804,3.1788,3.2128,3.2204,3.2279,3.2508,3.2574,3.2739,3.3441,3.3586,3.3611,3.3981,3.3998,3.3947,3.3947,3.3947,3.3921,3.3797,3.3578,3.3386,3.3298,3.3178,3.3086,3.3086,3.2961,3.2916,3.2916,3.2916,3.2916,3.2916,3.2916,3.2916,3.2916,3.2916,3.3384,3.4615,3.4722,3.54,3.697,3.7059,3.722,3.7577,3.7521,3.7484,3.7484,3.6714,3.6457,3.6702,3.6602,3.6444,3.6301,3.6301,3.6301,0.0,0.0,0.0,0.0,0.0,0.0,0.0,0.0,1.8924,0.0,2.0577,2.1258,2.143,2.1542,2.1735,2.2068,2.2617,2.3224,2.3732,2.3939,2.4247,2.4828,2.4902,2.5018,2.5337,2.5432,2.5582,2.5872,2.5759,2.5779,2.6019,2.582,2.5679,2.5636,2.5564,2.5627,2.584,2.582,2.5704,2.553,2.7161,2.7923,2.7981,2.9579,3.0343,3.0355,3.0123,3.0064,3.0138,3.0019,3.007,3.026,3.0,3.0154,3.0589,3.1042,3.1326,3.1629,3.2444,3.2728,3.2766,3.2975,3.3051,3.3127,3.3657,3.3826,3.3918,3.433,3.4427,3.4381,3.4269,3.4221,3.4197,3.4197,3.4197,3.4197,3.4124,3.386,3.3605,3.3605,3.3444,3.328,3.322,3.3129,3.3055,3.2993,3.3024,3.3055,3.3011,3.2979,3.2979,3.2979,3.2979,3.3605,3.518,3.5305,3.5951,3.7487,3.7577,3.7577,3.7577,3.7577,3.7577,3.7577,3.7334,3.7066,3.6846,3.6806,3.6643,3.6402,3.6402,3.636,0.0,0.0,0.0,0.0,0.0,0.0,0.0,0.0,2.0456,2.1048,2.1589,2.194,2.1894,2.2094,2.215,2.1869,2.2385,2.306,2.371,2.3816,2.4099,2.4814,2.4902,2.5019,2.5274,2.5365,2.5788,2.6662,2.6028,2.5993,2.6878,2.616,2.5703,2.569,2.5628,2.5956,2.6721,2.6663,2.6238,2.553,2.7194,2.7987,2.8045,2.9659,3.0449,3.0579,3.0367,3.0279,3.0279,3.0138,3.059,3.1222,3.026,3.0854,3.2179,3.1459,3.1686,3.2463,3.3335,3.3638,3.3752,3.4529,3.4775,3.4775,3.4734,3.4732,3.4711,3.4604,3.4495,3.4386,3.4386,3.4293,3.4197,3.4197,3.4197,3.4148,3.3947,3.3753,3.3605,3.3605,3.3605,3.3502,3.325,3.3415,3.3473,3.322,3.3415,3.3473,3.322,3.319,3.319,3.319,3.319,3.3839,3.5443,3.5588,3.6173,3.7524,3.7577,3.7577,3.7577,3.7577,3.7577,3.7577,3.7577,3.7484,3.7259,3.7066,3.6869,3.6702,3.6702,3.6544,0.0,0.0,0.0,0.0,0.0,0.0,0.0,1.9818,2.1196,2.1902,2.2703,2.3077,2.2447,2.2579,2.2562,2.2024,2.2772,2.3535,2.3774,2.4057,2.4408,2.4861,2.5389,2.5837,2.6119,2.6206,2.6602,2.7505,2.6859,2.6837,2.7722,2.6986,2.6774,2.7294,2.6747,2.6545,2.6807,2.729,2.7116,2.6296,2.8006,2.8818,2.8876,3.0008,3.055,3.0598,3.0519,3.0436,3.0359,3.0279,3.0682,3.1352,3.1001,3.1553,3.2545,3.2745,3.3028,3.3477,3.4206,3.4472,3.451,3.4813,3.4908,3.4908,3.487,3.485,3.4849,3.4749,3.4687,3.4623,3.445,3.4363,3.4293,3.4221,3.4197,3.4173,3.4099,3.4049,3.3998,3.3998,3.3868,3.3762,3.368,3.3615,3.3577,3.3473,3.353,3.3577,3.3473,3.3473,3.3473,3.3473,3.3473,3.4098,3.5726,3.5872,3.6481,3.8011,3.8119,3.8052,3.7845,3.7863,3.7792,3.7613,3.7577,3.7521,3.7297,3.722,3.7105,3.6869,3.6766,3.6643,0.0,0.0,0.0,0.0,0.0,0.0,0.0,0.0,2.1787,2.2625,2.3453,2.3784,2.3161,2.3206,2.3029,2.219,2.2965,2.3689,2.3795,2.4135,2.4495,2.4861,2.5674,2.6308,2.6581,2.6892,2.7468,2.8345,2.7718,2.7688,2.8593,2.7878,2.7672,2.8174,2.7925,2.761,2.7271,2.8073,2.8034,2.7185,2.8644,2.9321,2.9321,3.0192,3.0598,3.0598,3.0598,3.055,3.0469,3.0686,3.1226,3.1891,3.1881,3.2535,3.3528,3.3756,3.4042,3.4363,3.481,3.4926,3.4908,3.4908,3.4908,3.4908,3.4908,3.4908,3.4889,3.4849,3.4829,3.4768,3.4561,3.4495,3.4431,3.4293,3.4269,3.4269,3.4269,3.4221,3.4197,3.4197,3.4099,3.3972,3.3895,3.386,3.378,3.3698,3.3753,3.378,3.3698,3.3698,3.3698,3.3698,3.3698,3.4357,3.5967,3.6095,3.676,3.8323,3.8382,3.8318,3.8153,3.8119,3.8052,3.788,3.7845,3.7757,3.754,3.7447,3.7297,3.7105,3.6965,3.6806,0.0,0.0,0.0,0.0,0.0,0.0,2.0143,0.0,2.2221,2.3214,2.3709,2.3974,2.4008,2.399,2.3581,2.2468,2.2892,2.3486,2.3753,2.3961,2.4319,2.4865,2.5693,2.6346,2.6628,2.7448,2.8308,2.9177,2.8543,2.854,2.9469,2.8795,2.8338,2.8237,2.9084,2.9129,2.8244,2.9046,2.8999,2.8152,2.9012,2.9399,2.936,3.0211,3.0598,3.0598,3.0598,3.0598,3.0666,3.1367,3.2151,3.2897,3.2833,3.3815,3.522,3.4414,3.455,3.5105,3.5105,3.5018,3.4908,3.4908,3.4908,3.4908,3.4908,3.4889,3.4908,3.4908,3.4849,3.4788,3.4788,3.4687,3.458,3.445,3.4404,3.4386,3.4386,3.4293,3.4197,3.4197,3.4197,3.4148,3.3947,3.4074,3.4124,3.3947,3.4074,3.4124,3.3921,3.3895,3.3895,3.3895,3.3895,3.4557,3.6177,3.6288,3.6901,3.8319,3.8378,3.8378,3.8378,3.8415,3.8415,3.8382,3.8382,3.8285,3.8018,3.7757,3.7521,3.7297,3.7297,3.7066,1.3742,0.0,0.0,0.0,0.0,0.0,0.0,2.0228,2.1606,2.2866,2.3437,2.3834,2.428,2.4726,2.4804,2.4058,2.3615,2.3486,2.371,2.3941,2.4487,2.5512,2.6473,2.739,2.8186,2.8564,2.9132,3.0012,2.9342,2.9319,3.0251,3.0225,2.9871,2.9236,3.0005,3.003,2.9148,2.9941,2.9891,2.9055,2.9912,3.0308,3.025,3.0482,3.0598,3.0598,3.0598,3.0598,3.0617,3.083,3.1686,3.2909,3.2884,3.3943,3.5411,3.5096,3.5153,3.5388,3.5266,3.5155,3.5053,3.5053,3.5053,3.5018,3.4926,3.4963,3.5018,3.4945,3.4889,3.4869,3.4809,3.4687,3.4602,3.4539,3.4539,3.4517,3.4427,3.4363,3.4316,3.4221,3.4197,3.4173,3.4124,3.4173,3.4173,3.4124,3.4173,3.4173,3.4124,3.4124,3.4124,3.4124,3.4124,3.4791,3.6459,3.607,3.6396,3.7951,3.8034,3.7958,3.7764,3.8352,3.859,3.8415,3.8382,3.835,3.8285,3.8018,3.7757,3.7503,3.7372,3.7066,0.0,0.0,0.0,0.0,0.0,0.0,1.9086,2.0128,2.1173,2.2483,2.3056,2.3607,2.456,2.4663,2.474,2.5202,2.4489,2.4052,2.4568,2.4632,2.5078,2.6255,2.7311,2.8179,2.884,2.9346,2.9852,3.0359,2.9998,3.002,3.0613,3.0759,3.0612,3.0157,3.0605,3.0601,3.0087,3.0548,3.0506,2.9982,3.0496,3.071,3.063,3.0615,3.0598,3.0598,3.0598,3.0598,3.0636,3.0965,3.1844,3.3064,3.3778,3.4697,3.5565,3.5502,3.5489,3.5483,3.5416,3.5315,3.5187,3.5187,3.5187,3.5171,3.5088,3.5122,3.5155,3.5018,3.4945,3.4889,3.4829,3.4769,3.471,3.4687,3.4687,3.4666,3.4583,3.4473,3.4363,3.4221,3.4197,3.4197,3.4197,3.4197,3.4197,3.4197,3.4197,3.4197,3.4197,3.4197,3.4197,3.4197,3.4197,3.4736,3.6073,3.5757,3.6185,3.7801,3.7894,3.7988,3.8163,3.8662,3.8844,3.8695,3.8676,3.8664,3.8559,3.8186,3.7845,3.7594,3.741,3.7182,0.0,0.0,0.0,0.0,0.0,0.0,1.9924,2.0371,2.0759,2.191,2.2473,2.3215,2.4659,2.4093,2.399,2.5742,2.5199,2.4913,2.5883,2.5746,2.5946,2.7081,2.8088,2.8772,2.8998,2.9864,3.0398,3.0398,3.0462,3.056,3.0677,3.0706,3.0767,3.0877,3.0899,3.0907,3.0898,3.0898,3.0879,3.0801,3.0801,3.0774,3.0704,3.0651,3.0615,3.0598,3.0598,3.0656,3.0791,3.1623,3.2386,3.3256,3.4911,3.5607,3.5704,3.5704,3.562,3.5528,3.5528,3.543,3.5311,3.5311,3.5311,3.533,3.5296,3.5315,3.5281,3.5155,3.5018,3.4908,3.4849,3.4869,3.4889,3.4829,3.4809,3.4809,3.4788,3.4623,3.4386,3.4245,3.4221,3.4197,3.4197,3.4197,3.4197,3.4197,3.4197,3.4197,3.4197,3.4197,3.4197,3.4197,3.4197,3.4587,3.5535,3.5535,3.6185,3.7801,3.7894,3.8209,3.8934,3.9045,3.9101,3.9101,3.9101,3.8989,3.8792,3.8252,3.7898,3.7649,3.7447,3.7334,0.0,0.0,0.0,0.0,0.0,0.0,1.7978,1.9058,2.023,2.043,2.1217,2.2239,2.3564,2.4047,2.4384,2.4764,2.4959,2.5315,2.5985,2.6239,2.6755,2.7791,2.838,2.8969,2.963,3.0138,3.0398,3.0398,3.0462,3.0535,3.0614,3.0667,3.0747,3.0819,3.088,3.0901,3.0905,3.0897,3.0898,3.0879,3.0879,3.0859,3.0779,3.0772,3.0711,3.0598,3.0598,3.0965,3.1642,3.2483,3.2947,3.3198,3.4253,3.5085,3.5704,3.5704,3.5673,3.5662,3.5662,3.5565,3.5457,3.5457,3.5457,3.5443,3.5326,3.5374,3.543,3.5296,3.5171,3.5053,3.5035,3.4963,3.4908,3.4889,3.4889,3.4869,3.4809,3.4768,3.4645,3.4404,3.4269,3.4197,3.4197,3.4197,3.4197,3.4197,3.4197,3.4197,3.4197,3.4197,3.4197,3.4197,3.4197,3.481,3.6333,3.5869,3.6185,3.7801,3.7894,3.7968,3.8135,3.8767,3.9101,3.9101,3.9101,3.8989,3.8792,3.8252,3.7984,3.7915,3.7649,3.7447,0.0,0.0,0.0,1.8087,0.0,0.0,0.0,1.9228,2.0161,2.0605,2.0816,2.1423,2.3189,2.3008,2.3034,2.4347,2.5027,2.5517,2.5839,2.6535,2.746,2.8706,2.9112,2.9478,2.9954,3.0228,3.0398,3.0398,3.0428,3.0492,3.0586,3.0626,3.0706,3.0799,3.0841,3.088,3.0899,3.0909,3.0897,3.0898,3.0898,3.0879,3.0859,3.082,3.0751,3.0721,3.1111,3.1516,3.1952,3.3267,3.3789,3.3828,3.4698,3.5317,3.5704,3.5704,3.5704,3.5704,3.5704,3.5662,3.5596,3.5596,3.5596,3.5596,3.5515,3.5502,3.5502,3.5416,3.5296,3.5203,3.5203,3.5105,3.5018,3.5088,3.5053,3.4982,3.4964,3.4908,3.4792,3.4626,3.445,3.4269,3.4221,3.4197,3.4197,3.4197,3.4197,3.4197,3.4197,3.4569,3.4847,3.4847,3.52,3.5776,3.663,3.6315,3.6593,3.7819,3.7894,3.8079,3.8469,3.8897,3.9101,3.9101,3.9101,3.9045,3.895,3.8572,3.8318,3.8186,3.8052,3.7949,0.0,0.0,0.0,0.0,0.0,1.9307,0.0,0.0,0.0,2.0828,2.0556,2.0812,2.2634,2.1866,2.1607,2.3714,2.4885,2.548,2.545,2.6698,2.8022,2.9118,2.9638,3.0007,3.0261,3.0503,3.0571,3.0398,3.0398,3.0451,3.0586,3.0593,3.0656,3.0799,3.0801,3.0841,3.088,3.0899,3.0907,3.0898,3.0898,3.0898,3.0898,3.0996,3.1055,3.1093,3.1918,3.233,3.254,3.3925,3.4573,3.4717,3.5433,3.5704,3.5704,3.5704,3.5704,3.5704,3.5704,3.5704,3.5704,3.5704,3.5704,3.5704,3.5704,3.562,3.554,3.554,3.5443,3.5345,3.5345,3.5235,3.5171,3.5266,3.5219,3.5138,3.5138,3.5015,3.4907,3.4831,3.4626,3.4427,3.4269,3.4221,3.4197,3.4197,3.4327,3.4439,3.4439,3.52,3.572,3.572,3.6296,3.676,3.6909,3.6928,3.7262,3.8079,3.8135,3.8414,3.9064,3.9101,3.9101,3.9101,3.9101,3.9101,3.9101,3.895,3.8743,3.8496,3.8415,3.8382,0.0,0.0,0.0,0.0,1.9814,0.0,1.86,0.0,2.0228,1.9448,0.0,2.0532,2.1017,0.0,0.0,2.2086,2.3813,2.5003,2.4615,2.6706,2.8209,2.8018,2.912,3.0186,3.0924,3.1331,3.1237,3.0456,3.0398,3.0451,3.0586,3.0593,3.0656,3.0799,3.0801,3.0801,3.0801,3.088,3.0899,3.0903,3.0892,3.0897,3.0918,3.1621,3.1953,3.1992,3.2869,3.3632,3.4305,3.4438,3.4911,3.5549,3.5665,3.5704,3.5704,3.5704,3.5704,3.5704,3.5704,3.5704,3.5704,3.5704,3.5704,3.5704,3.5704,3.5704,3.5673,3.5673,3.5584,3.547,3.547,3.5388,3.5266,3.53,3.53,3.5285,3.5285,3.5171,3.5034,3.4925,3.4812,3.4666,3.4427,3.4269,3.4197,3.4197,3.4847,3.533,3.533,3.6055,3.6556,3.6556,3.6649,3.6983,3.7689,3.7764,3.8098,3.8915,3.8952,3.9008,3.9101,3.9101,3.9101,3.9101,3.9101,3.9101,3.9101,3.9073,3.896,3.8762,3.851,3.8382,0.0,0.0,0.0,0.0,0.0,0.0,1.9009,1.9596,2.0231,2.0369,0.0,0.0,0.0,0.0,0.0,0.0,2.392,2.4806,2.42,2.6337,2.7967,2.7904,2.8989,2.9933,3.0468,3.1238,3.1545,3.1179,3.116,3.1191,3.1291,3.1321,3.1164,3.0751,3.0774,3.0801,3.0801,3.0841,3.086,3.0899,3.0903,3.0909,3.0931,3.1738,3.2109,3.2187,3.3555,3.4315,3.4632,3.5119,3.5463,3.5704,3.5704,3.5704,3.5704,3.5704,3.5704,3.5704,3.5704,3.5704,3.5704,3.5704,3.5704,3.5704,3.5704,3.5704,3.5704,3.5704,3.5662,3.5608,3.5608,3.5515,3.543,3.5515,3.5457,3.5416,3.5416,3.5355,3.5296,3.5168,3.4981,3.4812,3.4714,3.448,3.4293,3.4221,3.494,3.5497,3.5497,3.6593,3.7392,3.7392,3.7801,3.8228,3.8562,3.8599,3.8729,3.9082,3.9101,3.9101,3.9101,3.9101,3.9101,3.9101,3.9101,3.9101,3.9101,3.9101,3.9045,3.896,3.8873,3.8815,1.8079,0.0,0.0,1.9807,1.9581,1.9205,1.9465,1.9897,2.0492,2.1255,2.0986,0.0,0.0,0.0,2.2325,2.3073,0.0,2.5034,2.4303,2.6315,2.7748,2.7511,2.895,2.9978,3.0041,3.1013,3.1629,3.1629,3.1674,3.1823,3.2116,3.2191,3.196,3.1427,3.1457,3.1376,3.1153,3.1153,3.1055,3.088,3.088,3.0997,3.125,3.2085,3.2597,3.2891,3.4394,3.5039,3.5039,3.5655,3.5842,3.5742,3.5704,3.5704,3.5704,3.5704,3.5704,3.5704,3.5704,3.5704,3.5704,3.5704,3.5704,3.5704,3.5704,3.5704,3.5704,3.5704,3.5704,3.5704,3.5704,3.5639,3.5584,3.5673,3.5639,3.5553,3.5553,3.5528,3.547,3.5374,3.5168,3.5054,3.5229,3.4783,3.4381,3.4269,3.4965,3.5572,3.5795,3.7039,3.7968,3.8209,3.8748,3.9101,3.9101,3.9101,3.9101,3.9101,3.9101,3.9101,3.9101,3.9101,3.9101,3.9101,3.9101,3.9101,3.9101,3.9101,3.9101,3.9101,3.9101,3.9101,0.0,1.9329,1.9842,2.0486,2.0361,1.9977,1.9605,2.0264,2.1042,2.1347,2.2149,2.2801,2.2885,2.3383,2.3835,2.3852,2.5096,0.0,0.0,2.6833,2.7679,2.6307,2.8938,3.0602,2.9962,3.0818,3.1417,3.1417,3.1584,3.2073,3.2928,3.2947,3.3042,3.3209,3.3214,3.2853,3.207,3.2051,3.1641,3.0801,3.0801,3.125,3.209,3.2951,3.3822,3.4668,3.5566,3.5957,3.5957,3.5918,3.5899,3.5889,3.5742,3.5704,3.5704,3.5704,3.5704,3.5704,3.5704,3.5704,3.5704,3.5704,3.5704,3.5704,3.5704,3.5704,3.5704,3.5704,3.5704,3.5704,3.5704,3.5704,3.5684,3.5704,3.5704,3.5684,3.5684,3.5596,3.5502,3.5483,3.5388,3.5468,3.6064,3.5179,3.4386,3.4386,3.5038,3.5776,3.6556,3.7392,3.8191,3.8971,3.9082,3.9101,3.9101,3.9101,3.9101,3.9101,3.9101,3.9101,3.9101,3.9101,3.9101,3.9101,3.9101,3.9101,3.9101,3.9101,3.9101,3.9101,3.9101,3.9101,1.8319,1.8819,1.9316,2.0217,1.9735,1.93,2.0221,2.0706,2.113,2.1577,2.2319,2.2988,2.3256,2.4045,2.4763,2.4992,2.5627,2.6023,0.0,2.6772,2.7718,2.8158,0.0,0.0,2.9774,3.0722,3.1632,3.2225,3.2409,3.2877,3.3742,3.3832,3.3635,3.3128,3.3232,3.3166,3.2892,3.2371,3.2246,3.2519,3.1934,3.2129,3.2988,3.3866,3.4417,3.4757,3.5624,3.5996,3.5996,3.5976,3.593,3.5908,3.5853,3.58,3.5762,3.5723,3.5704,3.5704,3.5704,3.5704,3.5704,3.5704,3.5704,3.5704,3.5704,3.5704,3.5704,3.5704,3.5704,3.5704,3.5704,3.5704,3.5704,3.5704,3.5704,3.5704,3.5704,3.5662,3.562,3.562,3.5991,3.6358,3.6554,3.6589,3.646,3.6101,3.6267,3.6696,3.7418,3.8191,3.8804,3.9064,3.9101,3.9101,3.9101,3.9101,3.9101,3.9101,3.9101,3.9101,3.9101,3.9101,3.9101,3.9101,3.9101,3.9101,3.9101,3.9101,3.9101,3.9101,3.9101,3.9101,1.8226,1.8708,1.9224,2.0204,2.0014,1.9885,2.1031,2.1606,2.2,2.2456,2.3226,2.3923,2.4159,2.5007,2.5732,2.5979,2.6302,2.6597,0.0,2.7245,2.7985,0.0,0.0,0.0,0.0,3.0376,3.1382,3.2611,3.2812,3.341,3.4603,3.4687,3.4488,3.3933,3.4038,3.3971,3.3686,3.3219,3.3126,3.336,3.2826,3.3027,3.3886,3.4432,3.4861,3.5193,3.5755,3.5994,3.5995,3.5996,3.5976,3.5936,3.5904,3.5873,3.5814,3.5736,3.5704,3.5704,3.5704,3.5704,3.5704,3.5704,3.5704,3.5704,3.5704,3.5704,3.5704,3.5704,3.5704,3.5704,3.5704,3.5704,3.5704,3.5704,3.5704,3.5704,3.5704,3.5704,3.5704,3.5704,3.6315,3.6922,3.7192,3.7555,3.7672,3.7249,3.7118,3.7347,3.8102,3.8558,3.8928,3.9208,3.9156,3.9101,3.9101,3.9101,3.9101,3.9101,3.9101,3.9101,3.9101,3.9101,3.9101,3.9101,3.9101,3.9101,3.9101,3.9101,3.9101,3.9101,3.9101,3.9101]},{"header":{"parameterUnit":"m.s-1","parameterCategory":1,"la1":30.6,"la2":29.2853,"lo1":-89.7004,"lo2":-87.6739,"dy":0.0162,"dx":0.0183,"nx":112,"ny":82,"refTime":"2025-03-04T06:00:00:Z","depth":0,"parameterNumber":3,"parameterNumberName":"V-component_of_WINDS"},"data":[0.0,0.0,0.0,0.0,0.0,0.0,0.0,0.0,0.0,0.0,0.0,0.0,0.0,0.0,0.0,0.0,0.0,0.0,0.0,0.0,0.0,0.0,0.0,0.0,0.0,0.0,0.0,0.0,0.0,0.0,0.0,0.0,0.0,0.0,0.0,0.0,0.0,0.0,0.0,0.0,0.0,0.0,0.0,0.0,0.0,0.0,0.0,0.0,0.0,0.0,0.0,0.0,0.0,0.0,0.0,0.0,0.0,0.0,0.0,0.0,0.0,0.0,0.0,0.0,0.0,0.0,0.0,0.0,0.0,0.0,0.0,0.0,0.0,0.0,0.0,0.0,0.0,0.0,0.0,0.0,0.0,0.0,0.0,0.0,0.0,0.0,0.0,0.0,0.0,0.0,-1.4757,-1.3714,-1.4737,-1.544,-1.534,-1.6245,-1.6345,-1.5278,0.0,0.0,0.0,0.0,0.0,0.0,0.0,0.0,0.0,0.0,0.0,0.0,0.0,0.0,0.0,0.0,0.0,0.0,0.0,0.0,0.0,0.0,0.0,0.0,0.0,0.0,0.0,0.0,0.0,0.0,0.0,0.0,0.0,0.0,0.0,0.0,0.0,0.0,0.0,0.0,0.0,0.0,0.0,0.0,0.0,0.0,0.0,0.0,0.0,0.0,0.0,0.0,0.0,0.0,0.0,0.0,0.0,0.0,0.0,0.0,0.0,0.0,0.0,0.0,0.0,0.0,0.0,0.0,0.0,0.0,0.0,0.0,0.0,0.0,0.0,0.0,0.0,0.0,0.0,0.0,0.0,0.0,0.0,0.0,0.0,0.0,0.0,0.0,0.0,0.0,0.0,0.0,0.0,0.0,0.0,0.0,0.0,0.0,0.0,0.0,0.0,0.0,0.0,0.0,-1.4685,-1.4883,-1.5765,-1.604,-1.534,-1.5743,-1.5942,-1.5782,0.0,0.0,0.0,0.0,0.0,0.0,0.0,0.0,0.0,0.0,0.0,0.0,0.0,0.0,0.0,0.0,0.0,0.0,0.0,0.0,0.0,0.0,0.0,0.0,0.0,0.0,0.0,0.0,0.0,0.0,0.0,0.0,0.0,0.0,0.0,0.0,0.0,0.0,0.0,0.0,0.0,0.0,0.0,0.0,0.0,0.0,0.0,0.0,0.0,0.0,0.0,0.0,0.0,0.0,0.0,0.0,0.0,0.0,0.0,0.0,0.0,0.0,0.0,0.0,0.0,0.0,0.0,0.0,0.0,0.0,0.0,0.0,0.0,0.0,0.0,0.0,0.0,0.0,0.0,0.0,0.0,0.0,0.0,0.0,0.0,0.0,0.0,0.0,0.0,0.0,0.0,0.0,0.0,0.0,0.0,0.0,0.0,0.0,0.0,0.0,0.0,0.0,0.0,-1.4955,-1.5133,-1.5857,-1.6339,-1.6533,-1.6377,-1.6051,-1.5917,-1.6188,-1.5866,0.0,0.0,0.0,0.0,0.0,0.0,0.0,0.0,0.0,0.0,0.0,0.0,0.0,0.0,0.0,0.0,0.0,0.0,0.0,0.0,0.0,0.0,0.0,0.0,0.0,0.0,0.0,0.0,0.0,0.0,0.0,0.0,0.0,0.0,0.0,0.0,0.0,0.0,0.0,0.0,0.0,0.0,0.0,0.0,0.0,0.0,0.0,0.0,0.0,0.0,0.0,0.0,0.0,0.0,0.0,0.0,0.0,0.0,0.0,0.0,0.0,0.0,0.0,0.0,0.0,0.0,0.0,0.0,0.0,0.0,0.0,0.0,0.0,0.0,0.0,0.0,0.0,0.0,0.0,0.0,0.0,0.0,0.0,0.0,0.0,0.0,0.0,0.0,0.0,0.0,0.0,0.0,0.0,0.0,0.0,0.0,0.0,0.0,0.0,0.0,0.0,0.0,-1.5511,-1.5659,-1.6655,-1.6751,-1.692,-1.7278,-1.6393,-1.6019,-1.6489,-1.5612,0.0,0.0,0.0,0.0,0.0,0.0,0.0,0.0,0.0,0.0,0.0,0.0,0.0,0.0,0.0,0.0,0.0,0.0,0.0,0.0,0.0,0.0,0.0,0.0,0.0,0.0,0.0,0.0,0.0,0.0,0.0,0.0,0.0,0.0,0.0,0.0,0.0,0.0,0.0,0.0,0.0,0.0,0.0,0.0,0.0,0.0,0.0,0.0,0.0,0.0,0.0,0.0,0.0,0.0,0.0,0.0,0.0,0.0,0.0,0.0,0.0,0.0,0.0,0.0,0.0,0.0,0.0,0.0,0.0,0.0,0.0,0.0,0.0,0.0,0.0,0.0,0.0,0.0,0.0,0.0,0.0,0.0,0.0,0.0,0.0,0.0,0.0,0.0,0.0,0.0,0.0,0.0,0.0,0.0,0.0,0.0,0.0,0.0,0.0,0.0,0.0,0.0,-1.5756,-1.6155,-1.7113,-1.7278,-1.7278,-1.7278,-1.6393,-1.6019,-1.6489,-1.5612,0.0,0.0,0.0,0.0,0.0,0.0,0.0,0.0,0.0,0.0,0.0,0.0,0.0,0.0,0.0,0.0,0.0,0.0,0.0,0.0,0.0,0.0,0.0,0.0,0.0,0.0,0.0,0.0,0.0,0.0,0.0,0.0,0.0,0.0,0.0,0.0,0.0,0.0,0.0,0.0,0.0,0.0,0.0,0.0,0.0,0.0,0.0,0.0,0.0,0.0,0.0,0.0,0.0,0.0,0.0,0.0,0.0,0.0,0.0,0.0,0.0,0.0,0.0,0.0,0.0,0.0,0.0,0.0,0.0,0.0,0.0,0.0,0.0,0.0,0.0,0.0,0.0,0.0,0.0,0.0,0.0,0.0,0.0,0.0,0.0,0.0,0.0,0.0,0.0,0.0,0.0,0.0,0.0,0.0,0.0,0.0,0.0,0.0,0.0,0.0,0.0,0.0,-1.56,-1.6208,0.0,-1.7278,-1.7147,-1.683,-1.6208,-1.5897,-1.6067,0.0,0.0,0.0,0.0,0.0,0.0,0.0,0.0,0.0,0.0,0.0,0.0,0.0,0.0,0.0,0.0,0.0,0.0,0.0,0.0,0.0,0.0,0.0,0.0,0.0,0.0,0.0,0.0,0.0,0.0,0.0,0.0,0.0,0.0,0.0,0.0,0.0,0.0,0.0,0.0,0.0,0.0,0.0,0.0,0.0,0.0,0.0,0.0,0.0,0.0,0.0,0.0,0.0,0.0,0.0,0.0,0.0,0.0,0.0,0.0,0.0,0.0,0.0,0.0,0.0,0.0,0.0,0.0,0.0,0.0,0.0,0.0,0.0,0.0,0.0,0.0,0.0,0.0,0.0,0.0,0.0,0.0,0.0,0.0,0.0,0.0,0.0,0.0,0.0,0.0,0.0,0.0,0.0,0.0,0.0,0.0,0.0,0.0,0.0,0.0,0.0,0.0,-1.4799,-1.5311,-1.6079,0.0,-1.7324,-1.7148,-1.6795,-1.6184,-1.5769,-1.5649,0.0,0.0,0.0,0.0,0.0,0.0,0.0,0.0,0.0,0.0,0.0,0.0,0.0,0.0,0.0,0.0,0.0,0.0,0.0,0.0,0.0,0.0,0.0,0.0,0.0,0.0,0.0,0.0,0.0,0.0,0.0,0.0,0.0,0.0,0.0,0.0,0.0,0.0,0.0,0.0,0.0,0.0,0.0,0.0,0.0,0.0,0.0,0.0,0.0,0.0,0.0,0.0,0.0,0.0,0.0,0.0,0.0,0.0,0.0,0.0,0.0,0.0,0.0,0.0,0.0,0.0,0.0,0.0,0.0,0.0,0.0,0.0,0.0,0.0,0.0,0.0,0.0,0.0,0.0,0.0,0.0,0.0,0.0,0.0,0.0,0.0,0.0,0.0,0.0,0.0,0.0,0.0,0.0,0.0,0.0,0.0,0.0,0.0,0.0,0.0,0.0,0.0,-1.4373,-1.4941,-1.5791,-1.7171,-1.7291,-1.7302,-1.7272,-1.6343,-1.5647,0.0,0.0,0.0,0.0,0.0,0.0,0.0,0.0,0.0,0.0,0.0,0.0,0.0,0.0,0.0,0.0,0.0,0.0,0.0,0.0,0.0,0.0,0.0,0.0,0.0,0.0,0.0,0.0,0.0,0.0,0.0,0.0,0.0,0.0,0.0,0.0,0.0,0.0,0.0,0.0,0.0,0.0,0.0,0.0,0.0,0.0,0.0,0.0,0.0,0.0,0.0,0.0,0.0,0.0,0.0,0.0,0.0,0.0,0.0,0.0,0.0,0.0,0.0,0.0,0.0,0.0,0.0,0.0,0.0,0.0,0.0,0.0,0.0,0.0,0.0,0.0,0.0,0.0,0.0,0.0,0.0,0.0,0.0,0.0,0.0,0.0,0.0,0.0,0.0,0.0,0.0,0.0,0.0,0.0,0.0,0.0,0.0,0.0,0.0,0.0,0.0,0.0,0.0,-1.3892,-1.4653,-1.5437,-1.6159,-1.6545,-1.6479,-1.5813,-1.5789,-1.5565,-1.505,0.0,0.0,0.0,0.0,0.0,0.0,0.0,0.0,0.0,0.0,0.0,0.0,0.0,0.0,0.0,0.0,0.0,0.0,0.0,0.0,0.0,0.0,0.0,0.0,0.0,0.0,0.0,0.0,0.0,0.0,0.0,0.0,0.0,0.0,0.0,0.0,0.0,0.0,0.0,0.0,0.0,0.0,0.0,0.0,0.0,0.0,0.0,0.0,0.0,0.0,0.0,0.0,0.0,0.0,0.0,0.0,0.0,0.0,0.0,0.0,0.0,0.0,0.0,0.0,0.0,0.0,0.0,0.0,0.0,0.0,0.0,0.0,0.0,0.0,0.0,0.0,0.0,0.0,0.0,0.0,0.0,0.0,0.0,0.0,0.0,0.0,0.0,0.0,0.0,0.0,0.0,0.0,0.0,0.0,0.0,0.0,0.0,0.0,0.0,0.0,0.0,0.0,-1.3586,-1.4326,-1.5077,-1.572,-1.6039,-1.5996,-1.5404,-1.5311,-1.4969,-1.4359,0.0,0.0,0.0,0.0,0.0,0.0,0.0,0.0,0.0,0.0,0.0,0.0,0.0,0.0,0.0,0.0,0.0,0.0,0.0,0.0,0.0,0.0,0.0,0.0,0.0,0.0,0.0,0.0,0.0,0.0,0.0,0.0,0.0,0.0,0.0,0.0,0.0,0.0,0.0,0.0,0.0,0.0,0.0,0.0,0.0,0.0,0.0,0.0,0.0,0.0,0.0,0.0,0.0,0.0,0.0,0.0,0.0,0.0,0.0,0.0,0.0,0.0,0.0,0.0,0.0,0.0,0.0,0.0,0.0,0.0,0.0,0.0,0.0,0.0,0.0,0.0,0.0,0.0,0.0,0.0,0.0,0.0,0.0,0.0,0.0,0.0,0.0,0.0,0.0,0.0,0.0,0.0,0.0,0.0,0.0,0.0,0.0,0.0,0.0,0.0,0.0,0.0,-1.3326,-1.3974,-1.4718,-1.5589,-1.573,-1.5742,-1.5676,-1.4942,-1.4195,-1.3507,0.0,0.0,0.0,0.0,0.0,0.0,0.0,0.0,0.0,0.0,0.0,0.0,0.0,0.0,0.0,0.0,0.0,0.0,0.0,0.0,0.0,0.0,0.0,0.0,0.0,0.0,0.0,0.0,0.0,0.0,0.0,0.0,0.0,0.0,0.0,0.0,0.0,0.0,0.0,0.0,0.0,0.0,0.0,0.0,0.0,0.0,0.0,0.0,0.0,0.0,0.0,0.0,0.0,0.0,0.0,0.0,0.0,0.0,0.0,0.0,-2.0926,-2.1248,0.0,0.0,0.0,0.0,0.0,0.0,0.0,0.0,0.0,0.0,0.0,0.0,0.0,0.0,0.0,0.0,0.0,0.0,0.0,0.0,0.0,0.0,0.0,0.0,0.0,0.0,0.0,0.0,0.0,0.0,0.0,0.0,0.0,0.0,0.0,0.0,0.0,0.0,0.0,0.0,-1.3006,-1.3815,-1.449,-1.4679,-1.5045,-1.5083,-1.4722,-1.4839,-1.4707,-1.4204,-1.3806,0.0,0.0,0.0,0.0,0.0,0.0,0.0,0.0,0.0,0.0,0.0,0.0,0.0,0.0,0.0,0.0,0.0,0.0,0.0,0.0,0.0,0.0,0.0,0.0,0.0,0.0,0.0,0.0,0.0,0.0,0.0,0.0,0.0,0.0,0.0,0.0,0.0,0.0,0.0,0.0,0.0,0.0,0.0,0.0,0.0,0.0,0.0,0.0,0.0,0.0,0.0,0.0,0.0,0.0,0.0,0.0,0.0,0.0,0.0,-2.2059,-2.2044,0.0,0.0,0.0,0.0,0.0,0.0,0.0,0.0,0.0,0.0,0.0,0.0,0.0,0.0,0.0,0.0,0.0,0.0,0.0,0.0,0.0,0.0,0.0,0.0,0.0,0.0,0.0,0.0,0.0,0.0,0.0,0.0,0.0,0.0,0.0,0.0,0.0,0.0,0.0,0.0,-1.3529,-1.4203,-1.4832,-1.5056,-1.5086,-1.4996,-1.4744,-1.4963,-1.4807,-1.4105,-1.3839,0.0,0.0,0.0,0.0,0.0,0.0,0.0,0.0,0.0,0.0,0.0,0.0,0.0,0.0,0.0,0.0,0.0,0.0,0.0,0.0,0.0,0.0,0.0,0.0,0.0,0.0,0.0,0.0,0.0,0.0,0.0,0.0,0.0,0.0,0.0,0.0,0.0,0.0,0.0,0.0,0.0,0.0,0.0,0.0,0.0,0.0,0.0,0.0,0.0,0.0,0.0,0.0,0.0,-2.3269,-2.3674,-2.4872,-2.3896,-2.3795,-2.4327,-2.3026,-2.2669,-2.2972,-2.2972,0.0,0.0,0.0,0.0,0.0,0.0,0.0,0.0,0.0,0.0,0.0,0.0,0.0,0.0,0.0,0.0,0.0,0.0,0.0,0.0,0.0,0.0,-1.7833,-1.7256,-1.7541,-1.7746,-1.6992,0.0,0.0,0.0,0.0,0.0,0.0,0.0,0.0,0.0,0.0,0.0,-1.4213,-1.481,-1.5394,-1.5741,-1.5432,-1.5215,-1.5215,-1.5215,-1.4871,-1.3994,-1.4182,-1.4121,0.0,0.0,0.0,0.0,0.0,0.0,0.0,0.0,0.0,0.0,0.0,0.0,0.0,0.0,0.0,0.0,0.0,0.0,0.0,0.0,0.0,0.0,0.0,0.0,0.0,0.0,0.0,0.0,0.0,0.0,0.0,0.0,-2.1022,-2.2004,0.0,0.0,0.0,0.0,0.0,0.0,0.0,0.0,0.0,0.0,0.0,0.0,0.0,-2.287,-2.2785,-2.3572,-2.398,-2.398,-2.4623,-2.4947,-2.4984,-2.4815,-2.4778,-2.4795,-2.4473,0.0,-2.3671,-2.3671,0.0,0.0,0.0,0.0,0.0,0.0,0.0,0.0,0.0,0.0,0.0,0.0,0.0,0.0,0.0,0.0,0.0,0.0,0.0,0.0,0.0,0.0,-1.9309,-1.8891,-1.9119,-1.9381,-1.9256,-1.789,-1.6669,-1.6529,-1.6515,-1.6215,0.0,0.0,0.0,0.0,0.0,0.0,-1.4213,-1.5097,-1.5724,-1.5796,-1.5763,-1.5718,-1.5718,-1.5718,-1.5492,-1.4926,-1.5295,-1.5492,-1.5301,-1.5278,0.0,0.0,0.0,0.0,0.0,0.0,0.0,0.0,0.0,0.0,0.0,0.0,0.0,0.0,0.0,0.0,0.0,0.0,0.0,0.0,0.0,0.0,0.0,0.0,0.0,0.0,0.0,0.0,0.0,-2.0899,-2.1698,-2.2554,-2.2394,-2.2243,0.0,0.0,0.0,0.0,0.0,0.0,0.0,0.0,0.0,-2.2536,-2.3374,-2.3818,-2.3784,-2.4576,-2.4953,-2.4899,-2.526,-2.5379,-2.5277,-2.5196,-2.5149,-2.5118,-2.4943,-2.4724,-2.4441,-2.4118,-2.384,-2.3671,0.0,0.0,0.0,0.0,-2.2849,-2.2581,-2.2041,-2.1769,-2.1535,-2.0713,0.0,0.0,0.0,0.0,0.0,0.0,0.0,-2.0011,-1.971,-1.9974,-2.0273,-2.0085,-2.0204,-2.0308,-2.0308,-1.9459,-1.8436,-1.7681,-1.7539,-1.7133,-1.5809,-1.5723,0.0,0.0,0.0,-1.5763,-1.5763,-1.6036,-1.6194,-1.6194,-1.5976,-1.5788,-1.5788,-1.5788,-1.5843,-1.5972,-1.5879,-1.6098,-1.6735,-1.6564,-1.6489,0.0,0.0,0.0,0.0,0.0,0.0,0.0,0.0,0.0,0.0,0.0,0.0,0.0,0.0,0.0,0.0,0.0,0.0,0.0,0.0,0.0,0.0,0.0,0.0,0.0,0.0,0.0,0.0,-2.1844,-2.2283,-2.3279,-2.3306,-2.326,0.0,0.0,0.0,0.0,0.0,0.0,-2.3062,-2.329,-2.3405,-2.3432,-2.4274,-2.4726,-2.4726,-2.5325,-2.5625,-2.5615,-2.559,-2.5541,-2.5522,-2.5414,-2.5376,-2.5333,-2.5129,-2.5053,-2.5,-2.4468,-2.4173,-2.402,-2.3999,-2.3837,-2.3624,-2.3369,-2.317,-2.2927,-2.2659,-2.2596,-2.2466,-2.1875,-2.1278,-2.0705,-2.0063,0.0,0.0,0.0,0.0,-2.0893,-2.0827,-2.0794,-2.0794,-2.0794,-2.0794,-2.0794,-2.0794,-2.0563,-2.0035,-1.8932,-1.8632,-1.8118,-1.6661,-1.6778,0.0,-1.6132,-1.6573,-1.6984,-1.6984,-1.682,-1.6693,-1.6693,-1.6367,-1.6139,-1.6139,-1.6318,-1.6532,-1.6858,-1.6704,-1.6992,-1.7877,-1.7819,-1.7727,-1.7673,0.0,0.0,0.0,0.0,0.0,0.0,0.0,0.0,0.0,0.0,0.0,0.0,0.0,0.0,0.0,0.0,0.0,0.0,0.0,0.0,0.0,0.0,0.0,0.0,0.0,0.0,0.0,0.0,0.0,-2.5058,-2.4609,0.0,0.0,0.0,0.0,-2.3003,-2.3007,-2.3011,-2.301,-2.3782,-2.4274,-2.433,-2.5174,-2.5623,-2.5622,-2.5663,-2.5683,-2.5682,-2.5682,-2.5662,-2.5598,-2.5595,-2.5543,-2.5473,-2.528,-2.5197,-2.5148,-2.4809,-2.4657,-2.4626,-2.4515,-2.4303,-2.4058,-2.384,-2.3624,-2.3394,-2.2952,-2.279,-2.2764,-2.2517,-2.1968,-2.1301,-2.0995,-2.0931,0.0,0.0,-2.0697,-2.1183,-2.0893,-2.0794,-2.0794,-2.0794,-2.0794,-2.0794,-2.0794,-2.0794,-2.0646,-2.0196,-1.9829,-1.9298,-1.827,0.0,-1.7803,-1.6809,-1.6858,-1.6984,-1.6984,-1.7116,-1.7157,-1.7157,-1.7157,-1.7115,-1.7115,-1.7635,-1.7828,-1.7383,-1.8215,-1.8695,-1.8549,-1.8976,-1.9293,-1.9561,-1.8424,0.0,0.0,0.0,0.0,0.0,0.0,0.0,0.0,0.0,0.0,0.0,0.0,0.0,0.0,0.0,0.0,0.0,0.0,0.0,0.0,0.0,0.0,0.0,0.0,0.0,0.0,0.0,0.0,-2.527,-2.5162,0.0,-2.5074,-2.4768,-2.4597,-2.4607,-2.4605,-2.4618,-2.461,-2.4904,-2.509,-2.5104,-2.5446,-2.5645,-2.5632,-2.5689,-2.5697,-2.57,-2.57,-2.5683,-2.5664,-2.5664,-2.5659,-2.562,-2.5511,-2.5426,-2.5379,-2.5118,-2.4885,-2.4692,-2.4645,-2.4409,-2.4097,-2.4019,-2.3774,-2.3481,-2.3319,-2.3151,-2.297,-2.2764,-2.2539,-2.2246,-2.2034,-2.198,-2.1925,-2.1715,-2.1859,-2.2032,-2.1928,-2.1764,-2.1658,-2.1658,-2.1554,-2.1448,-2.1448,-2.1261,-2.1087,-2.0942,-2.0429,-1.9767,-1.8982,-1.9016,-1.888,-1.8126,-1.8187,-1.8252,-1.7984,-1.7746,-1.7475,-1.724,-1.7199,-1.7199,-1.7199,-1.7395,-1.7639,-1.7828,-1.7817,-1.8184,-1.9021,-1.9197,-1.9262,-1.9103,-1.9429,-1.8547,0.0,0.0,0.0,0.0,0.0,0.0,0.0,0.0,0.0,0.0,0.0,0.0,0.0,0.0,0.0,0.0,0.0,0.0,0.0,0.0,0.0,0.0,0.0,0.0,0.0,0.0,-2.3883,-2.5277,-2.541,-2.541,-2.546,-2.5446,-2.5439,-2.5467,-2.5466,-2.5464,-2.5464,-2.5461,-2.548,-2.551,-2.5531,-2.5565,-2.5576,-2.5605,-2.5629,-2.5637,-2.5685,-2.5691,-2.5696,-2.5696,-2.57,-2.5703,-2.5633,-2.5554,-2.5496,-2.5321,-2.5102,-2.4837,-2.4753,-2.4545,-2.4302,-2.4154,-2.3899,-2.3576,-2.3435,-2.3247,-2.3095,-2.2927,-2.2893,-2.285,-2.2659,-2.2605,-2.2596,-2.2515,-2.2515,-2.2515,-2.2515,-2.2371,-2.2226,-2.2226,-2.2056,-2.1899,-2.1899,-2.1661,-2.1464,-2.1464,-2.0893,-2.0206,-1.9657,-1.971,-1.9667,-1.9126,-1.9082,-1.8988,-1.8745,-1.8187,-1.772,-1.7434,-1.7282,-1.7199,-1.7199,-1.7382,-1.7748,-1.8336,-1.7996,-1.8337,-1.9554,-1.9408,-1.9262,-1.9089,-1.9646,-1.9076,-1.7326,0.0,0.0,0.0,0.0,0.0,0.0,0.0,0.0,0.0,0.0,0.0,0.0,0.0,0.0,0.0,0.0,0.0,0.0,0.0,0.0,0.0,0.0,0.0,-2.2622,-2.3543,-2.438,-2.5178,-2.5348,-2.5379,-2.5379,-2.5453,-2.5467,-2.5406,-2.539,-2.5393,-2.5393,-2.5395,-2.5429,-2.5485,-2.5492,-2.5498,-2.5495,-2.5505,-2.549,-2.5498,-2.5634,-2.5694,-2.5698,-2.5698,-2.5709,-2.57,-2.5637,-2.5567,-2.5503,-2.5434,-2.5293,-2.5072,-2.4804,-2.4707,-2.4642,-2.4266,-2.3979,-2.3732,-2.3277,-2.3119,-2.3095,-2.3095,-2.3095,-2.3052,-2.2868,-2.2816,-2.2764,-2.2579,-2.2515,-2.2515,-2.2515,-2.2515,-2.2515,-2.2515,-2.2298,-2.2096,-2.2096,-2.194,-2.1797,-2.1797,-2.1261,-2.0712,-2.0311,-2.0208,-2.007,-1.9747,-1.9398,0.0,-1.9101,-1.8344,-1.7828,-1.7787,-1.7434,-1.7199,-1.7199,-1.7748,-1.831,-1.8819,-1.8872,-1.9272,-2.0087,-1.9594,-1.9463,-1.9727,-1.9133,-1.9105,-1.9673,0.0,0.0,0.0,0.0,0.0,0.0,0.0,0.0,0.0,0.0,0.0,0.0,0.0,0.0,0.0,0.0,0.0,0.0,0.0,0.0,0.0,-2.0364,-2.1331,-2.2369,-2.3217,-2.4055,-2.4924,-2.5024,-2.503,-2.503,-2.5143,-2.5196,-2.5184,-2.5274,-2.5332,-2.5332,-2.5332,-2.5341,-2.5351,-2.5404,-2.5421,-2.5432,-2.543,-2.5432,-2.5425,-2.5517,-2.5551,-2.5566,-2.566,-2.5707,-2.5707,-2.5682,-2.564,-2.5564,-2.5502,-2.5418,-2.5293,-2.4975,-2.4794,-2.4676,-2.4462,-2.4135,-2.3753,-2.3486,-2.3271,-2.3095,-2.3095,-2.3095,-2.3095,-2.3028,-2.302,-2.302,-2.2944,-2.2944,-2.2944,-2.2944,-2.2712,-2.2515,-2.2515,-2.2175,-2.1899,-2.1899,-2.184,-2.1797,-2.1797,-2.1661,-2.1417,-2.1071,-2.0548,-2.0174,-2.0085,-1.9767,-1.9435,-1.9139,-1.8898,-1.85,-1.7868,-1.772,-1.7516,-1.724,-1.7748,-1.797,-1.7682,-1.8135,-1.8526,-1.8861,-1.9244,-1.9728,-2.0251,-1.9293,-1.8888,0.0,0.0,0.0,0.0,0.0,0.0,0.0,0.0,0.0,0.0,0.0,0.0,0.0,0.0,0.0,0.0,0.0,0.0,0.0,0.0,0.0,0.0,-2.0377,-2.0933,-2.1508,-2.2429,-2.3239,-2.3744,-2.4163,-2.4403,-2.4403,-2.4772,-2.5037,-2.5103,-2.5179,-2.5241,-2.5302,-2.5302,-2.5302,-2.5302,-2.5341,-2.5341,-2.5332,-2.5348,-2.5365,-2.5357,-2.5453,-2.5504,-2.5504,-2.5639,-2.571,-2.5707,-2.5694,-2.5664,-2.5609,-2.5554,-2.5486,-2.5371,0.0,0.0,0.0,0.0,-2.4115,-2.3774,-2.3576,-2.3319,-2.3095,-2.3095,-2.3095,-2.3095,-2.3095,-2.3095,-2.3095,-2.3095,-2.3095,-2.3095,-2.3095,-2.285,-2.2649,-2.2649,-2.2271,-2.1928,-2.1928,-2.162,-2.1334,-2.1334,-2.1334,0.0,-2.1098,-2.0735,-2.0395,-2.0208,-1.9909,-1.9617,-1.9398,-1.9213,-1.8822,-1.8187,-1.7908,-1.7639,-1.724,-1.7525,0.0,0.0,0.0,-1.7972,-1.8369,-1.9158,0.0,0.0,0.0,0.0,0.0,0.0,0.0,0.0,-2.0297,-2.0053,0.0,0.0,0.0,0.0,0.0,0.0,0.0,0.0,0.0,0.0,0.0,0.0,0.0,0.0,0.0,0.0,-2.0409,-2.0338,-2.0308,-2.1258,-2.2034,-2.2222,-2.2999,-2.353,-2.3625,-2.4306,-2.4828,-2.5037,-2.5072,-2.5149,-2.5264,-2.5284,0.0,0.0,0.0,-2.5282,-2.5212,-2.5265,-2.5303,-2.5303,-2.5439,-2.5504,-2.5504,-2.5639,-2.5703,-2.5707,-2.5691,-2.5664,-2.5602,-2.5606,-2.5521,-2.5371,-2.5163,-2.5006,-2.4832,-2.4337,-2.3999,-2.3774,-2.3598,0.0,0.0,-2.3095,-2.3095,-2.3095,-2.3095,-2.3095,-2.3095,-2.3095,-2.3077,-2.307,-2.307,-2.2902,-2.2721,-2.2721,-2.2392,-2.2068,-2.2068,-2.1423,-2.0804,-2.0804,-2.0804,-2.0804,-2.0804,-2.0841,-2.0745,-2.0379,-1.998,-1.9747,-1.9747,-1.942,-1.9011,-1.863,-1.8147,0.0,-1.7323,-1.7306,-1.7695,-1.8649,-1.7922,-1.7771,-1.8612,-1.9462,-2.0093,-2.0481,-2.0562,-2.0806,-2.1328,-2.1396,-2.1423,-2.1382,-1.9795,-1.9632,0.0,0.0,0.0,0.0,0.0,0.0,0.0,0.0,0.0,0.0,0.0,0.0,0.0,0.0,0.0,-2.0448,-1.9868,-1.9383,-1.9218,-1.9598,-2.0372,-2.1729,-2.2154,-2.2588,-2.3241,-2.357,-2.4034,-2.4723,-2.4994,-2.5096,-2.5138,-2.5243,-2.5303,-2.5303,-2.5302,-2.5292,-2.5282,-2.5283,-2.5301,-2.5301,-2.5486,0.0,-2.5502,-2.5632,-2.5697,-2.5696,-2.5696,-2.5683,-2.5681,-2.5629,-2.5521,-2.5371,-2.5053,-2.4861,-2.4704,-2.4497,-2.4154,-2.3795,-2.3753,-2.3463,-2.3095,-2.3095,-2.3095,-2.3095,-2.3095,-2.3095,0.0,-2.3095,-2.2977,-2.2868,-2.2868,-2.2544,-2.2254,-2.2254,-2.2056,-2.1869,-2.1869,-2.174,-2.1582,-2.1582,-2.1582,-2.1582,-2.1582,-2.1366,-2.1183,-2.1103,-2.053,-2.0104,-2.0104,-1.9818,-1.942,-1.9026,-1.863,-1.8187,-1.772,-1.7843,-1.7813,-1.7552,-1.8381,-1.9234,-1.9973,-2.0678,-2.086,-2.0495,-2.0955,-2.1023,-2.0671,-2.1131,-2.1423,-2.141,-2.107,-2.103,0.0,0.0,0.0,0.0,0.0,0.0,0.0,0.0,0.0,0.0,0.0,-2.118,-2.1826,0.0,-2.0837,-2.0933,-1.9951,-1.9101,-1.8967,-1.9086,-1.9492,-2.0311,-2.0935,-2.162,-2.2416,-2.2943,-2.3652,-2.4636,-2.4888,-2.5024,-2.5103,-2.5233,-2.5303,-2.5303,-2.5293,-2.5332,-2.5351,-2.5348,-2.5343,-2.5356,-2.5498,-2.5532,-2.5507,-2.5648,-2.5701,-2.5701,-2.5696,-2.5703,-2.5682,-2.559,-2.5492,-2.5363,-2.503,-2.4861,-2.4794,-2.4645,-2.432,-2.3939,-2.3837,-2.358,-2.3271,-2.3126,-2.3095,-2.3095,-2.3095,-2.3095,-2.3095,-2.3095,-2.297,-2.2816,-2.2816,-2.2446,-2.2096,-2.2096,-2.194,-2.1797,-2.1797,-2.1218,-2.082,-2.1168,-2.0953,-2.082,-2.1185,-2.128,-2.1246,-2.1087,-2.0563,-2.0139,-1.998,-1.9818,-1.9545,-1.9139,-1.8745,-1.8305,-1.7828,-1.7991,-1.797,-1.7669,-1.8954,-1.992,-2.0274,-2.1015,-2.1287,-2.0941,-2.1274,-2.1274,-2.0928,-2.1274,-2.1423,-2.1423,-2.1423,-2.1423,0.0,0.0,0.0,0.0,0.0,0.0,0.0,0.0,-2.0074,-2.0885,-2.105,-2.1432,-2.2685,-2.1726,-2.0892,-2.1462,-2.0173,-1.907,-1.9019,-1.9177,-1.9285,-1.9218,-2.0003,-2.0956,-2.1946,-2.2609,-2.345,-2.4588,-2.4804,-2.4955,-2.5068,-2.5203,-2.5303,-2.5303,-2.5303,-2.5331,-2.541,-2.5406,-2.5425,-2.5447,-2.5512,-2.5547,-2.5547,-2.564,-2.5707,-2.5705,-2.5682,-2.5683,-2.5676,-2.5547,-2.542,-2.5327,-2.5041,-2.4915,-2.4847,-2.4704,-2.4408,-2.4078,-2.3878,-2.3685,-2.3458,-2.3175,-2.3095,-2.3095,-2.3095,-2.3095,-2.3095,-2.3052,-2.2893,-2.2738,-2.2668,-2.2364,-2.2039,-2.2039,-2.1911,-2.1797,-2.1797,-2.087,-2.0207,-2.0787,-2.0383,-2.0113,-2.0718,-2.1043,-2.1119,-2.0925,-2.0496,-2.0104,-1.9818,-1.9747,-1.9545,-1.9139,-1.8745,-1.8266,-1.772,-1.7843,-1.797,-1.8087,-1.933,-2.0094,-2.0214,-2.0968,-2.1423,-2.1423,-2.1423,-2.1423,-2.1423,-2.1423,-2.1423,-2.1423,-2.1423,-2.1423,-2.0308,-2.0308,-2.0292,-2.0304,-2.0192,-2.0112,0.0,0.0,-2.0007,-2.0112,-2.0706,-2.1419,-2.2168,-2.1473,-2.0982,-2.1581,-2.024,-1.907,-1.9019,-1.9667,-2.0101,-1.9919,-2.0192,-2.1058,-2.272,-2.2941,-2.3435,-2.4442,-2.4764,-2.4915,-2.4929,-2.516,-2.5303,-2.5303,-2.5303,-2.5331,-2.5406,-2.546,-2.5521,-2.557,-2.5648,-2.5676,-2.5684,-2.5683,-2.5694,-2.57,-2.5646,-2.5616,-2.5605,-2.5473,-2.5335,-2.5207,-2.513,-2.4942,-2.4707,-2.4566,-2.4357,-2.4078,-2.3878,-2.3685,-2.3458,-2.3175,-2.3095,-2.3095,-2.3095,-2.3095,-2.3052,-2.2876,-2.2685,-2.247,-2.2254,-2.1998,-2.184,-2.184,-2.1827,-2.1797,-2.1797,-2.1665,-2.1566,-2.1648,-2.136,-2.1129,-2.121,-2.1023,-2.0958,-2.1214,-2.0663,-2.0174,-2.0139,-1.9874,-1.9545,-1.9139,-1.8745,-1.8187,-1.7365,-1.7306,-1.7525,-1.8061,-1.8914,-1.9634,-2.0201,-2.0968,-2.1423,-2.1423,-2.1423,-2.1423,-2.1423,-2.1423,-2.1423,-2.1423,-2.1423,-2.1423,-1.9561,0.0,0.0,0.0,-2.02,-2.012,-2.0145,-2.0079,-2.0142,-2.0638,-2.0929,-2.1292,-2.1965,-2.1272,-2.0673,0.0,-1.988,-1.925,-1.9686,-2.0029,-2.0535,-2.1375,-2.1504,-2.1894,-2.2795,-2.2887,-2.3327,-2.4426,-2.4749,-2.4902,-2.4902,-2.5149,-2.5303,-2.5303,-2.534,-2.5398,-2.546,-2.5526,-2.5598,-2.5651,-2.5693,-2.5697,-2.5694,-2.5663,-2.5643,-2.5613,-2.5083,-2.509,-2.548,-2.5418,-2.5292,-2.5133,-2.5024,-2.4861,-2.4692,-2.4647,-2.4409,-2.4078,-2.3878,-2.3685,-2.3458,-2.3175,-2.3095,-2.3095,-2.3095,-2.302,-2.2919,-2.2816,-2.2544,-2.2226,-2.2124,-2.194,-2.1797,-2.1797,-2.1797,-2.1797,-2.1797,-2.145,-2.1226,-2.1458,-2.1061,-2.0731,-2.0975,-2.0712,-2.0496,-2.063,-2.0379,-2.0139,-1.9945,-1.9782,-1.9457,-1.8822,-1.8344,-1.7828,-1.724,-1.7199,-1.746,-1.8061,-1.8486,-1.9118,-2.0046,-2.0549,-2.0975,-2.1277,-2.1375,-2.1423,-2.1423,-2.1423,-2.1423,-2.1423,-2.1423,-2.1423,-1.8955,0.0,0.0,-2.0219,-2.0208,-2.0156,-2.015,-2.0088,-2.019,-2.0717,-2.0733,-2.0843,-2.1476,-2.0815,-2.0193,-2.0281,-1.9612,-1.9304,-1.9884,-2.0282,-2.0967,-2.2042,-2.2524,-2.286,-2.314,-2.314,-2.3492,-2.4338,-2.4716,-2.4902,-2.4902,-2.5149,-2.5322,-2.5331,-2.5374,-2.5439,-2.5526,-2.5585,-2.5619,-2.5707,-2.5697,-2.5701,-2.5683,-2.5408,-2.5254,-2.5212,-2.455,-2.4568,-2.5058,-2.5241,-2.5215,-2.5024,-2.4902,-2.4716,-2.4526,-2.4526,-2.4355,-2.4059,-2.3816,-2.362,-2.3458,-2.3175,-2.3095,-2.3095,-2.3095,-2.297,-2.279,-2.2738,-2.2436,-2.2096,-2.201,-2.1911,-2.1797,-2.1797,-2.1797,-2.1751,-2.1678,-2.1249,-2.0918,-2.1118,-2.0623,-2.0305,-2.0585,-2.0326,-2.007,-2.007,-2.007,-1.998,-1.9726,-1.9493,-1.9109,-1.8383,-1.7908,-1.7583,-1.7476,-1.7303,-1.746,-1.8061,-1.8363,-1.8914,-1.97,-2.0328,-2.0785,-2.1166,-2.1326,-2.1423,-2.1423,-2.1423,-2.1423,-2.1423,-2.1423,-2.1423,0.0,0.0,-1.9303,-2.0031,-2.0242,-2.0238,-2.0059,-2.0049,-2.0,-1.9707,-1.9701,-1.9892,-2.0439,-1.9877,-1.9554,-2.0191,-1.9612,-1.9105,-1.9123,-2.0409,-2.1381,-2.1417,-2.2749,-2.3771,0.0,-2.3999,-2.4019,-2.4192,-2.4636,-2.4902,-2.4902,-2.5149,-2.5331,-2.5387,-2.5406,-2.5467,-2.5598,-2.5601,-2.5619,-2.5707,-2.5707,-2.5696,-2.5663,-2.4817,-2.4391,-2.4331,-2.4238,-2.4186,-2.4184,-2.4839,-2.5024,-2.4902,-2.4764,-2.4459,-2.4135,-2.4135,-2.4116,-2.404,-2.3642,-2.3504,-2.3458,-2.3175,-2.3095,-2.3095,-2.3095,-2.297,-2.2764,-2.2552,-2.2298,-2.2068,-2.1869,-2.1781,-2.1797,-2.1797,-2.1797,-2.1691,-2.1371,-2.1293,-2.1198,-2.0893,-2.0481,-2.0177,-2.0208,-1.9945,-1.9726,-1.9726,-1.9726,-1.9711,-1.969,-1.8997,-1.8344,-1.7868,-1.7475,-1.7434,-1.8022,-1.7539,-1.746,-1.8061,-1.8719,-1.9067,-1.9152,-2.0441,-2.1166,-2.118,-2.1326,-2.1423,-2.1423,-2.1423,-2.1423,-2.1423,-2.1423,-2.1423,0.0,0.0,-1.9967,-2.0204,-2.0327,-2.0325,-2.0171,-2.0144,-2.0069,-1.9738,-1.9606,-1.9592,-1.9703,-1.9397,-1.9243,-1.9466,-1.9268,-1.9467,-2.0536,-2.1133,-2.1855,-2.2883,-2.3458,0.0,0.0,0.0,0.0,-2.4393,-2.4716,-2.4902,-2.4902,-2.5149,-2.5331,-2.5406,-2.5439,-2.551,-2.5601,-2.5645,-2.5687,-2.5682,-2.5074,-2.5044,-2.5513,-2.4068,-2.3967,-2.4938,-2.4381,-2.4369,-2.4769,-2.5011,-2.4981,-2.4749,-2.4522,-2.4301,-2.4078,-2.3795,-2.3689,-2.3667,-2.3553,-2.3389,-2.3223,-2.3126,-2.302,-2.2893,-2.2893,-2.2651,-2.2337,-2.2254,-2.2056,-2.1899,-2.1811,-2.1797,-2.1797,-2.1797,-2.1648,-2.1433,-2.1309,-2.1119,-2.0844,-2.0462,-2.0277,-2.0139,-1.9925,-1.9782,-1.969,-1.969,-1.9472,-1.931,-1.931,-1.8539,-1.7988,-1.7828,-1.7805,-1.7878,-1.8074,-1.7904,-1.8035,-1.8597,-1.8511,-1.8792,-1.9507,-2.0199,-2.0695,-2.1082,-2.1277,-2.1423,-2.1423,-2.1423,-2.1423,-2.1423,-2.1423,-2.1423,0.0,-1.8814,-1.9935,-2.023,-2.0313,-2.0304,-2.018,-2.0155,-2.0049,-1.975,-1.958,-1.9462,-1.932,-1.9437,-1.9414,-1.9056,-1.9541,-2.0192,-2.0859,-2.153,-2.2291,-2.3283,-2.3645,-2.381,0.0,0.0,0.0,-2.4374,-2.4716,-2.4929,-2.4981,-2.5194,-2.5365,-2.5432,-2.5504,-2.5565,-2.5637,-2.5672,-2.5682,-2.5642,-2.4706,-2.4545,-2.4982,-2.323,-2.2983,-2.3918,-2.3342,-2.3322,-2.3724,-2.3954,-2.4049,-2.4078,-2.3855,-2.3804,-2.3819,-2.3598,-2.3435,-2.3365,-2.3365,-2.3247,-2.3095,-2.302,-2.2919,-2.279,-2.2712,-2.2409,-2.2096,-2.2096,-2.1969,-2.1797,-2.1797,-2.1691,-2.1617,-2.1617,-2.1371,-2.1087,-2.0942,-2.0745,-2.0462,-2.0085,-2.0015,-1.9945,-1.9762,-1.969,-1.9654,-1.9508,-1.9124,-1.8898,-1.8898,-1.8266,-1.7842,-1.7906,-1.8038,-1.8257,-1.8675,-1.8506,-1.8623,-1.9198,-1.8898,-1.9041,-1.9773,-2.0223,-2.066,-2.0983,-2.1277,-2.1423,-2.1423,-2.1423,-2.1423,-2.1423,-2.1423,-2.1532,-1.7526,-1.8401,-1.9278,-2.0048,-2.0227,-2.018,-2.0117,-2.0048,-1.9941,-1.9726,-1.9599,-1.9462,0.0,0.0,-1.9975,-1.8986,-2.0317,-2.1167,-2.0204,-2.1578,-2.2707,0.0,0.0,0.0,0.0,0.0,0.0,-2.4228,-2.4644,-2.4949,-2.5096,-2.5302,-2.5432,-2.5504,-2.5561,-2.5637,-2.5703,-2.5703,-2.5661,-2.5586,-2.46,-2.4151,-2.4127,-2.2372,-2.1575,-2.1547,-2.1407,-2.1308,-2.1297,-2.1848,-2.2449,-2.2957,-2.2832,-2.3009,-2.3412,-2.3458,-2.3319,-2.3077,-2.3077,-2.3077,-2.3045,-2.2868,-2.279,-2.2738,-2.2525,-2.2298,-2.2096,-2.2096,-2.194,-2.1797,-2.1781,-2.1556,-2.1294,-2.1277,-2.1023,-2.0646,-2.0277,-2.0174,-2.0085,-1.9747,-1.969,-1.969,-1.969,-1.969,-1.9581,-1.9176,-1.8774,-1.8517,-1.8517,-1.8109,-1.792,-1.8118,-1.8166,-1.8623,-1.9721,-1.929,-1.9211,-1.9812,-1.9826,-1.9812,-1.9839,-2.0607,-2.0997,-2.0997,-2.1229,-2.1375,-2.1375,-2.1423,-2.1423,-2.1423,-2.1423,-2.1735,-1.7015,-1.7982,-1.9161,-1.9342,-1.9843,-2.0265,-2.018,-2.0108,-1.9969,-1.9619,-1.9513,-1.9434,0.0,0.0,0.0,-1.9145,-2.0409,0.0,-2.1149,-2.2018,0.0,-2.3451,0.0,-2.3878,-2.4059,-2.4153,0.0,-2.461,-2.4795,-2.4968,-2.5157,-2.5318,-2.5453,-2.5561,-2.5584,-2.5633,-2.5703,-2.5648,-2.5593,-2.5517,-2.3964,-2.3521,-2.3989,-2.2182,-2.1664,-2.2171,-2.209,-2.1979,-2.1864,-2.1868,-2.2218,-2.2738,-2.2422,-2.2732,-2.3371,-2.3199,-2.3028,-2.2893,-2.2893,-2.2893,-2.2825,-2.2632,-2.2453,-2.2281,-2.2226,-2.2056,-2.1869,-2.1869,-2.184,-2.1721,-2.1495,-2.1371,-2.1246,-2.099,-2.063,-2.0311,-2.0208,-2.0015,-1.9782,-1.9726,-1.969,-1.969,-1.969,-1.969,-1.9581,-1.9176,-1.9105,-1.8987,-1.87,-1.8267,-1.8205,-1.8636,-1.9107,-1.9486,-1.9786,-1.9669,-1.9826,-2.045,-2.0035,-1.9995,-2.0463,-2.0746,-2.0938,-2.0938,-2.1144,-2.1229,-2.1229,-2.1375,-2.1423,-2.1423,-2.1423,-2.1735,-1.6721,-1.7528,-1.8626,-1.8993,-1.94,-1.9777,-2.012,-2.0136,-1.9988,-1.9775,-1.9638,0.0,0.0,0.0,0.0,0.0,0.0,0.0,-2.1344,-2.1799,-2.2328,0.0,-2.3107,0.0,-2.364,-2.4026,-2.4491,0.0,-2.4956,-2.4874,-2.4724,-2.52,-2.5357,-2.5041,-2.5437,-2.5449,-2.5041,-2.5005,-2.4771,-2.4335,-2.2958,-2.248,-2.2767,-2.1337,-2.0888,-2.1211,-2.111,-2.0975,-2.0815,-2.0639,-2.1061,-2.1798,-2.1626,-2.22,-2.3151,-2.2944,-2.2842,-2.2764,-2.2571,-2.2473,-2.249,-2.2354,-2.2226,-2.2096,-2.1998,-2.1781,-2.1587,-2.1587,-2.1479,-2.1324,-2.1119,-2.0942,-2.0763,-2.0563,-2.0258,-1.998,-1.998,-1.9854,-1.969,-1.969,-1.9545,-1.9435,-1.9435,-1.931,-1.9035,-1.8577,-1.8834,-1.8974,-1.8816,-1.8605,-1.8675,-1.9237,-1.9603,-1.9904,-2.0152,-2.0178,-2.0358,-2.0686,-2.0398,-2.0371,-2.0699,-2.0838,-2.0901,-2.0901,-2.1109,-2.118,-2.118,-2.1326,-2.1423,-2.1423,-2.1681,-2.2129,-1.6425,-1.7016,-1.7852,-1.8703,-1.891,-1.9134,-1.9997,-2.0108,-2.0004,-1.9971,0.0,0.0,-1.9499,-2.0043,-2.0383,-1.9975,0.0,-2.1403,-2.1089,-2.1312,-2.1533,-2.1552,-2.2169,-2.2722,-2.3047,-2.371,-2.4306,-2.482,-2.4769,-2.4524,-2.4157,-2.4837,-2.4907,-2.4156,-2.4922,-2.4922,-2.4044,-2.4025,-2.3635,-2.2852,-2.1919,-2.1397,-2.1221,-2.0278,-1.9774,-1.9619,-1.9499,-1.9324,-1.9139,-1.8996,-1.9553,-2.0503,-2.063,-2.1481,-2.2635,-2.2607,-2.2615,-2.2571,-2.2181,-2.1994,-2.1936,-2.2039,-2.2039,-2.1953,-2.1781,-2.1495,-2.1214,-2.1214,-2.1023,-2.0794,-2.0728,-2.0462,-2.0174,-2.0139,-1.9909,-1.969,-1.969,-1.9654,-1.9632,-1.9722,-1.9332,-1.9055,-1.9089,-1.8764,-1.8372,-1.7977,-1.841,-1.8889,-1.8996,-1.9028,-1.9251,-1.9852,-1.9917,-2.0113,-2.0673,-2.0699,-2.0699,-2.0699,-2.0699,-2.0699,-2.0699,-2.0825,-2.0888,-2.0888,-2.1059,-2.1144,-2.1144,-2.1277,-2.1415,-2.151,-2.2011,-2.2634,-1.5534,-1.616,-1.7006,-1.7813,-1.8467,-1.9134,-1.9997,-2.0126,0.0,0.0,0.0,-1.9681,-1.939,-1.9966,0.0,-1.9541,0.0,0.0,0.0,0.0,-2.1713,0.0,0.0,0.0,0.0,0.0,0.0,0.0,-2.3122,-2.3442,-2.4216,-2.3751,-2.3377,-2.3231,-2.3377,-2.3349,-2.3132,-2.3137,-2.297,-2.2652,-2.1761,-2.1238,-2.1023,-2.0019,-1.9467,-1.9291,-1.9141,-1.8996,-1.886,-1.8659,-1.8936,-1.9515,-1.9976,-2.0569,-2.1238,-2.1821,-2.194,-2.1807,-2.1702,-2.143,-2.1197,-2.1675,-2.1661,-2.1417,-2.1402,-2.1151,-2.0893,-2.0893,-2.0827,-2.0712,-2.0395,-2.0243,-2.0139,-1.9854,-1.9747,-1.969,-1.969,-1.9435,-1.9322,-1.9778,-1.919,-1.8747,-1.9176,-1.8838,-1.8526,-1.8534,-1.9046,-1.9476,-1.9625,-1.9643,-1.9865,-2.0502,-2.0555,-2.0607,-2.0699,-2.0699,-2.0699,-2.0699,-2.0699,-2.0699,-2.0699,-2.0712,-2.0712,-2.0712,-2.0875,-2.0938,-2.0938,-2.1059,-2.1385,-2.2005,-2.2113,-2.2798,-1.5332,-1.5632,-1.6232,-1.7484,-1.8043,-1.8501,-1.9373,0.0,0.0,0.0,0.0,-1.9693,-1.9361,-1.962,0.0,0.0,0.0,0.0,0.0,0.0,0.0,0.0,0.0,0.0,0.0,0.0,-2.2362,-2.2719,-2.2396,-2.2392,-2.2929,-2.2557,-2.2533,-2.2994,-2.2963,-2.2661,-2.2074,-2.2066,-2.1732,-2.1093,-2.0664,-2.0382,-2.0204,-1.961,-1.9246,-1.9093,-1.8964,-1.8789,-1.8639,-1.8391,-1.8577,-1.9092,-1.9605,-2.0197,-2.0889,-2.1483,-2.1552,-2.1383,-2.1275,-2.1007,-2.0747,-2.1039,-2.1055,-2.0942,-2.0942,-2.0745,-2.0496,-2.0496,-2.0361,-2.017,-1.998,-1.9945,-1.9909,-1.9762,-1.9959,-2.0229,-2.0327,-1.9943,-1.9705,-2.0014,-1.9265,-1.8783,-1.936,-1.9039,-1.8731,-1.8795,-1.9309,-1.9721,-1.9808,-2.0061,-2.0398,-2.0673,-2.0699,-2.0699,-2.0699,-2.0699,-2.0549,-2.0233,-2.022,-2.022,-2.022,-2.0527,-2.0681,-2.0616,-2.1355,-2.1616,-2.1275,-2.1707,-2.2163,-2.26,-2.2896,-2.3407,-1.5394,-1.5347,-1.5652,-1.7161,-1.7624,-1.787,-1.8563,-1.9496,0.0,0.0,0.0,-1.9729,-1.9405,-1.932,-1.9413,0.0,0.0,0.0,0.0,0.0,0.0,0.0,0.0,0.0,0.0,0.0,0.0,-2.2234,-2.1737,-2.1418,-2.1414,-2.1416,-2.1716,-2.2386,-2.2325,-2.1863,-2.1013,-2.0963,-2.0501,-1.9593,-1.9593,-1.9513,-1.9343,-1.9188,-1.9028,-1.8877,-1.8734,-1.8545,-1.8345,-1.8065,-1.8268,-1.875,-1.9062,-1.9723,-2.0517,-2.0837,-2.0958,-2.0943,-2.0747,-2.053,-2.0277,-2.0277,-2.0379,-2.0447,-2.0447,-2.0277,-2.0085,-2.0085,-1.9889,-1.969,-1.969,-1.9654,-1.9617,-1.9566,-1.9909,-2.0279,-2.0518,-2.0151,-1.99,-2.0185,-1.9437,-1.893,-1.9562,-1.9231,-1.895,-1.9081,-1.9499,-1.9791,-1.9811,-2.0213,-2.0448,-2.0347,-2.0448,-2.0498,-2.0498,-2.0385,-2.0131,-1.9656,-1.9703,-1.9766,-1.9766,-2.0312,-2.061,-2.0476,-2.1693,-2.2076,-2.1542,-2.2361,-2.2831,-2.3125,-2.358,-2.3971,-1.5408,-1.5347,-1.5521,-1.6464,-1.7211,-1.7716,-1.7793,0.0,0.0,0.0,-1.942,-1.9888,-1.954,-1.9376,-1.9308,-1.9368,0.0,0.0,0.0,0.0,0.0,0.0,0.0,0.0,0.0,-2.0287,-2.0488,-2.0533,-2.0477,-2.0453,-2.0531,-2.0468,-2.0437,-2.0462,-2.0324,-2.0183,-2.0023,-1.991,-1.9636,-1.9261,-1.9261,-1.9109,-1.886,-1.8861,-1.8734,-1.8544,-1.8273,-1.8044,-1.7839,-1.7572,-1.7741,-1.814,-1.7946,-1.8505,-1.9435,-1.9285,-1.9614,-2.0131,-2.0096,-1.9869,-1.9588,-1.9588,-1.9737,-1.9969,-1.9969,-1.9839,-1.9647,-1.9647,-1.9647,-1.9611,-1.9611,-1.9538,-1.9362,-1.9058,-1.8836,-1.8846,-1.9332,-1.9128,-1.9135,-2.0188,-1.9567,-1.9061,-1.9664,-1.9264,-1.9094,-1.9643,-1.9773,-1.9788,-1.9826,-1.9825,-1.9708,-1.9198,-1.9604,-1.9862,-1.9862,-1.946,-1.9146,-1.9093,-1.9474,-1.9727,-1.9727,-2.0189,-2.0409,-2.0409,-2.1138,-2.1511,-2.1443,-2.2076,-2.2813,-2.3451,-2.3503,-2.3976,-1.5245,-1.5281,-1.5682,-1.703,-1.7597,-1.7965,-1.8487,0.0,0.0,-1.8964,-1.9282,-1.9645,-1.9265,-1.9099,-1.8913,-1.8626,-1.8679,-1.877,0.0,0.0,0.0,0.0,0.0,0.0,0.0,0.0,-2.0199,-2.0294,-2.0154,-2.0003,-1.9869,-1.9981,-2.002,-1.9897,-1.9738,-1.9544,-1.9368,-1.931,-1.9157,-1.8946,-1.8946,-1.8807,-1.8566,-1.8848,-1.8627,-1.8044,-1.82,-1.794,-1.7401,-1.7691,-1.7732,-1.7697,-1.8402,-1.8826,-1.9089,-1.9463,-1.9642,-1.969,-1.969,-1.9508,-1.9273,-1.9273,-1.9332,-1.9427,-1.9515,-1.9347,-1.9176,-1.9413,-1.9087,-1.8755,-1.9049,-1.9132,-1.9199,-1.954,-1.9838,-2.0116,-2.0474,-2.0143,-1.9948,-2.0465,-1.9969,-1.963,-2.0218,-2.0113,-2.0083,-2.0332,-2.0049,-1.9826,-1.9773,-1.95,-1.9251,-1.904,-1.9198,-1.9291,-1.9291,-1.9371,-1.928,-1.8896,-1.9319,-1.9598,-1.9598,-2.0088,-2.0367,-2.0367,-2.132,-2.1596,-2.1247,-2.2318,-2.3026,-2.336,-2.3778,-2.4266,-1.4876,-1.5249,-1.5674,-1.7144,-1.7718,-1.8058,0.0,0.0,-1.9945,-1.8916,-1.9152,-1.9448,-1.9143,-1.8983,-1.8752,-1.8275,-1.8469,-1.8639,-1.8489,0.0,0.0,0.0,0.0,-1.9618,0.0,-2.0026,-2.0068,-2.0059,-1.9851,-1.9623,-1.9372,-1.9462,-1.9532,-1.952,-1.9379,-1.9151,-1.8875,-1.8912,-1.8878,-1.8768,-1.8845,-1.8831,-1.8741,-1.9069,-1.8853,-1.8239,-1.8407,-1.815,-1.7613,-1.7912,-1.7945,-1.7838,-1.8512,-1.8897,-1.9105,-1.9386,-1.9345,-1.9184,-1.9184,-1.8997,-1.8707,-1.8707,-1.8707,-1.8745,-1.8822,-1.8784,-1.8784,-1.8936,-1.8525,-1.8159,-1.8422,-1.8575,-1.8833,-1.9398,-1.9929,-2.0392,-2.0791,-2.0576,-2.0361,-2.0644,-2.0384,-2.0129,-2.037,-2.0435,-2.0385,-2.0233,-1.9823,-1.9488,-1.9319,-1.8963,-1.8714,-1.8729,-1.8686,-1.8795,-1.8946,-1.9242,-1.9251,-1.8804,-1.9219,-1.949,-1.949,-2.0025,-2.0296,-2.0234,-2.1253,-2.1553,-2.1123,-2.2224,-2.2834,-2.2955,-2.3433,-2.3917,-1.4217,-1.525,-1.5351,-1.6359,-1.7262,-1.7874,0.0,-1.9011,-1.984,-1.8897,-1.9063,-1.9382,-1.932,-1.9184,-1.8931,-1.8476,-1.8789,-1.8931,-1.8457,0.0,0.0,0.0,0.0,-1.9659,-1.9616,-1.9854,-1.9857,-1.9531,-1.9376,-1.9228,-1.9029,-1.8819,-1.884,-1.9097,-1.9043,-1.8875,-1.861,-1.8735,-1.8763,-1.8704,-1.8973,-1.9215,-1.9497,-1.9497,-1.9497,-1.947,-1.8936,-1.8704,-1.8645,-1.8114,-1.8286,-1.88,-1.7903,-1.8337,-1.9405,-1.8527,-1.8358,-1.85,-1.85,-1.8187,-1.7787,-1.7787,-1.7787,-1.7787,-1.7828,-1.8187,-1.85,-1.8108,-1.7988,-1.7948,-1.7828,-1.7984,-1.8222,-1.8222,-1.8493,-1.8908,-1.9503,-1.9716,-1.9969,-2.0594,-2.0699,-2.0485,-1.9901,-1.9798,-1.9656,-1.9093,-1.8987,-1.8762,-1.8201,-1.8093,-1.8079,-1.8002,-1.7999,-1.8209,-1.8737,-1.8748,-1.8687,-1.8676,-1.9135,-1.9408,-1.9408,-1.9878,-2.0074,-2.0074,-2.0752,-2.1123,-2.1123,-2.1803,-2.2101,-2.2101,-2.2101,-2.2531,-0.799,-0.9484,-1.0566,-1.474,-1.7129,-1.8443,-1.8474,-1.9285,-1.9906,-1.9401,-1.9221,-1.9077,-1.8911,-1.8662,-1.8391,-1.8044,-1.8149,0.0,0.0,0.0,0.0,0.0,0.0,-1.9952,0.0,-1.9609,-1.9337,-1.885,-1.9075,-1.8865,-1.8009,-1.8494,-1.8688,-1.85,-1.8816,-1.8841,-1.8466,-1.9002,-1.9261,-1.924,-1.9144,-1.9126,-1.9228,-1.9315,-1.9104,-1.8708,-1.8796,-1.848,-1.7908,-1.8392,-1.8523,-1.8399,-1.8447,-1.8783,-1.9109,-1.8264,-1.8152,-1.8461,-1.8108,-1.7908,-1.7787,-1.7787,-1.7787,-1.7828,-1.7911,-1.7794,-1.7637,-1.7596,-1.8061,-1.8451,-1.8151,-1.8405,-1.8767,-1.8862,-1.9249,-1.9659,-1.9938,-1.9762,-1.9597,-1.9761,-1.9527,-1.9254,-1.9097,-1.9174,-1.9198,-1.904,-1.8655,-1.8321,-1.8147,-1.8036,-1.8043,-1.7988,-1.8589,-1.889,-1.8718,-1.9028,-1.9189,-1.9189,-1.9648,-1.9846,-1.9846,-1.9998,-2.0085,-2.0085,-2.0324,-2.0388,-2.0388,-2.106,-2.1678,-2.2101,-2.2224,-2.2396,0.0,-0.4104,-0.5867,-1.0753,-1.2175,-1.2675,-1.3909,-1.548,-1.6625,-1.6494,-1.7837,-1.8375,-1.6159,-1.5586,-1.4659,-1.2197,-1.3736,0.0,0.0,0.0,0.0,0.0,0.0,0.0,0.0,-1.8491,-1.8309,-1.7748,-1.8195,-1.8244,-1.7627,-1.8139,-1.8271,-1.798,-1.846,-1.8654,-1.847,-1.8935,-1.9208,-1.9265,-1.922,-1.9273,-1.9421,-1.9539,-1.9329,-1.8943,-1.9072,-1.8703,0.0,-1.8552,-1.8491,-1.8083,-1.8384,-1.8525,-1.8553,-1.7988,-1.7868,-1.7948,-1.7679,-1.7475,-1.7297,-1.7297,-1.7455,-1.7702,-1.7983,-1.783,-1.758,-1.768,-1.7962,-1.8201,-1.7941,-1.8093,-1.8396,-1.8484,-1.8939,-1.9384,-1.9475,-1.9267,-1.9056,-1.9056,-1.8833,-1.8566,-1.8405,-1.8483,-1.8548,-1.8398,-1.8061,-1.7788,-1.7788,-1.791,-1.8075,-1.825,-1.896,-1.9364,-1.9255,-1.9517,-1.9628,-1.9628,-1.9911,-2.0085,-2.0085,-2.0085,-2.0085,-2.0085,-2.0085,-2.0085,-2.0085,-2.0506,-2.0944,-2.1376,-2.1667,-2.1854,0.0,0.1046,-0.0988,-0.467,-0.3544,-0.2341,-0.5511,-0.8462,0.0,-1.066,-1.4537,-1.6343,-1.1227,-1.0278,-0.8426,-0.2741,-0.6575,0.0,0.0,0.0,0.0,0.0,0.0,0.0,-1.6221,-1.6614,-1.6781,-1.6302,-1.678,-1.7265,-1.7603,-1.7676,-1.7657,-1.7507,-1.7958,-1.8346,-1.8576,-1.8619,-1.8765,-1.8918,-1.914,-1.9492,-1.9919,-1.9848,-1.9848,-1.9833,-1.953,-1.9169,-1.8817,-1.8525,-1.8187,-1.7787,-1.7747,-1.7747,-1.7787,-1.7747,-1.7475,-1.7199,-1.7157,-1.6863,-1.6479,-1.6516,-1.6898,-1.7497,-1.7962,-1.8159,-1.8207,-1.8207,-1.7775,-1.7337,-1.7337,-1.7342,-1.734,-1.734,-1.7843,-1.8286,-1.8286,-1.8352,-1.8417,-1.8417,-1.8363,-1.8267,-1.7897,-1.7843,-1.7689,-1.7323,-1.7278,-1.7278,-1.7278,-1.7737,-1.8217,-1.8643,-1.9157,-1.9659,-2.0042,-2.0085,-2.0085,-2.0085,-2.0085,-2.0085,-2.0085,-2.0085,-2.0085,-2.0085,-2.0085,-2.0085,-2.0085,-2.0085,-2.0085,-2.0074,-2.0764,-2.1008,0.893,0.0,0.6704,0.2364,0.1753,0.1366,0.0,0.0,0.0,0.0,0.0,0.0,-0.4552,-0.4249,-0.3461,-0.1249,0.0,0.0,0.0,0.0,0.0,0.0,-1.6668,-1.5368,-1.5052,-1.4462,-1.4286,-1.4848,-1.511,-1.5424,-1.5864,-1.6583,-1.6844,-1.659,-1.7145,-1.7731,-1.8365,-1.9099,-1.9261,-1.8965,-1.898,-1.898,-1.8977,-1.8511,-1.8433,-1.8622,-1.8316,-1.8133,-1.8054,-1.7988,-1.7908,-1.7747,-1.7475,-1.7516,-1.7707,-1.7047,-1.6976,-1.7157,-1.6778,-1.6607,-1.6498,-1.6508,-1.6896,-1.7369,-1.7498,-1.7787,-1.8139,-1.8139,-1.8009,-1.7896,-1.7896,-1.7936,-1.7909,-1.7909,-1.8001,-1.8147,-1.8147,-1.7809,-1.7534,-1.7534,-1.7279,-1.7011,-1.6899,-1.7067,-1.7179,-1.7067,-1.72,-1.7278,-1.7278,-1.801,-1.8578,-1.8676,-1.9462,-1.9955,-2.0074,-2.0085,-2.0085,-2.0085,-2.0085,-2.0085,-2.0085,-2.0085,-2.0085,-2.0085,-2.0085,-2.0085,-2.0085,-2.0085,-2.0085,-2.0085,-2.027,-2.0324,1.1187,1.1428,1.0798,0.7168,0.7976,0.8897,0.0,0.0,0.0,0.0,0.0,0.0,0.0,0.0,0.0,0.0,0.0,0.0,0.0,0.0,0.0,0.0,-1.4198,-1.3426,-1.2376,-1.2035,-1.2092,-1.2624,-1.3448,-1.4196,-1.4728,-1.5602,-1.6052,-1.5878,-1.6186,-1.6922,-1.8078,-1.848,-1.8559,-1.8313,-1.8341,-1.8263,-1.8157,-1.7894,-1.7814,-1.7933,-1.7572,-1.7435,-1.7475,-1.705,-1.687,-1.6854,-1.6411,-1.6355,-1.6514,-1.602,-1.6032,-1.6194,-1.5944,-1.6025,-1.626,-1.6727,-1.7051,-1.734,-1.7569,-1.7679,-1.7721,-1.7996,-1.7875,-1.771,-1.771,-1.7501,-1.729,-1.729,-1.729,-1.729,-1.729,-1.7067,-1.6842,-1.6842,-1.6637,-1.6524,-1.6581,-1.674,-1.6853,-1.6909,-1.6976,-1.7129,-1.7345,-1.8132,-1.8664,-1.8892,-1.9639,-2.0085,-2.0085,-2.0085,-2.0085,-2.0085,-2.0085,-2.0085,-2.0085,-2.0085,-2.0085,-2.0085,-2.0085,-2.0085,-2.0085,-2.0085,-2.0085,-2.0085,-2.0085,-2.0085,1.1925,1.2626,1.2771,1.0585,1.3448,1.6299,0.0,0.0,0.0,0.0,0.0,0.0,0.0,0.0,0.0,0.0,0.0,0.0,0.0,0.0,0.0,0.0,-1.1214,-1.1279,-0.9148,-0.9468,-0.996,-1.0383,-1.1695,-1.2833,-1.364,-1.4381,-1.4855,-1.5016,-1.5005,-1.5736,-1.7259,-1.7231,-1.7203,-1.7107,-1.7258,-1.7216,-1.7079,-1.7175,-1.7229,-1.7229,-1.676,-1.6689,-1.6795,-1.5915,-1.5608,-1.5668,-1.5232,-1.5108,-1.5108,-1.5108,-1.5108,-1.5119,-1.5188,-1.5508,-1.6037,-1.6877,-1.7142,-1.7224,-1.7696,-1.749,-1.7157,-1.771,-1.749,-1.7101,-1.7101,-1.674,-1.6384,-1.6384,-1.6384,-1.6384,-1.6384,-1.6384,-1.6384,-1.6384,-1.6384,-1.6431,-1.6524,-1.6581,-1.6658,-1.6846,-1.6914,-1.7094,-1.7573,-1.8162,-1.8736,-1.9145,-1.9738,-2.0074,-2.0085,-2.0085,-2.0085,-2.0085,-2.0085,-2.0085,-2.0085,-2.0085,-2.0085,-2.0085,-2.0085,-2.0085,-2.0085,-2.0085,-2.0085,-2.0085,-2.0085,-2.0085,1.2688,1.3305,1.3518,1.3061,1.464,1.6221,0.0,0.0,0.0,0.0,0.0,0.0,0.0,0.0,0.0,0.0,0.0,0.0,0.0,0.0,-0.2672,-0.4973,-0.5848,-0.6455,-0.6917,-0.6955,-0.7678,-0.946,-0.9401,-1.0062,-1.1832,-1.2014,-1.2428,-1.3205,-1.3137,-1.3648,-1.4812,-1.5584,-1.5804,-1.5374,-1.5584,-1.5496,-1.5141,-1.5141,-1.5141,-1.5141,-1.5096,-1.5107,-1.5254,-1.5073,-1.5085,-1.5187,-1.5108,-1.5108,-1.5108,-1.5108,-1.5108,-1.5165,-1.5567,-1.5941,-1.6339,-1.6481,-1.6536,-1.6553,-1.6627,-1.6591,-1.6534,-1.6648,-1.6591,-1.6534,-1.6534,-1.6488,-1.6384,-1.6384,-1.6384,-1.6384,-1.6384,-1.6384,-1.6384,-1.6384,-1.6384,-1.6431,-1.6431,-1.6534,-1.6764,-1.7164,-1.7296,-1.7584,-1.8002,-1.852,-1.8965,-1.9178,-1.9663,-2.0009,-2.0074,-2.0085,-2.0085,-2.0085,-2.0085,-2.0085,-2.0085,-2.0085,-2.0085,-2.0085,-2.0085,-2.0085,-2.0085,-2.0085,-2.0085,-2.0085,-2.0085,-2.0085,1.3053,1.385,1.4413,1.4683,1.5839,0.0,0.0,0.0,0.0,0.0,0.0,0.0,0.0,0.0,0.0,0.0,0.0,0.0,0.7162,0.5577,0.3294,-0.1393,-0.2424,-0.3467,-0.5221,-0.5531,-0.6206,-0.7622,-0.7925,-0.864,-0.9976,-1.0499,-1.1116,-1.1913,-1.1922,-1.211,-1.2609,-1.3042,-1.3695,-1.4641,-1.4801,-1.4721,-1.4479,-1.456,-1.4595,-1.456,-1.434,-1.4444,-1.4755,-1.4201,-1.4212,-1.4593,-1.4305,-1.4222,-1.4302,-1.4562,-1.4822,-1.5115,-1.5593,-1.5849,-1.605,-1.6303,-1.6423,-1.6384,-1.6384,-1.6384,-1.6384,-1.6384,-1.6384,-1.6384,-1.6384,-1.6384,-1.6384,-1.6384,-1.6384,-1.6384,-1.6384,-1.6384,-1.6384,-1.6384,-1.657,-1.6736,-1.6736,-1.6992,-1.729,-1.7499,-1.754,-1.7768,-1.8281,-1.8257,-1.8485,-1.921,-1.9007,-1.9187,-1.9944,-1.9528,-1.9462,-2.0074,-2.0085,-2.0085,-2.0085,-2.0085,-2.0271,-2.0522,-2.0282,-2.0205,-2.0533,-2.0205,-2.0085,-2.0085,-2.0085,-2.0085,1.3838,1.4587,1.5256,0.0,0.0,0.0,0.0,0.0,0.0,0.0,0.0,0.0,0.0,0.0,0.0,0.0,0.0,1.3893,0.8734,0.8446,0.6929,0.1817,0.0222,-0.1333,-0.3429,-0.417,-0.4994,-0.61,-0.6766,-0.7518,-0.8438,-0.9041,-0.9766,-1.0602,-1.0635,-1.0787,-1.099,-1.0998,-1.1882,-1.3579,-1.37,-1.3653,-1.3579,-1.3852,-1.3946,-1.3899,-1.3705,-1.38,-1.4039,-1.3304,-1.3304,-1.3742,-1.3473,-1.3585,-1.3934,-1.4184,-1.4542,-1.4991,-1.5338,-1.5467,-1.5497,-1.6022,-1.6077,-1.5961,-1.5961,-1.5961,-1.5961,-1.5961,-1.5961,-1.6019,-1.6316,-1.6384,-1.6374,-1.6202,-1.6202,-1.6202,-1.6202,-1.6202,-1.6165,-1.6277,-1.6691,-1.6958,-1.6678,-1.7113,-1.7439,-1.7352,-1.7372,-1.7523,-1.8011,-1.7678,-1.7816,-1.868,-1.824,-1.8375,-1.9462,-1.8844,-1.8777,-1.9671,-1.9736,-1.9813,-2.0085,-2.0009,-2.0183,-2.0686,-2.0336,-2.0325,-2.0686,-2.0325,-2.0085,-2.0085,-2.0085,-2.0085,1.5572,1.5766,0.0,0.0,0.0,0.0,0.0,0.0,0.0,0.0,0.0,0.0,0.0,0.0,0.0,0.0,0.0,1.3751,0.9984,0.7641,0.599,0.5031,0.233,0.0056,-0.1219,-0.2489,-0.3971,-0.577,-0.5824,-0.6237,-0.7428,-0.7383,-0.7783,-0.8867,-0.8915,-0.9436,-1.0434,-1.0482,-1.0795,-1.1392,-1.1443,-1.1443,-1.1443,-1.2008,-1.2264,-1.2314,-1.2774,-1.2764,-1.2344,-1.2304,-1.2384,-1.2598,-1.3101,-1.3981,-1.4852,-1.4222,-1.4336,-1.4717,-1.4756,-1.4687,-1.4669,-1.5284,-1.5118,-1.4647,-1.4647,-1.4647,-1.4647,-1.4647,-1.4647,-1.4883,-1.6077,-1.6384,-1.6259,-1.5594,-1.5468,-1.5468,-1.5468,-1.5468,-1.5586,-1.5877,-1.6527,-1.6668,-1.5797,-1.6198,-1.6606,-1.6355,-1.6278,-1.6492,-1.6977,-1.6964,-1.7033,-1.7239,-1.755,-1.7978,-1.8576,-1.824,-1.8172,-1.8576,-1.8643,-1.9054,-2.0074,-1.9649,-1.9605,-2.0129,-2.0096,-2.0096,-2.0129,-2.0096,-2.0085,-2.0085,-2.0085,-2.0085,1.5811,1.5874,0.0,0.0,0.0,0.0,0.0,0.0,0.0,0.0,0.0,0.0,0.0,0.0,0.0,0.0,1.4605,1.2789,0.9834,0.814,0.6597,0.4929,0.2989,0.1052,-0.0665,-0.2128,-0.3433,-0.4696,-0.5002,-0.5575,-0.6549,-0.6784,-0.7291,-0.8165,-0.8237,-0.8448,-0.8849,-0.9235,-0.9503,-0.9703,-1.0736,-1.12,-1.1209,-1.146,-1.156,-1.156,-1.176,-1.176,-1.1601,-1.1601,-1.1784,-1.2169,-1.2732,-1.3413,-1.4061,-1.3904,-1.4166,-1.4589,-1.4589,-1.4517,-1.4529,-1.4765,-1.4706,-1.4469,-1.4469,-1.4469,-1.4469,-1.4469,-1.4469,-1.4588,-1.5069,-1.5245,-1.5118,-1.4883,-1.4824,-1.4899,-1.5093,-1.5149,-1.527,-1.5601,-1.6081,-1.6372,-1.6001,-1.6438,-1.6728,-1.6683,-1.6633,-1.6688,-1.6913,-1.6524,-1.6376,-1.6922,-1.7189,-1.7198,-1.6862,-1.7207,-1.7482,-1.7619,-1.8162,-1.871,-1.9121,-1.8911,-1.9178,-2.002,-1.9732,-1.9942,-2.0587,-2.0293,-2.0085,-2.0085,-2.0085,-2.0085,1.5987,1.6066,0.0,0.0,0.0,0.0,0.0,0.0,0.0,0.0,0.0,0.0,0.0,0.0,0.0,0.0,1.406,1.2436,0.9746,0.8515,0.7191,0.5206,0.3655,0.2047,0.0222,-0.1252,-0.2527,-0.3708,-0.4268,-0.4915,-0.5667,-0.6085,-0.6582,-0.7056,-0.7458,-0.7623,-0.7541,-0.8199,-0.8508,-0.8508,-0.9644,-1.0372,-1.0694,-1.0854,-1.0956,-1.0956,-1.1108,-1.1099,-1.0964,-1.1072,-1.1442,-1.2058,-1.2645,-1.3221,-1.3683,-1.3633,-1.387,-1.4172,-1.4172,-1.4052,-1.3932,-1.4112,-1.4052,-1.3881,-1.3881,-1.3881,-1.3881,-1.3881,-1.3881,-1.3881,-1.3881,-1.4172,-1.4469,-1.4231,-1.427,-1.4371,-1.4639,-1.48,-1.4997,-1.5308,-1.58,-1.6093,-1.5745,-1.6198,-1.6446,-1.6237,-1.6167,-1.6167,-1.6167,-1.5754,-1.5692,-1.6315,-1.6367,-1.6158,-1.5833,-1.6245,-1.6594,-1.6802,-1.7423,-1.8037,-1.8499,-1.8375,-1.865,-1.9499,-1.9199,-1.94,-2.014,-1.9754,-1.9671,-1.9868,-1.9868,-1.9933,1.6256,1.6524,0.0,0.0,0.0,0.0,0.0,0.0,0.0,0.0,0.0,0.0,0.0,0.0,0.0,1.508,1.4196,1.2878,1.0005,0.8626,0.7452,0.6312,0.467,0.3065,0.1726,0.039,-0.1167,-0.2952,-0.3568,-0.4197,-0.4835,-0.5169,-0.528,-0.528,-0.6478,-0.6966,-0.6775,-0.753,-0.7871,-0.7871,-0.7871,-0.8508,-0.9614,-1.0138,-1.0403,-1.0403,-1.0947,-1.0905,-1.0427,-1.0767,-1.1479,-1.2347,-1.2862,-1.3512,-1.4085,-1.3502,-1.339,-1.3511,-1.3511,-1.3094,-1.2683,-1.3268,-1.3094,-1.2621,-1.2621,-1.2621,-1.2621,-1.2621,-1.2621,-1.2621,-1.2629,-1.3528,-1.4291,-1.3631,-1.374,-1.4013,-1.4021,-1.4311,-1.4678,-1.5061,-1.5663,-1.5854,-1.4791,-1.5275,-1.5551,-1.4713,-1.4569,-1.4569,-1.4569,-1.4569,-1.4776,-1.5125,-1.4848,-1.4919,-1.5692,-1.5417,-1.5488,-1.6272,-1.6272,-1.695,-1.8442,-1.7969,-1.7969,-1.8499,-1.8499,-1.8499,-1.8509,-1.8509,-1.8777,-1.9309,-1.9299,-1.9584,1.6254,0.0,0.0,0.0,0.0,0.0,0.0,0.0,0.0,0.0,0.0,0.0,0.0,0.0,0.0,1.5126,1.371,1.2104,1.0254,0.879,0.7469,0.6312,0.4995,0.3558,0.2006,0.0501,-0.0835,-0.1898,-0.3314,-0.4081,-0.4012,-0.4631,-0.5151,-0.5483,-0.586,-0.6136,-0.6401,-0.6993,-0.7348,-0.7348,-0.7717,-0.8296,-0.904,-0.9197,-0.9458,-0.9821,-1.0028,-1.0113,-1.0217,-1.0835,-1.1188,-1.1502,-1.198,-1.2318,-1.2528,-1.2482,-1.2544,-1.2666,-1.2666,-1.2613,-1.2621,-1.2797,-1.2744,-1.2621,-1.2621,-1.2621,-1.2621,-1.2621,-1.2621,-1.2623,-1.2869,-1.3241,-1.3484,-1.3241,-1.3259,-1.3469,-1.3963,-1.415,-1.4328,-1.4692,-1.4898,-1.5002,-1.4617,-1.4776,-1.4848,-1.4641,-1.4569,-1.4569,-1.4569,-1.4569,-1.4641,-1.4784,-1.4633,-1.4713,-1.4919,-1.5133,-1.5275,-1.5488,-1.5991,-1.6621,-1.7373,-1.7245,-1.7373,-1.791,-1.7969,-1.8104,-1.8509,-1.8509,-1.8738,-1.9188,-1.8863,-1.9114,0.0,0.0,0.0,0.0,0.0,0.0,0.0,0.0,0.0,0.0,0.0,0.0,0.0,1.7327,0.0,1.4835,1.3543,1.2024,1.021,0.8954,0.7735,0.6367,0.5324,0.4113,0.2454,0.1113,-0.0056,-0.1063,-0.2621,-0.3569,-0.3574,-0.4236,-0.4703,-0.4915,-0.5198,-0.5471,-0.5833,-0.6284,-0.6598,-0.6766,-0.7079,-0.7557,-0.8143,-0.8355,-0.8613,-0.8935,-0.9323,-0.9569,-0.9758,-1.0673,-1.103,-1.0916,-1.148,-1.174,-1.1809,-1.1934,-1.2058,-1.2243,-1.2305,-1.2367,-1.2498,-1.256,-1.2621,-1.2621,-1.2621,-1.2621,-1.2621,-1.2621,-1.2621,-1.2709,-1.2996,-1.3092,-1.3124,-1.3259,-1.3394,-1.3608,-1.4021,-1.422,-1.4387,-1.453,-1.4569,-1.4569,-1.4569,-1.4569,-1.4569,-1.4569,-1.4569,-1.4569,-1.4569,-1.4569,-1.4569,-1.4569,-1.4569,-1.4569,-1.4569,-1.4848,-1.5062,-1.5204,-1.563,-1.6123,-1.6621,-1.6839,-1.7038,-1.7373,-1.7373,-1.7655,-1.8085,-1.8085,-1.8457,-1.9019,-1.8754,-1.9043,0.0,0.0,0.0,0.0,0.0,0.0,0.0,0.0,0.0,0.0,0.0,0.0,1.8001,1.7585,1.6671,1.4288,1.3453,1.2337,0.9961,0.911,0.8106,0.6475,0.5714,0.4615,0.2956,0.2062,0.1004,-0.0336,-0.1733,-0.2794,-0.3585,-0.3965,-0.4069,-0.3946,-0.4497,-0.4989,-0.5253,-0.5479,-0.5786,-0.6064,-0.6178,-0.6445,-0.6977,-0.7557,-0.7883,-0.7979,-0.8877,-0.9195,-0.912,-1.043,-1.0739,-1.0485,-1.1178,-1.149,-1.1615,-1.1615,-1.174,-1.1996,-1.205,-1.2112,-1.2236,-1.2428,-1.2498,-1.2498,-1.256,-1.2621,-1.2567,-1.2599,-1.2607,-1.2703,-1.302,-1.3122,-1.3267,-1.36,-1.3902,-1.4117,-1.4148,-1.4411,-1.4569,-1.4569,-1.4569,-1.4569,-1.4569,-1.4569,-1.4569,-1.4569,-1.4569,-1.4569,-1.4569,-1.4569,-1.4569,-1.4569,-1.4569,-1.4569,-1.4569,-1.4569,-1.4792,-1.5174,-1.5254,-1.5556,-1.6237,-1.6666,-1.6857,-1.6963,-1.6963,-1.7156,-1.755,-1.755,-1.7979,-1.8896,-1.8858,-1.9161,0.0,0.0,0.0,0.0,0.0,0.0,0.0,0.0,0.0,0.0,0.0,0.0,1.7368,1.6391,1.5276,1.4039,1.316,1.2049,1.032,0.9266,0.8265,0.7074,0.5932,0.4776,0.3503,0.2338,0.1339,0.0617,-0.1119,-0.2575,-0.3538,-0.3697,-0.3843,-0.4136,-0.4275,-0.4549,-0.5008,-0.5378,-0.5454,-0.5175,-0.5896,-0.6119,-0.5946,-0.6864,-0.7563,-0.8163,-0.8804,-0.9011,-0.907,-0.9593,-0.9787,-0.9709,-0.9901,-0.9964,-1.0028,-1.0028,-1.0465,-1.1031,-1.0528,-1.0773,-1.1337,-1.1531,-1.1593,-1.1717,-1.2367,-1.2621,-1.2553,-1.2371,-1.2646,-1.2987,-1.3127,-1.3553,-1.3982,-1.4331,-1.426,-1.4188,-1.4466,-1.4514,-1.4569,-1.4569,-1.4569,-1.4569,-1.4569,-1.4569,-1.4569,-1.4569,-1.4569,-1.4569,-1.4569,-1.4569,-1.4569,-1.4569,-1.4569,-1.4569,-1.4569,-1.4569,-1.476,-1.5193,-1.5422,-1.5839,-1.6288,-1.6384,-1.6695,-1.7367,-1.7367,-1.7568,-1.799,-1.799,-1.8267,-1.872,-1.8415,-1.8675,0.0,0.0,0.0,0.0,0.0,0.0,0.0,0.0,0.0,0.0,0.0,1.7894,1.6995,1.6015,1.4994,1.37,1.2929,1.1909,1.0174,0.9436,0.8541,0.6858,0.61,0.505,0.334,0.2563,0.1788,0.0953,-0.0504,-0.1681,-0.2469,-0.3193,-0.3694,-0.391,-0.391,-0.4128,-0.4567,-0.4787,-0.4901,-0.4897,-0.5344,-0.561,-0.575,-0.6476,-0.7162,-0.7731,-0.8337,-0.8516,-0.8375,-0.914,-0.9326,-0.9064,-0.939,-0.9518,-0.9518,-0.9518,-0.9767,-1.0142,-0.9894,-1.0085,-1.0458,-1.0647,-1.071,-1.08,-1.1587,-1.1765,-1.1831,-1.1963,-1.2255,-1.2513,-1.2731,-1.3064,-1.3357,-1.3693,-1.407,-1.4418,-1.453,-1.4569,-1.4569,-1.4569,-1.4569,-1.4569,-1.4569,-1.4569,-1.4569,-1.4569,-1.4569,-1.4569,-1.4569,-1.4569,-1.4569,-1.4569,-1.4569,-1.4712,-1.4887,-1.4903,-1.5046,-1.5404,-1.5638,-1.5878,-1.631,-1.6319,-1.6706,-1.7496,-1.7725,-1.7999,-1.8412,-1.8412,-1.8614,-1.899,-1.8779,-1.8907,0.0,0.0,0.0,0.0,0.0,0.0,0.0,0.0,0.0,0.0,1.8927,1.812,1.6799,1.6046,1.5128,1.3585,1.288,1.1859,0.9969,0.9666,0.8817,0.6637,0.6263,0.5378,0.3176,0.2792,0.2179,0.1008,0.0112,-0.0617,-0.129,-0.2519,-0.3304,-0.3583,-0.3585,-0.3747,-0.407,-0.4177,-0.4343,-0.468,-0.4761,-0.514,-0.5822,-0.6272,-0.6768,-0.7221,-0.7819,-0.7874,-0.7587,-0.8683,-0.8812,-0.8361,-0.8941,-0.9134,-0.9134,-0.9134,-0.9198,-0.9332,-0.9444,-0.952,-0.9661,-0.9826,-0.9903,-1.0012,-1.0758,-1.0963,-1.1089,-1.1601,-1.1826,-1.1971,-1.2289,-1.2437,-1.2578,-1.2837,-1.3622,-1.4353,-1.4418,-1.4489,-1.4489,-1.4569,-1.4569,-1.4569,-1.4569,-1.4569,-1.4569,-1.4569,-1.4569,-1.4569,-1.4569,-1.4569,-1.4569,-1.4569,-1.4569,-1.4792,-1.5157,-1.5189,-1.5348,-1.5745,-1.5769,-1.5955,-1.6346,-1.6431,-1.6808,-1.7497,-1.7881,-1.827,-1.867,-1.8738,-1.8981,-1.9301,-1.9301,-1.9301,0.0,0.0,0.0,0.0,0.0,0.0,0.0,0.0,0.0,0.0,1.8625,1.7894,1.6912,1.5983,1.5017,1.3982,1.3074,1.1959,1.032,0.9814,0.8928,0.7187,0.6534,0.5655,0.4278,0.3287,0.2178,0.1006,0.0784,0.0112,-0.1234,-0.1514,-0.2242,-0.3583,-0.3585,-0.3638,-0.3694,-0.4018,-0.407,-0.3805,-0.4251,-0.4845,-0.5479,-0.6129,-0.667,-0.7231,-0.7471,-0.7562,-0.7521,-0.7717,-0.7717,-0.7652,-0.7717,-0.7782,-0.7782,-0.7782,-0.8166,-0.8582,-0.8199,-0.8472,-0.8974,-0.9377,-0.9513,-0.9719,-1.0853,-1.1139,-1.1198,-1.1499,-1.1938,-1.2296,-1.2091,-1.2464,-1.2844,-1.2886,-1.3046,-1.3258,-1.376,-1.3905,-1.4049,-1.4489,-1.4569,-1.4569,-1.4569,-1.4569,-1.4569,-1.4569,-1.4569,-1.4569,-1.4569,-1.4569,-1.4569,-1.4569,-1.4569,-1.4792,-1.5157,-1.5189,-1.5459,-1.6095,-1.6134,-1.6269,-1.666,-1.7009,-1.7332,-1.7404,-1.7874,-1.8291,-1.87,-1.9079,-1.9246,-1.9301,-1.9301,-1.9301,0.0,0.0,0.0,0.0,0.0,0.0,0.0,0.0,0.0,1.8976,1.8694,1.8156,1.6853,1.5507,1.4318,1.3426,1.2365,1.1233,1.0012,0.9451,0.8508,0.6804,0.6372,0.5601,0.4119,0.3178,0.2347,0.1453,0.1064,0.0617,-0.0056,-0.0842,-0.1738,-0.2742,-0.3304,-0.3585,-0.3585,-0.3802,-0.3802,-0.3585,-0.4235,-0.4727,-0.5036,-0.5792,-0.6234,-0.6496,-0.7223,-0.7326,-0.7068,-0.7391,-0.7521,-0.7521,-0.7521,-0.7521,-0.7536,-0.7593,-0.7836,-0.8066,-0.801,-0.8151,-0.8443,-0.8609,-0.8704,-0.88,-0.9706,-0.9959,-1.0087,-1.0785,-1.1156,-1.1328,-1.1452,-1.1706,-1.1855,-1.1855,-1.1855,-1.1929,-1.2218,-1.2806,-1.3404,-1.3622,-1.3912,-1.4129,-1.4129,-1.4418,-1.4569,-1.4569,-1.4569,-1.4569,-1.4569,-1.4569,-1.4569,-1.4569,-1.4569,-1.4863,-1.5411,-1.5459,-1.5761,-1.646,-1.65,-1.6571,-1.673,-1.6902,-1.6984,-1.6984,-1.7709,-1.8276,-1.87,-1.8851,-1.9073,-1.9301,-1.9301,-1.9301,0.0,0.0,0.0,0.0,0.0,0.0,0.0,0.0,1.9683,0.0,1.8856,1.8236,1.7046,1.5508,1.4047,1.3064,1.1963,1.083,0.9769,0.9249,0.829,0.6421,0.6209,0.5546,0.3956,0.3292,0.2689,0.2093,0.1463,0.1069,0.0909,-0.0169,-0.1121,-0.1849,-0.3026,-0.3602,-0.3632,-0.3629,-0.3613,-0.3588,-0.418,-0.4485,-0.4494,-0.5349,-0.5624,-0.5557,-0.6609,-0.6872,-0.6544,-0.7068,-0.7358,-0.7404,-0.748,-0.7588,-0.7698,-0.774,-0.781,-0.7886,-0.8089,-0.816,-0.817,-0.8222,-0.824,-0.8336,-0.894,-0.9064,-0.9247,-1.0088,-1.0443,-1.0594,-1.0887,-1.1037,-1.1111,-1.1111,-1.1111,-1.1111,-1.1335,-1.2157,-1.29,-1.29,-1.3258,-1.3615,-1.376,-1.3977,-1.4201,-1.4346,-1.4274,-1.4201,-1.4353,-1.4425,-1.4425,-1.4425,-1.4425,-1.4699,-1.5388,-1.5443,-1.5819,-1.669,-1.673,-1.673,-1.673,-1.673,-1.673,-1.673,-1.731,-1.7878,-1.8371,-1.8451,-1.8772,-1.9152,-1.9152,-1.9231,0.0,0.0,0.0,0.0,0.0,0.0,0.0,0.0,1.9754,2.0238,1.9016,1.7846,1.7809,1.6275,1.4661,1.3467,1.2472,1.1309,0.9821,0.9562,0.8712,0.6475,0.6209,0.5719,0.457,0.3904,0.3281,0.2685,0.2106,0.1476,0.0939,0.0799,0.0112,-0.129,-0.2807,-0.3648,-0.3815,-0.3807,-0.3746,-0.3588,-0.3822,-0.3933,-0.3941,-0.4764,-0.4891,-0.4434,-0.5491,-0.5954,-0.5954,-0.6544,-0.6852,-0.7065,-0.7404,-0.7764,-0.8023,-0.7844,-0.79,-0.8094,-0.8311,-0.8387,-0.8415,-0.8609,-0.867,-0.8751,-0.9145,-0.9306,-0.9382,-0.9841,-1.0218,-1.0513,-1.0513,-1.0812,-1.1111,-1.1111,-1.1111,-1.126,-1.1855,-1.2452,-1.29,-1.29,-1.29,-1.3112,-1.3688,-1.3331,-1.3185,-1.376,-1.3331,-1.3185,-1.376,-1.3833,-1.3833,-1.3833,-1.3833,-1.4103,-1.4772,-1.4832,-1.5354,-1.6609,-1.673,-1.673,-1.673,-1.673,-1.673,-1.673,-1.673,-1.6984,-1.7473,-1.7878,-1.8282,-1.87,-1.87,-1.8922,0.0,0.0,0.0,0.0,0.0,0.0,0.0,1.9818,2.0026,1.9721,1.922,1.8521,1.7459,1.5664,1.4167,1.3364,1.1665,1.0233,0.9666,0.8995,0.7931,0.6372,0.6271,0.5906,0.4723,0.4092,0.368,0.356,0.2468,0.1759,0.1696,0.1178,0.0409,-0.0774,-0.1636,-0.2673,-0.3767,-0.3835,-0.3811,-0.3754,-0.3936,-0.405,-0.4058,-0.4418,-0.4498,-0.43,-0.4697,-0.5093,-0.5422,-0.5954,-0.6522,-0.7022,-0.7157,-0.7285,-0.7588,-0.8013,-0.8006,-0.7806,-0.837,-0.8595,-0.8604,-0.868,-0.8703,-0.8703,-0.8856,-0.8932,-0.9013,-0.9392,-0.962,-0.9846,-1.0368,-1.0588,-1.0812,-1.1037,-1.1111,-1.1186,-1.1409,-1.1558,-1.1706,-1.1706,-1.2077,-1.2372,-1.2592,-1.282,-1.2973,-1.3185,-1.3039,-1.2973,-1.3185,-1.3185,-1.3185,-1.3185,-1.3185,-1.3518,-1.4073,-1.413,-1.4554,-1.5357,-1.5401,-1.5567,-1.6064,-1.6072,-1.6237,-1.6648,-1.673,-1.6902,-1.7392,-1.7554,-1.7797,-1.8282,-1.8531,-1.8772,0.0,0.0,0.0,0.0,0.0,0.0,0.0,0.0,2.0051,1.9581,1.9419,1.8919,1.7295,1.5506,1.4043,1.3202,1.1325,0.9873,0.9614,0.8784,0.7723,0.6372,0.6342,0.5953,0.4807,0.438,0.4105,0.4047,0.2913,0.2179,0.2125,0.1339,0.0423,-0.0738,-0.1158,-0.2173,-0.3833,-0.3883,-0.3878,-0.3881,-0.4026,-0.4121,-0.4121,-0.4243,-0.43,-0.43,-0.43,-0.4498,-0.4894,-0.548,-0.5999,-0.6561,-0.6704,-0.6915,-0.7127,-0.7638,-0.7703,-0.7697,-0.8197,-0.8546,-0.8703,-0.8703,-0.8703,-0.8703,-0.8703,-0.8703,-0.878,-0.9013,-0.917,-0.9397,-0.9992,-1.0218,-1.0363,-1.0812,-1.0887,-1.0887,-1.0887,-1.1037,-1.1111,-1.1111,-1.1409,-1.1781,-1.2003,-1.2157,-1.2378,-1.2599,-1.2452,-1.2378,-1.2599,-1.2599,-1.2599,-1.2599,-1.2599,-1.2845,-1.3447,-1.3495,-1.3835,-1.4615,-1.4734,-1.4901,-1.5318,-1.5401,-1.5567,-1.5982,-1.6064,-1.6319,-1.6812,-1.7066,-1.7392,-1.7797,-1.8129,-1.8451,0.0,0.0,0.0,0.0,0.0,0.0,2.0678,0.0,1.9833,1.9915,1.9631,1.8899,1.7363,1.5879,1.445,1.3037,1.1601,1.0395,0.9718,0.9138,0.8137,0.6431,0.6346,0.5961,0.4875,0.484,0.4674,0.4165,0.3441,0.2748,0.219,0.1383,0.0309,-0.1171,-0.1461,-0.2292,-0.3781,-0.3824,-0.3882,-0.4019,-0.4077,-0.4132,-0.4126,-0.4246,-0.43,-0.43,-0.43,-0.43,-0.4378,-0.4968,-0.538,-0.5653,-0.6011,-0.6496,-0.6846,-0.6689,-0.7108,-0.7783,-0.7783,-0.8165,-0.8703,-0.8703,-0.8703,-0.8703,-0.8703,-0.8699,-0.8703,-0.8703,-0.9013,-0.9322,-0.9322,-0.962,-0.9997,-1.0368,-1.0519,-1.0513,-1.0513,-1.0812,-1.1111,-1.1111,-1.1111,-1.126,-1.1855,-1.1484,-1.1335,-1.1855,-1.1484,-1.1335,-1.1929,-1.2003,-1.2003,-1.2003,-1.2003,-1.2237,-1.2811,-1.285,-1.334,-1.4518,-1.4636,-1.4636,-1.4636,-1.465,-1.465,-1.4734,-1.4734,-1.4985,-1.565,-1.6319,-1.6902,-1.7392,-1.7392,-1.7878,1.6819,0.0,0.0,0.0,0.0,0.0,0.0,1.8946,1.9115,1.8933,1.8476,1.7798,1.6844,1.5677,1.4538,1.3681,1.1903,1.0395,0.9821,0.919,0.8372,0.7255,0.6846,0.6387,0.5863,0.5359,0.5071,0.5022,0.4254,0.3535,0.2913,0.1716,0.0847,0.0383,-0.0917,-0.1705,-0.2038,-0.2422,-0.2549,-0.2478,-0.3673,-0.4259,-0.4251,-0.4284,-0.43,-0.43,-0.43,-0.43,-0.4303,-0.447,-0.4948,-0.5581,-0.5724,-0.5909,-0.6244,-0.6663,-0.6674,-0.6479,-0.7015,-0.7553,-0.8012,-0.8012,-0.8012,-0.8165,-0.8546,-0.8394,-0.8165,-0.8551,-0.878,-0.8937,-0.9246,-0.962,-0.9922,-1.0067,-1.0067,-1.0143,-1.0443,-1.0588,-1.0738,-1.1037,-1.1111,-1.1186,-1.1335,-1.1186,-1.1186,-1.1335,-1.1186,-1.1186,-1.1335,-1.1335,-1.1335,-1.1335,-1.1335,-1.1557,-1.2111,-1.1981,-1.2178,-1.2883,-1.3003,-1.3163,-1.3652,-1.3864,-1.4237,-1.465,-1.4734,-1.4817,-1.4985,-1.565,-1.6319,-1.6894,-1.7229,-1.7878,0.0,0.0,0.0,0.0,0.0,0.0,1.8192,1.8363,1.8244,1.8044,1.7532,1.6917,1.6256,1.5114,1.414,1.3755,1.2077,1.0709,1.0302,0.9517,0.8635,0.7777,0.719,0.67,0.6262,0.5638,0.5264,0.5422,0.4617,0.3753,0.2813,0.1949,0.1403,0.1053,0.0067,-0.0534,-0.0788,-0.1067,-0.1132,-0.1047,-0.2066,-0.2822,-0.3422,-0.403,-0.43,-0.43,-0.43,-0.43,-0.4306,-0.4352,-0.4688,-0.5237,-0.535,-0.5418,-0.5553,-0.5941,-0.6018,-0.5938,-0.6325,-0.6865,-0.7399,-0.7399,-0.7399,-0.7476,-0.7859,-0.7706,-0.7553,-0.8165,-0.847,-0.878,-0.917,-0.9316,-0.9463,-0.962,-0.962,-0.9695,-0.9916,-1.0293,-1.0588,-1.1037,-1.1111,-1.1111,-1.1111,-1.1111,-1.1111,-1.1111,-1.1111,-1.1111,-1.1111,-1.1111,-1.1111,-1.1111,-1.1111,-1.1286,-1.1721,-1.1618,-1.1757,-1.2282,-1.2312,-1.2527,-1.3048,-1.3218,-1.347,-1.3893,-1.3886,-1.3977,-1.4321,-1.5235,-1.6064,-1.6738,-1.7147,-1.7635,0.0,0.0,0.0,0.0,0.0,0.0,1.8498,1.8182,1.7496,1.7195,1.6781,1.6255,1.571,1.4548,1.3642,1.3615,1.2358,1.1223,1.0854,0.9883,0.8934,0.8151,0.7461,0.6908,0.6362,0.5737,0.5428,0.5428,0.4688,0.3685,0.228,0.2147,0.1814,0.1146,0.1079,0.0809,0.0135,0.0067,0.0,0.0,0.0,-0.0671,-0.1878,-0.3222,-0.403,-0.43,-0.43,-0.4308,-0.4327,-0.4444,-0.4624,-0.4748,-0.4906,-0.5004,-0.5018,-0.5018,-0.5323,-0.5786,-0.5786,-0.6247,-0.6784,-0.6784,-0.6784,-0.6788,-0.6861,-0.6865,-0.6938,-0.7553,-0.8165,-0.8703,-0.9013,-0.8937,-0.878,-0.917,-0.9246,-0.9246,-0.9322,-0.9846,-1.0513,-1.0962,-1.1037,-1.1111,-1.1111,-1.1111,-1.1111,-1.1111,-1.1111,-1.1111,-1.1111,-1.1111,-1.1111,-1.1111,-1.1111,-1.1238,-1.1546,-1.1546,-1.1757,-1.2282,-1.2312,-1.2415,-1.265,-1.2687,-1.2705,-1.2705,-1.2705,-1.3045,-1.3737,-1.5068,-1.5989,-1.6566,-1.7066,-1.731,0.0,0.0,0.0,0.0,0.0,0.0,1.6402,1.716,1.7663,1.6544,1.6207,1.601,1.5745,1.4736,1.3937,1.394,1.3132,1.2074,1.0963,1.0072,0.9343,0.8896,0.7804,0.7089,0.7182,0.6063,0.5428,0.5428,0.4688,0.3885,0.3015,0.2414,0.1813,0.1144,0.1078,0.1012,0.0877,0.027,0.0,0.0,0.0,-0.0135,-0.0403,-0.0739,-0.208,-0.43,-0.43,-0.4352,-0.4447,-0.4637,-0.4704,-0.474,-0.4814,-0.4931,-0.5018,-0.5018,-0.5093,-0.5171,-0.5171,-0.5553,-0.6093,-0.6093,-0.6093,-0.617,-0.6707,-0.6556,-0.6247,-0.6861,-0.7476,-0.8012,-0.8089,-0.8394,-0.8703,-0.878,-0.878,-0.8937,-0.9246,-0.9397,-0.9771,-1.0519,-1.0887,-1.1111,-1.1111,-1.1111,-1.1111,-1.1111,-1.1111,-1.1111,-1.1111,-1.1111,-1.1111,-1.1111,-1.1111,-1.131,-1.1805,-1.1655,-1.1757,-1.2282,-1.2312,-1.2337,-1.2391,-1.2596,-1.2705,-1.2705,-1.2705,-1.3045,-1.3737,-1.5068,-1.5733,-1.5899,-1.6566,-1.7066,0.0,0.0,0.0,1.7315,0.0,0.0,0.0,1.6641,1.6992,1.639,1.5474,1.5,1.5567,1.4447,1.3501,1.3845,1.2959,1.1967,1.1302,1.0654,0.9927,0.8914,0.7869,0.7145,0.6915,0.6013,0.5428,0.5428,0.5024,0.4353,0.3282,0.2882,0.2147,0.1143,0.1077,0.1078,0.1079,0.0742,0.0337,0.0,0.0,0.0,0.0,0.0,-0.0805,-0.2216,-0.3682,-0.4359,-0.449,-0.4675,-0.4749,-0.4754,-0.4876,-0.4963,-0.5018,-0.5018,-0.5018,-0.5018,-0.5018,-0.5171,-0.5479,-0.5479,-0.5479,-0.5479,-0.5864,-0.5941,-0.5941,-0.6325,-0.6861,-0.7322,-0.7322,-0.7783,-0.8165,-0.7859,-0.8012,-0.8318,-0.8475,-0.8703,-0.9079,-0.9765,-1.0368,-1.0887,-1.1037,-1.1111,-1.1111,-1.1111,-1.1111,-1.1111,-1.1111,-1.1232,-1.1323,-1.1323,-1.1437,-1.1624,-1.1902,-1.1799,-1.189,-1.2288,-1.2312,-1.2373,-1.2499,-1.2638,-1.2705,-1.2705,-1.2705,-1.2875,-1.3222,-1.423,-1.4901,-1.5235,-1.5567,-1.5816,0.0,0.0,0.0,0.0,0.0,1.7232,0.0,0.0,0.0,1.62,1.5004,1.4304,1.5411,1.4132,1.3111,1.3691,1.268,1.1814,1.1598,1.1333,1.0547,0.8972,0.7941,0.7204,0.6709,0.5929,0.5459,0.5428,0.5428,0.4755,0.3282,0.3215,0.2547,0.1143,0.1076,0.1077,0.1078,0.1079,0.0809,0.0202,0.0135,0.0067,0.0,0.0,0.0,-0.0136,-0.2442,-0.3684,-0.4067,-0.4617,-0.4782,-0.4879,-0.498,-0.5018,-0.5018,-0.5018,-0.5018,-0.5018,-0.5018,-0.5018,-0.5018,-0.5018,-0.5018,-0.5018,-0.5018,-0.5323,-0.5709,-0.5709,-0.617,-0.671,-0.671,-0.7169,-0.7476,-0.7015,-0.7246,-0.7629,-0.7629,-0.8003,-0.8461,-0.9008,-0.9765,-1.0443,-1.0887,-1.1037,-1.1111,-1.1111,-1.1154,-1.119,-1.119,-1.1437,-1.1606,-1.1606,-1.1793,-1.1944,-1.1992,-1.1999,-1.2107,-1.2373,-1.2391,-1.2481,-1.2693,-1.2705,-1.2705,-1.2705,-1.2705,-1.2705,-1.2705,-1.3222,-1.3815,-1.4489,-1.465,-1.4734,0.0,0.0,0.0,0.0,1.8156,0.0,1.6675,0.0,1.6974,1.5678,0.0,1.5332,1.52,0.0,0.0,1.36,1.32,1.2534,1.1544,1.1612,1.1254,0.9991,0.8419,0.7456,0.7567,0.6374,0.5508,0.5439,0.5428,0.4755,0.3282,0.3215,0.2547,0.1143,0.1076,0.1076,0.1076,0.1078,0.1079,0.0944,0.0607,0.027,0.0,0.0,0.0,-0.0,-0.0359,-0.1174,-0.2474,-0.4152,-0.4906,-0.4996,-0.5012,-0.5018,-0.5018,-0.5018,-0.5018,-0.5018,-0.5018,-0.5018,-0.5018,-0.5018,-0.5018,-0.5018,-0.5018,-0.5018,-0.5093,-0.5093,-0.5556,-0.6015,-0.6015,-0.6479,-0.7015,-0.6942,-0.6942,-0.7019,-0.7019,-0.7476,-0.8008,-0.8385,-0.9003,-0.9695,-1.0443,-1.0887,-1.1111,-1.1111,-1.1323,-1.1479,-1.1479,-1.1715,-1.1878,-1.1878,-1.1908,-1.2017,-1.2246,-1.227,-1.2379,-1.2644,-1.2656,-1.2674,-1.2705,-1.2705,-1.2705,-1.2705,-1.2705,-1.2705,-1.2705,-1.279,-1.313,-1.3822,-1.4398,-1.4734,0.0,0.0,0.0,0.0,0.0,0.0,1.6744,1.6663,1.6603,1.6058,0.0,0.0,0.0,0.0,0.0,0.0,1.3328,1.2707,1.2132,1.1383,1.0526,0.9608,0.8656,0.7741,0.7034,0.6143,0.5562,0.5498,0.5494,0.508,0.3981,0.3569,0.2795,0.1746,0.1276,0.1076,0.1076,0.1077,0.1078,0.1079,0.0944,0.0742,0.0607,0.0208,0.0,0.0,0.0,-0.0299,-0.1058,-0.3691,-0.4905,-0.5018,-0.5018,-0.5018,-0.5018,-0.5018,-0.5018,-0.5018,-0.5018,-0.5018,-0.5018,-0.5018,-0.5018,-0.5018,-0.5018,-0.5018,-0.5018,-0.5018,-0.5171,-0.5401,-0.5401,-0.5864,-0.6247,-0.5864,-0.6093,-0.6325,-0.6325,-0.6553,-0.6861,-0.7395,-0.8237,-0.8922,-0.9221,-1.0132,-1.0812,-1.1037,-1.1353,-1.1534,-1.1534,-1.189,-1.2149,-1.2149,-1.2282,-1.2421,-1.253,-1.2542,-1.2584,-1.2699,-1.2705,-1.2705,-1.2705,-1.2705,-1.2705,-1.2705,-1.2705,-1.2705,-1.2705,-1.2705,-1.2875,-1.313,-1.3385,-1.3555,1.9991,0.0,0.0,1.8879,1.8179,1.7521,1.6846,1.6548,1.6374,1.6383,1.5671,0.0,0.0,0.0,1.4429,1.4417,0.0,1.3032,1.2786,1.1579,1.0444,0.9607,0.892,0.8032,0.6798,0.6169,0.5862,0.5862,0.5728,0.5325,0.4585,0.4024,0.3289,0.2198,0.1717,0.137,0.1088,0.1088,0.1084,0.1078,0.1078,0.1082,0.1091,0.056,0.0213,0.0,0.0,0.0,-0.0153,-0.2493,-0.4084,-0.5023,-0.5018,-0.5018,-0.5018,-0.5018,-0.5018,-0.5018,-0.5018,-0.5018,-0.5018,-0.5018,-0.5018,-0.5018,-0.5018,-0.5018,-0.5018,-0.5018,-0.5018,-0.5018,-0.5018,-0.5326,-0.5556,-0.5093,-0.5326,-0.5631,-0.5631,-0.5786,-0.6015,-0.6556,-0.7395,-0.8093,-0.8458,-0.9565,-1.0594,-1.0887,-1.1276,-1.1558,-1.163,-1.2035,-1.2337,-1.2415,-1.259,-1.2705,-1.2705,-1.2705,-1.2705,-1.2705,-1.2705,-1.2705,-1.2705,-1.2705,-1.2705,-1.2705,-1.2705,-1.2705,-1.2705,-1.2705,-1.2705,-1.2705,-1.2705,-1.2705,0.0,2.0457,2.0016,1.9441,1.8658,1.7831,1.6893,1.6779,1.6812,1.6455,1.6464,1.6566,1.655,1.5698,1.4966,1.4977,1.4344,0.0,0.0,1.2655,1.182,1.0696,0.9472,0.8343,0.747,0.6903,0.6535,0.6535,0.5996,0.5367,0.4701,0.4704,0.3984,0.2468,0.2395,0.1937,0.112,0.1119,0.1105,0.1076,0.1076,0.1091,0.1121,0.1079,0.0664,0.0,0.0,0.0,-0.0,-0.0078,-0.2038,-0.4964,-0.5023,-0.5018,-0.5018,-0.5018,-0.5018,-0.5018,-0.5018,-0.5018,-0.5018,-0.5018,-0.5018,-0.5018,-0.5018,-0.5018,-0.5018,-0.5018,-0.5018,-0.5018,-0.5018,-0.5018,-0.5015,-0.5018,-0.5018,-0.5015,-0.5015,-0.5479,-0.5941,-0.5938,-0.6479,-0.7297,-0.8492,-0.9673,-1.0513,-1.0513,-1.1047,-1.1624,-1.1878,-1.2149,-1.2409,-1.2662,-1.2699,-1.2705,-1.2705,-1.2705,-1.2705,-1.2705,-1.2705,-1.2705,-1.2705,-1.2705,-1.2705,-1.2705,-1.2705,-1.2705,-1.2705,-1.2705,-1.2705,-1.2705,-1.2705,-1.2705,2.0168,1.9918,1.9656,1.9524,1.8728,1.7763,1.7043,1.6917,1.6733,1.6185,1.6365,1.6473,1.6058,1.569,1.5249,1.4795,1.4278,1.3837,0.0,1.2555,1.1269,1.0179,0.0,0.0,0.8187,0.7234,0.6652,0.6776,0.6153,0.5649,0.5571,0.5132,0.4578,0.3921,0.2907,0.2247,0.194,0.1413,0.1126,0.1136,0.1115,0.1122,0.1152,0.1183,0.1052,0.0758,0.0233,0.0,0.0,0.0,-0.0706,-0.1882,-0.4164,-0.5031,-0.5026,-0.5021,-0.5018,-0.5018,-0.5018,-0.5018,-0.5018,-0.5018,-0.5018,-0.5018,-0.5018,-0.5018,-0.5018,-0.5018,-0.5018,-0.5018,-0.5018,-0.5018,-0.5018,-0.5018,-0.5018,-0.5018,-0.5018,-0.5171,-0.5323,-0.5323,-0.5861,-0.6493,-0.694,-0.7944,-0.926,-1.0779,-1.1174,-1.157,-1.2068,-1.2409,-1.2608,-1.2693,-1.2705,-1.2705,-1.2705,-1.2705,-1.2705,-1.2705,-1.2705,-1.2705,-1.2705,-1.2705,-1.2705,-1.2705,-1.2705,-1.2705,-1.2705,-1.2705,-1.2705,-1.2705,-1.2705,-1.2705,1.9803,1.9457,1.9224,1.9425,1.8745,1.7904,1.7414,1.7264,1.7111,1.6541,1.6644,1.6673,1.6295,1.5855,1.5385,1.4924,1.443,1.392,0.0,1.2416,1.1236,0.0,0.0,0.0,0.0,0.7503,0.6886,0.6932,0.623,0.5891,0.6101,0.5727,0.5231,0.4845,0.3878,0.3196,0.2873,0.2032,0.1591,0.1602,0.129,0.1153,0.1183,0.1202,0.1217,0.1229,0.0702,0.0393,0.0236,0.0079,0.0,-0.0314,-0.3694,-0.4643,-0.416,-0.4784,-0.5018,-0.5018,-0.5018,-0.5018,-0.5018,-0.5018,-0.5018,-0.5018,-0.5018,-0.5018,-0.5018,-0.5018,-0.5018,-0.5018,-0.5018,-0.5018,-0.5018,-0.5018,-0.5018,-0.5018,-0.5018,-0.5018,-0.5018,-0.5018,-0.5427,-0.5848,-0.614,-0.6791,-0.7922,-0.972,-1.0207,-1.0621,-1.1106,-1.1696,-1.2088,-1.2174,-1.2534,-1.2705,-1.2705,-1.2705,-1.2705,-1.2705,-1.2705,-1.2705,-1.2705,-1.2705,-1.2705,-1.2705,-1.2705,-1.2705,-1.2705,-1.2705,-1.2705,-1.2705,-1.2705,-1.2705]}]]